<?xml version='1.0' encoding='UTF-8'?>
<gpx version="1.1" creator="https://www.komoot.de" xmlns="http://www.topografix.com/GPX/1/1" xmlns:xsi="http://www.w3.org/2001/XMLSchema-instance" xsi:schemaLocation="http://www.topografix.com/GPX/1/1 http://www.topografix.com/GPX/1/1/gpx.xsd">
  <metadata>
    <name>59_1000Arxhof</name>
    <author>
      <link href="https://www.komoot.de">
        <text>komoot</text>
        <type>text/html</type>
      </link>
    </author>
  </metadata>
  <trk>
    <name>59_1000Arxhof</name>
    <trkseg>
      <trkpt lat="47.541301" lon="7.870881">
        <ele>339.206816</ele>
        <time>2021-11-15T20:08:35.042Z</time>
      </trkpt>
      <trkpt lat="47.541410" lon="7.870791">
        <ele>339.206816</ele>
        <time>2021-11-15T20:08:37.019Z</time>
      </trkpt>
      <trkpt lat="47.541576" lon="7.870664">
        <ele>339.206816</ele>
        <time>2021-11-15T20:08:39.458Z</time>
      </trkpt>
      <trkpt lat="47.541550" lon="7.870601">
        <ele>339.206816</ele>
        <time>2021-11-15T20:08:40.268Z</time>
      </trkpt>
      <trkpt lat="47.541521" lon="7.870517">
        <ele>339.206816</ele>
        <time>2021-11-15T20:08:41.299Z</time>
      </trkpt>
      <trkpt lat="47.541606" lon="7.870424">
        <ele>339.206816</ele>
        <time>2021-11-15T20:08:42.953Z</time>
      </trkpt>
      <trkpt lat="47.541910" lon="7.870106">
        <ele>339.203416</ele>
        <time>2021-11-15T20:08:48.616Z</time>
      </trkpt>
      <trkpt lat="47.542014" lon="7.870126">
        <ele>339.105960</ele>
        <time>2021-11-15T20:08:50.087Z</time>
      </trkpt>
      <trkpt lat="47.542118" lon="7.870135">
        <ele>339.009150</ele>
        <time>2021-11-15T20:08:51.816Z</time>
      </trkpt>
      <trkpt lat="47.542181" lon="7.870131">
        <ele>338.950552</ele>
        <time>2021-11-15T20:08:52.684Z</time>
      </trkpt>
      <trkpt lat="47.542317" lon="7.870012">
        <ele>338.803770</ele>
        <time>2021-11-15T20:08:54.802Z</time>
      </trkpt>
      <trkpt lat="47.542348" lon="7.869983">
        <ele>338.769699</ele>
        <time>2021-11-15T20:08:55.241Z</time>
      </trkpt>
      <trkpt lat="47.542329" lon="7.869820">
        <ele>338.665935</ele>
        <time>2021-11-15T20:08:57.008Z</time>
      </trkpt>
      <trkpt lat="47.542372" lon="7.869746">
        <ele>338.604685</ele>
        <time>2021-11-15T20:08:57.821Z</time>
      </trkpt>
      <trkpt lat="47.542657" lon="7.869354">
        <ele>338.243283</ele>
        <time>2021-11-15T20:09:02.621Z</time>
      </trkpt>
      <trkpt lat="47.542696" lon="7.869257">
        <ele>338.172460</ele>
        <time>2021-11-15T20:09:03.556Z</time>
      </trkpt>
      <trkpt lat="47.542722" lon="7.869201">
        <ele>338.129824</ele>
        <time>2021-11-15T20:09:04.148Z</time>
      </trkpt>
      <trkpt lat="47.543049" lon="7.868759">
        <ele>337.718465</ele>
        <time>2021-11-15T20:09:09.061Z</time>
      </trkpt>
      <trkpt lat="47.543105" lon="7.868711">
        <ele>337.658343</ele>
        <time>2021-11-15T20:09:09.799Z</time>
      </trkpt>
      <trkpt lat="47.543201" lon="7.868657">
        <ele>337.562917</ele>
        <time>2021-11-15T20:09:10.877Z</time>
      </trkpt>
      <trkpt lat="47.543657" lon="7.868359">
        <ele>336.907905</ele>
        <time>2021-11-15T20:09:16.673Z</time>
      </trkpt>
      <trkpt lat="47.543801" lon="7.868269">
        <ele>336.698698</ele>
        <time>2021-11-15T20:09:19.152Z</time>
      </trkpt>
      <trkpt lat="47.544214" lon="7.867988">
        <ele>336.090349</ele>
        <time>2021-11-15T20:09:26.769Z</time>
      </trkpt>
      <trkpt lat="47.544246" lon="7.867967">
        <ele>336.043500</ele>
        <time>2021-11-15T20:09:27.365Z</time>
      </trkpt>
      <trkpt lat="47.544410" lon="7.867825">
        <ele>335.789228</ele>
        <time>2021-11-15T20:09:30.618Z</time>
      </trkpt>
      <trkpt lat="47.544469" lon="7.867776">
        <ele>335.698688</ele>
        <time>2021-11-15T20:09:31.640Z</time>
      </trkpt>
      <trkpt lat="47.544568" lon="7.867693">
        <ele>335.546420</ele>
        <time>2021-11-15T20:09:33.567Z</time>
      </trkpt>
      <trkpt lat="47.545003" lon="7.867278">
        <ele>335.294275</ele>
        <time>2021-11-15T20:09:42.416Z</time>
      </trkpt>
      <trkpt lat="47.545160" lon="7.866985">
        <ele>335.499764</ele>
        <time>2021-11-15T20:09:47.066Z</time>
      </trkpt>
      <trkpt lat="47.545240" lon="7.866887">
        <ele>335.584238</ele>
        <time>2021-11-15T20:09:49.340Z</time>
      </trkpt>
      <trkpt lat="47.546096" lon="7.866147">
        <ele>336.390737</ele>
        <time>2021-11-15T20:10:14.410Z</time>
      </trkpt>
      <trkpt lat="47.546327" lon="7.865959">
        <ele>336.625064</ele>
        <time>2021-11-15T20:10:22.147Z</time>
      </trkpt>
      <trkpt lat="47.546510" lon="7.865766">
        <ele>337.070956</ele>
        <time>2021-11-15T20:10:29.248Z</time>
      </trkpt>
      <trkpt lat="47.546819" lon="7.865489">
        <ele>337.787859</ele>
        <time>2021-11-15T20:10:39.479Z</time>
      </trkpt>
      <trkpt lat="47.546889" lon="7.865225">
        <ele>338.167888</ele>
        <time>2021-11-15T20:10:44.669Z</time>
      </trkpt>
      <trkpt lat="47.546894" lon="7.864837">
        <ele>338.687838</ele>
        <time>2021-11-15T20:10:52.090Z</time>
      </trkpt>
      <trkpt lat="47.546885" lon="7.864500">
        <ele>339.139715</ele>
        <time>2021-11-15T20:10:58.879Z</time>
      </trkpt>
      <trkpt lat="47.546877" lon="7.864345">
        <ele>339.347995</ele>
        <time>2021-11-15T20:11:01.773Z</time>
      </trkpt>
      <trkpt lat="47.546592" lon="7.863006">
        <ele>340.589602</ele>
        <time>2021-11-15T20:11:27.782Z</time>
      </trkpt>
      <trkpt lat="47.546526" lon="7.861665">
        <ele>341.311794</ele>
        <time>2021-11-15T20:11:48.514Z</time>
      </trkpt>
      <trkpt lat="47.546487" lon="7.859119">
        <ele>341.176563</ele>
        <time>2021-11-15T20:12:21.134Z</time>
      </trkpt>
      <trkpt lat="47.546537" lon="7.857497">
        <ele>340.871975</ele>
        <time>2021-11-15T20:12:42.146Z</time>
      </trkpt>
      <trkpt lat="47.546582" lon="7.856413">
        <ele>340.681163</ele>
        <time>2021-11-15T20:12:56.500Z</time>
      </trkpt>
      <trkpt lat="47.546945" lon="7.851719">
        <ele>339.210796</ele>
        <time>2021-11-15T20:13:57.534Z</time>
      </trkpt>
      <trkpt lat="47.547141" lon="7.850355">
        <ele>338.242741</ele>
        <time>2021-11-15T20:14:13.099Z</time>
      </trkpt>
      <trkpt lat="47.547143" lon="7.849985">
        <ele>337.753581</ele>
        <time>2021-11-15T20:14:17.008Z</time>
      </trkpt>
      <trkpt lat="47.547124" lon="7.848795">
        <ele>336.179947</ele>
        <time>2021-11-15T20:14:29.606Z</time>
      </trkpt>
      <trkpt lat="47.547274" lon="7.845536">
        <ele>332.133675</ele>
        <time>2021-11-15T20:15:04.365Z</time>
      </trkpt>
      <trkpt lat="47.547295" lon="7.844722">
        <ele>331.832268</ele>
        <time>2021-11-15T20:15:13.847Z</time>
      </trkpt>
      <trkpt lat="47.547313" lon="7.843735">
        <ele>331.971981</ele>
        <time>2021-11-15T20:15:26.471Z</time>
      </trkpt>
      <trkpt lat="47.547354" lon="7.842839">
        <ele>332.099058</ele>
        <time>2021-11-15T20:15:40.877Z</time>
      </trkpt>
      <trkpt lat="47.547448" lon="7.842262">
        <ele>332.924949</ele>
        <time>2021-11-15T20:15:52.131Z</time>
      </trkpt>
      <trkpt lat="47.547314" lon="7.842270">
        <ele>333.414083</ele>
        <time>2021-11-15T20:15:56.075Z</time>
      </trkpt>
      <trkpt lat="47.547314" lon="7.842270">
        <ele>333.414083</ele>
        <time>2021-11-15T20:15:56.128Z</time>
      </trkpt>
      <trkpt lat="47.546951" lon="7.842267">
        <ele>334.738071</ele>
        <time>2021-11-15T20:16:07.504Z</time>
      </trkpt>
      <trkpt lat="47.546843" lon="7.842270">
        <ele>335.132048</ele>
        <time>2021-11-15T20:16:10.489Z</time>
      </trkpt>
      <trkpt lat="47.545011" lon="7.842239">
        <ele>343.925816</ele>
        <time>2021-11-15T20:17:12.870Z</time>
      </trkpt>
      <trkpt lat="47.544939" lon="7.842229">
        <ele>344.368282</ele>
        <time>2021-11-15T20:17:16.381Z</time>
      </trkpt>
      <trkpt lat="47.544480" lon="7.842116">
        <ele>347.215203</ele>
        <time>2021-11-15T20:17:34.984Z</time>
      </trkpt>
      <trkpt lat="47.543343" lon="7.841595">
        <ele>357.659812</ele>
        <time>2021-11-15T20:18:31.137Z</time>
      </trkpt>
      <trkpt lat="47.543032" lon="7.841467">
        <ele>360.937602</ele>
        <time>2021-11-15T20:18:45.991Z</time>
      </trkpt>
      <trkpt lat="47.542890" lon="7.841434">
        <ele>362.397231</ele>
        <time>2021-11-15T20:18:56.288Z</time>
      </trkpt>
      <trkpt lat="47.542795" lon="7.841432">
        <ele>363.362043</ele>
        <time>2021-11-15T20:19:02.073Z</time>
      </trkpt>
      <trkpt lat="47.542781" lon="7.841430">
        <ele>363.504870</ele>
        <time>2021-11-15T20:19:03.424Z</time>
      </trkpt>
      <trkpt lat="47.542339" lon="7.841424">
        <ele>368.002585</ele>
        <time>2021-11-15T20:19:33.371Z</time>
      </trkpt>
      <trkpt lat="47.542097" lon="7.841420">
        <ele>371.335515</ele>
        <time>2021-11-15T20:19:50.871Z</time>
      </trkpt>
      <trkpt lat="47.541583" lon="7.841568">
        <ele>378.546583</ele>
        <time>2021-11-15T20:20:28.158Z</time>
      </trkpt>
      <trkpt lat="47.541483" lon="7.841624">
        <ele>380.018860</ele>
        <time>2021-11-15T20:20:36.976Z</time>
      </trkpt>
      <trkpt lat="47.541409" lon="7.841671">
        <ele>381.127676</ele>
        <time>2021-11-15T20:20:42.008Z</time>
      </trkpt>
      <trkpt lat="47.541351" lon="7.841740">
        <ele>382.152119</ele>
        <time>2021-11-15T20:20:48.606Z</time>
      </trkpt>
      <trkpt lat="47.541050" lon="7.841906">
        <ele>386.575314</ele>
        <time>2021-11-15T20:21:09.480Z</time>
      </trkpt>
      <trkpt lat="47.540817" lon="7.841934">
        <ele>389.794633</ele>
        <time>2021-11-15T20:21:24.918Z</time>
      </trkpt>
      <trkpt lat="47.540744" lon="7.841906">
        <ele>390.833112</ele>
        <time>2021-11-15T20:21:30.372Z</time>
      </trkpt>
      <trkpt lat="47.540531" lon="7.841825">
        <ele>393.663032</ele>
        <time>2021-11-15T20:21:43.951Z</time>
      </trkpt>
      <trkpt lat="47.540305" lon="7.841591">
        <ele>396.789195</ele>
        <time>2021-11-15T20:22:04.801Z</time>
      </trkpt>
      <trkpt lat="47.540168" lon="7.841414">
        <ele>398.850217</ele>
        <time>2021-11-15T20:22:18.998Z</time>
      </trkpt>
      <trkpt lat="47.540066" lon="7.841269">
        <ele>400.453018</ele>
        <time>2021-11-15T20:22:29.613Z</time>
      </trkpt>
      <trkpt lat="47.539702" lon="7.840734">
        <ele>406.266640</ele>
        <time>2021-11-15T20:22:55.111Z</time>
      </trkpt>
      <trkpt lat="47.539657" lon="7.840668">
        <ele>406.984603</ele>
        <time>2021-11-15T20:22:59.597Z</time>
      </trkpt>
      <trkpt lat="47.539459" lon="7.840353">
        <ele>410.278838</ele>
        <time>2021-11-15T20:23:14.616Z</time>
      </trkpt>
      <trkpt lat="47.539357" lon="7.840201">
        <ele>411.919202</ele>
        <time>2021-11-15T20:23:22.388Z</time>
      </trkpt>
      <trkpt lat="47.539226" lon="7.839805">
        <ele>414.917396</ele>
        <time>2021-11-15T20:23:39.094Z</time>
      </trkpt>
      <trkpt lat="47.538868" lon="7.838681">
        <ele>422.772256</ele>
        <time>2021-11-15T20:24:25.476Z</time>
      </trkpt>
      <trkpt lat="47.538837" lon="7.838580">
        <ele>423.473477</ele>
        <time>2021-11-15T20:24:30.587Z</time>
      </trkpt>
      <trkpt lat="47.538810" lon="7.838491">
        <ele>424.090164</ele>
        <time>2021-11-15T20:24:33.671Z</time>
      </trkpt>
      <trkpt lat="47.538712" lon="7.838169">
        <ele>426.322533</ele>
        <time>2021-11-15T20:24:44.875Z</time>
      </trkpt>
      <trkpt lat="47.538612" lon="7.837844">
        <ele>428.579905</ele>
        <time>2021-11-15T20:24:56.427Z</time>
      </trkpt>
      <trkpt lat="47.538505" lon="7.837464">
        <ele>430.922790</ele>
        <time>2021-11-15T20:25:08.968Z</time>
      </trkpt>
      <trkpt lat="47.538410" lon="7.837106">
        <ele>432.834009</ele>
        <time>2021-11-15T20:25:21.427Z</time>
      </trkpt>
      <trkpt lat="47.538222" lon="7.835464">
        <ele>441.108876</ele>
        <time>2021-11-15T20:26:12.256Z</time>
      </trkpt>
      <trkpt lat="47.538158" lon="7.835307">
        <ele>442.020120</ele>
        <time>2021-11-15T20:26:17.097Z</time>
      </trkpt>
      <trkpt lat="47.537707" lon="7.834801">
        <ele>445.617678</ele>
        <time>2021-11-15T20:26:38.384Z</time>
      </trkpt>
      <trkpt lat="47.537138" lon="7.834039">
        <ele>450.189124</ele>
        <time>2021-11-15T20:27:08.790Z</time>
      </trkpt>
      <trkpt lat="47.536897" lon="7.833599">
        <ele>452.468773</ele>
        <time>2021-11-15T20:27:24.591Z</time>
      </trkpt>
      <trkpt lat="47.536802" lon="7.833477">
        <ele>453.218092</ele>
        <time>2021-11-15T20:27:29.612Z</time>
      </trkpt>
      <trkpt lat="47.536644" lon="7.833357">
        <ele>453.981362</ele>
        <time>2021-11-15T20:27:35.952Z</time>
      </trkpt>
      <trkpt lat="47.536401" lon="7.833309">
        <ele>454.211364</ele>
        <time>2021-11-15T20:27:44.092Z</time>
      </trkpt>
      <trkpt lat="47.536091" lon="7.833355">
        <ele>454.503662</ele>
        <time>2021-11-15T20:27:53.837Z</time>
      </trkpt>
      <trkpt lat="47.535868" lon="7.833423">
        <ele>454.717269</ele>
        <time>2021-11-15T20:27:58.436Z</time>
      </trkpt>
      <trkpt lat="47.535301" lon="7.833465">
        <ele>455.249894</ele>
        <time>2021-11-15T20:28:06.601Z</time>
      </trkpt>
      <trkpt lat="47.535041" lon="7.833445">
        <ele>455.494155</ele>
        <time>2021-11-15T20:28:09.344Z</time>
      </trkpt>
      <trkpt lat="47.534869" lon="7.833423">
        <ele>455.342788</ele>
        <time>2021-11-15T20:28:10.945Z</time>
      </trkpt>
      <trkpt lat="47.534581" lon="7.833360">
        <ele>453.596255</ele>
        <time>2021-11-15T20:28:13.979Z</time>
      </trkpt>
      <trkpt lat="47.534536" lon="7.833350">
        <ele>453.323266</ele>
        <time>2021-11-15T20:28:14.364Z</time>
      </trkpt>
      <trkpt lat="47.534258" lon="7.833316">
        <ele>451.649792</ele>
        <time>2021-11-15T20:28:17.151Z</time>
      </trkpt>
      <trkpt lat="47.534141" lon="7.833324">
        <ele>450.947129</ele>
        <time>2021-11-15T20:28:18.165Z</time>
      </trkpt>
      <trkpt lat="47.534011" lon="7.833341">
        <ele>450.164190</ele>
        <time>2021-11-15T20:28:19.460Z</time>
      </trkpt>
      <trkpt lat="47.533862" lon="7.833372">
        <ele>449.261522</ele>
        <time>2021-11-15T20:28:20.799Z</time>
      </trkpt>
      <trkpt lat="47.533855" lon="7.833235">
        <ele>448.705026</ele>
        <time>2021-11-15T20:28:23.071Z</time>
      </trkpt>
      <trkpt lat="47.533787" lon="7.832819">
        <ele>446.971362</ele>
        <time>2021-11-15T20:28:25.685Z</time>
      </trkpt>
      <trkpt lat="47.533728" lon="7.831912">
        <ele>443.144790</ele>
        <time>2021-11-15T20:28:31.073Z</time>
      </trkpt>
      <trkpt lat="47.533685" lon="7.831757">
        <ele>442.406282</ele>
        <time>2021-11-15T20:28:32.071Z</time>
      </trkpt>
      <trkpt lat="47.533641" lon="7.831715">
        <ele>442.064597</ele>
        <time>2021-11-15T20:28:32.528Z</time>
      </trkpt>
      <trkpt lat="47.533606" lon="7.831667">
        <ele>441.753241</ele>
        <time>2021-11-15T20:28:32.984Z</time>
      </trkpt>
      <trkpt lat="47.533503" lon="7.831541">
        <ele>440.881251</ele>
        <time>2021-11-15T20:28:34.184Z</time>
      </trkpt>
      <trkpt lat="47.533464" lon="7.831485">
        <ele>440.526689</ele>
        <time>2021-11-15T20:28:34.657Z</time>
      </trkpt>
      <trkpt lat="47.533248" lon="7.831080">
        <ele>438.252129</ele>
        <time>2021-11-15T20:28:37.847Z</time>
      </trkpt>
      <trkpt lat="47.533205" lon="7.830904">
        <ele>437.427260</ele>
        <time>2021-11-15T20:28:39.055Z</time>
      </trkpt>
      <trkpt lat="47.533172" lon="7.830741">
        <ele>436.677305</ele>
        <time>2021-11-15T20:28:40.136Z</time>
      </trkpt>
      <trkpt lat="47.533138" lon="7.830624">
        <ele>436.115943</ele>
        <time>2021-11-15T20:28:40.908Z</time>
      </trkpt>
      <trkpt lat="47.532741" lon="7.829861">
        <ele>431.919653</ele>
        <time>2021-11-15T20:28:46.988Z</time>
      </trkpt>
      <trkpt lat="47.532227" lon="7.828686">
        <ele>425.998842</ele>
        <time>2021-11-15T20:28:55.601Z</time>
      </trkpt>
      <trkpt lat="47.531778" lon="7.828188">
        <ele>422.485363</ele>
        <time>2021-11-15T20:29:00.642Z</time>
      </trkpt>
      <trkpt lat="47.531664" lon="7.828061">
        <ele>421.639233</ele>
        <time>2021-11-15T20:29:02.003Z</time>
      </trkpt>
      <trkpt lat="47.531513" lon="7.827959">
        <ele>420.818537</ele>
        <time>2021-11-15T20:29:03.437Z</time>
      </trkpt>
      <trkpt lat="47.530910" lon="7.827537">
        <ele>417.520549</ele>
        <time>2021-11-15T20:29:09.685Z</time>
      </trkpt>
      <trkpt lat="47.530778" lon="7.827416">
        <ele>416.752895</ele>
        <time>2021-11-15T20:29:11.252Z</time>
      </trkpt>
      <trkpt lat="47.530711" lon="7.827258">
        <ele>416.129942</ele>
        <time>2021-11-15T20:29:12.503Z</time>
      </trkpt>
      <trkpt lat="47.530663" lon="7.827082">
        <ele>415.496174</ele>
        <time>2021-11-15T20:29:13.631Z</time>
      </trkpt>
      <trkpt lat="47.530680" lon="7.826915">
        <ele>414.932282</ele>
        <time>2021-11-15T20:29:15.172Z</time>
      </trkpt>
      <trkpt lat="47.530772" lon="7.826425">
        <ele>413.234162</ele>
        <time>2021-11-15T20:29:18.545Z</time>
      </trkpt>
      <trkpt lat="47.530870" lon="7.825910">
        <ele>411.185888</ele>
        <time>2021-11-15T20:29:22.278Z</time>
      </trkpt>
      <trkpt lat="47.531216" lon="7.825253">
        <ele>407.910104</ele>
        <time>2021-11-15T20:29:27.473Z</time>
      </trkpt>
      <trkpt lat="47.531554" lon="7.824738">
        <ele>405.086484</ele>
        <time>2021-11-15T20:29:32.126Z</time>
      </trkpt>
      <trkpt lat="47.531766" lon="7.824396">
        <ele>403.261207</ele>
        <time>2021-11-15T20:29:34.941Z</time>
      </trkpt>
      <trkpt lat="47.531817" lon="7.824286">
        <ele>402.736606</ele>
        <time>2021-11-15T20:29:35.761Z</time>
      </trkpt>
      <trkpt lat="47.531785" lon="7.824131">
        <ele>401.792246</ele>
        <time>2021-11-15T20:29:36.685Z</time>
      </trkpt>
      <trkpt lat="47.531355" lon="7.822795">
        <ele>390.867389</ele>
        <time>2021-11-15T20:29:45.256Z</time>
      </trkpt>
      <trkpt lat="47.531187" lon="7.822513">
        <ele>388.091346</ele>
        <time>2021-11-15T20:29:47.394Z</time>
      </trkpt>
      <trkpt lat="47.530898" lon="7.822253">
        <ele>384.394601</ele>
        <time>2021-11-15T20:29:50.228Z</time>
      </trkpt>
      <trkpt lat="47.530784" lon="7.822183">
        <ele>383.045419</ele>
        <time>2021-11-15T20:29:51.264Z</time>
      </trkpt>
      <trkpt lat="47.530546" lon="7.822037">
        <ele>379.950804</ele>
        <time>2021-11-15T20:29:53.447Z</time>
      </trkpt>
      <trkpt lat="47.529477" lon="7.821870">
        <ele>366.919731</ele>
        <time>2021-11-15T20:30:02.535Z</time>
      </trkpt>
      <trkpt lat="47.529177" lon="7.821813">
        <ele>363.253112</ele>
        <time>2021-11-15T20:30:05.095Z</time>
      </trkpt>
      <trkpt lat="47.529032" lon="7.821783">
        <ele>361.478249</ele>
        <time>2021-11-15T20:30:06.337Z</time>
      </trkpt>
      <trkpt lat="47.528891" lon="7.821754">
        <ele>359.982752</ele>
        <time>2021-11-15T20:30:07.537Z</time>
      </trkpt>
      <trkpt lat="47.528543" lon="7.821686">
        <ele>356.524836</ele>
        <time>2021-11-15T20:30:11.731Z</time>
      </trkpt>
      <trkpt lat="47.528034" lon="7.821675">
        <ele>351.510058</ele>
        <time>2021-11-15T20:30:17.867Z</time>
      </trkpt>
      <trkpt lat="47.527826" lon="7.821632">
        <ele>349.441148</ele>
        <time>2021-11-15T20:30:20.423Z</time>
      </trkpt>
      <trkpt lat="47.527571" lon="7.821581">
        <ele>346.906298</ele>
        <time>2021-11-15T20:30:23.629Z</time>
      </trkpt>
      <trkpt lat="47.527485" lon="7.821570">
        <ele>346.055943</ele>
        <time>2021-11-15T20:30:24.705Z</time>
      </trkpt>
      <trkpt lat="47.527413" lon="7.821524">
        <ele>345.283472</ele>
        <time>2021-11-15T20:30:25.697Z</time>
      </trkpt>
      <trkpt lat="47.527330" lon="7.821475">
        <ele>344.403254</ele>
        <time>2021-11-15T20:30:26.848Z</time>
      </trkpt>
      <trkpt lat="47.527273" lon="7.821332">
        <ele>343.298663</ele>
        <time>2021-11-15T20:30:28.301Z</time>
      </trkpt>
      <trkpt lat="47.527202" lon="7.821239">
        <ele>342.861241</ele>
        <time>2021-11-15T20:30:29.517Z</time>
      </trkpt>
      <trkpt lat="47.527128" lon="7.821204">
        <ele>342.519193</ele>
        <time>2021-11-15T20:30:30.517Z</time>
      </trkpt>
      <trkpt lat="47.527170" lon="7.820864">
        <ele>341.491530</ele>
        <time>2021-11-15T20:30:32.688Z</time>
      </trkpt>
      <trkpt lat="47.527223" lon="7.820442">
        <ele>340.215325</ele>
        <time>2021-11-15T20:30:35.410Z</time>
      </trkpt>
      <trkpt lat="47.527258" lon="7.820150">
        <ele>339.333581</ele>
        <time>2021-11-15T20:30:37.278Z</time>
      </trkpt>
      <trkpt lat="47.527283" lon="7.819942">
        <ele>338.705438</ele>
        <time>2021-11-15T20:30:38.718Z</time>
      </trkpt>
      <trkpt lat="47.527327" lon="7.819619">
        <ele>337.725751</ele>
        <time>2021-11-15T20:30:40.874Z</time>
      </trkpt>
      <trkpt lat="47.527349" lon="7.819451">
        <ele>337.216950</ele>
        <time>2021-11-15T20:30:42.124Z</time>
      </trkpt>
      <trkpt lat="47.527408" lon="7.818945">
        <ele>335.690254</ele>
        <time>2021-11-15T20:30:45.843Z</time>
      </trkpt>
      <trkpt lat="47.527455" lon="7.818544">
        <ele>334.932394</ele>
        <time>2021-11-15T20:30:48.867Z</time>
      </trkpt>
      <trkpt lat="47.527466" lon="7.818406">
        <ele>334.735864</ele>
        <time>2021-11-15T20:30:50.034Z</time>
      </trkpt>
      <trkpt lat="47.527477" lon="7.818068">
        <ele>334.257274</ele>
        <time>2021-11-15T20:30:52.459Z</time>
      </trkpt>
      <trkpt lat="47.527477" lon="7.817911">
        <ele>334.035228</ele>
        <time>2021-11-15T20:30:53.681Z</time>
      </trkpt>
      <trkpt lat="47.527471" lon="7.817746">
        <ele>333.801529</ele>
        <time>2021-11-15T20:30:54.906Z</time>
      </trkpt>
      <trkpt lat="47.527432" lon="7.817173">
        <ele>332.987025</ele>
        <time>2021-11-15T20:30:59.044Z</time>
      </trkpt>
      <trkpt lat="47.527388" lon="7.816407">
        <ele>331.899752</ele>
        <time>2021-11-15T20:31:04.680Z</time>
      </trkpt>
      <trkpt lat="47.527376" lon="7.816175">
        <ele>331.574046</ele>
        <time>2021-11-15T20:31:06.374Z</time>
      </trkpt>
      <trkpt lat="47.527366" lon="7.816038">
        <ele>331.519751</ele>
        <time>2021-11-15T20:31:07.423Z</time>
      </trkpt>
      <trkpt lat="47.527362" lon="7.815959">
        <ele>331.488536</ele>
        <time>2021-11-15T20:31:08.046Z</time>
      </trkpt>
      <trkpt lat="47.527361" lon="7.815943">
        <ele>331.482205</ele>
        <time>2021-11-15T20:31:08.174Z</time>
      </trkpt>
      <trkpt lat="47.527346" lon="7.815799">
        <ele>331.424794</ele>
        <time>2021-11-15T20:31:09.307Z</time>
      </trkpt>
      <trkpt lat="47.527320" lon="7.815661">
        <ele>331.368342</ele>
        <time>2021-11-15T20:31:10.377Z</time>
      </trkpt>
      <trkpt lat="47.527292" lon="7.815550">
        <ele>331.321654</ele>
        <time>2021-11-15T20:31:11.280Z</time>
      </trkpt>
      <trkpt lat="47.527206" lon="7.815349">
        <ele>331.227895</ele>
        <time>2021-11-15T20:31:13.244Z</time>
      </trkpt>
      <trkpt lat="47.527153" lon="7.815269">
        <ele>331.183735</ele>
        <time>2021-11-15T20:31:14.104Z</time>
      </trkpt>
      <trkpt lat="47.527105" lon="7.815211">
        <ele>331.147585</ele>
        <time>2021-11-15T20:31:14.857Z</time>
      </trkpt>
      <trkpt lat="47.526665" lon="7.814850">
        <ele>330.854063</ele>
        <time>2021-11-15T20:31:21.610Z</time>
      </trkpt>
      <trkpt lat="47.526655" lon="7.814822">
        <ele>330.841582</ele>
        <time>2021-11-15T20:31:21.975Z</time>
      </trkpt>
      <trkpt lat="47.526579" lon="7.814859">
        <ele>330.794899</ele>
        <time>2021-11-15T20:31:23.244Z</time>
      </trkpt>
      <trkpt lat="47.526478" lon="7.814853">
        <ele>330.735915</ele>
        <time>2021-11-15T20:31:24.673Z</time>
      </trkpt>
      <trkpt lat="47.526394" lon="7.814809">
        <ele>330.683923</ele>
        <time>2021-11-15T20:31:26.084Z</time>
      </trkpt>
      <trkpt lat="47.526135" lon="7.814494">
        <ele>330.623491</ele>
        <time>2021-11-15T20:31:31.926Z</time>
      </trkpt>
      <trkpt lat="47.525874" lon="7.814072">
        <ele>331.212011</ele>
        <time>2021-11-15T20:31:39.365Z</time>
      </trkpt>
      <trkpt lat="47.525829" lon="7.814027">
        <ele>331.294708</ele>
        <time>2021-11-15T20:31:40.558Z</time>
      </trkpt>
      <trkpt lat="47.525640" lon="7.813941">
        <ele>331.595835</ele>
        <time>2021-11-15T20:31:44.470Z</time>
      </trkpt>
      <trkpt lat="47.525265" lon="7.813766">
        <ele>332.194645</ele>
        <time>2021-11-15T20:31:52.628Z</time>
      </trkpt>
      <trkpt lat="47.525103" lon="7.813754">
        <ele>332.441679</ele>
        <time>2021-11-15T20:31:56.578Z</time>
      </trkpt>
      <trkpt lat="47.524982" lon="7.813822">
        <ele>332.638785</ele>
        <time>2021-11-15T20:31:59.311Z</time>
      </trkpt>
      <trkpt lat="47.524963" lon="7.813836">
        <ele>332.671107</ele>
        <time>2021-11-15T20:31:59.743Z</time>
      </trkpt>
      <trkpt lat="47.524645" lon="7.814069">
        <ele>333.211458</ele>
        <time>2021-11-15T20:32:07.726Z</time>
      </trkpt>
      <trkpt lat="47.524601" lon="7.814100">
        <ele>333.299212</ele>
        <time>2021-11-15T20:32:08.829Z</time>
      </trkpt>
      <trkpt lat="47.524286" lon="7.814362">
        <ele>334.212121</ele>
        <time>2021-11-15T20:32:18.060Z</time>
      </trkpt>
      <trkpt lat="47.524032" lon="7.814643">
        <ele>335.013263</ele>
        <time>2021-11-15T20:32:26.064Z</time>
      </trkpt>
      <trkpt lat="47.523994" lon="7.814691">
        <ele>335.139470</ele>
        <time>2021-11-15T20:32:27.419Z</time>
      </trkpt>
      <trkpt lat="47.523836" lon="7.814923">
        <ele>335.701703</ele>
        <time>2021-11-15T20:32:33.304Z</time>
      </trkpt>
      <trkpt lat="47.523757" lon="7.815629">
        <ele>336.922803</ele>
        <time>2021-11-15T20:32:44.664Z</time>
      </trkpt>
      <trkpt lat="47.523730" lon="7.815653">
        <ele>337.002375</ele>
        <time>2021-11-15T20:32:46.036Z</time>
      </trkpt>
      <trkpt lat="47.523608" lon="7.815695">
        <ele>337.318870</ele>
        <time>2021-11-15T20:32:49.243Z</time>
      </trkpt>
      <trkpt lat="47.522090" lon="7.815952">
        <ele>341.271165</ele>
        <time>2021-11-15T20:33:27.646Z</time>
      </trkpt>
      <trkpt lat="47.521870" lon="7.815989">
        <ele>341.845847</ele>
        <time>2021-11-15T20:33:32.468Z</time>
      </trkpt>
      <trkpt lat="47.521699" lon="7.816019">
        <ele>342.292782</ele>
        <time>2021-11-15T20:33:37.159Z</time>
      </trkpt>
      <trkpt lat="47.521383" lon="7.816075">
        <ele>343.193132</ele>
        <time>2021-11-15T20:33:45.496Z</time>
      </trkpt>
      <trkpt lat="47.521199" lon="7.816108">
        <ele>343.730020</ele>
        <time>2021-11-15T20:33:50.065Z</time>
      </trkpt>
      <trkpt lat="47.521087" lon="7.816144">
        <ele>344.062006</ele>
        <time>2021-11-15T20:33:52.968Z</time>
      </trkpt>
      <trkpt lat="47.521028" lon="7.816163">
        <ele>344.236906</ele>
        <time>2021-11-15T20:33:55.249Z</time>
      </trkpt>
      <trkpt lat="47.520578" lon="7.816306">
        <ele>345.570100</ele>
        <time>2021-11-15T20:34:07.575Z</time>
      </trkpt>
      <trkpt lat="47.520002" lon="7.816556">
        <ele>347.308798</ele>
        <time>2021-11-15T20:34:23.840Z</time>
      </trkpt>
      <trkpt lat="47.519959" lon="7.816575">
        <ele>347.438783</ele>
        <time>2021-11-15T20:34:25.122Z</time>
      </trkpt>
      <trkpt lat="47.519807" lon="7.816661">
        <ele>347.854313</ele>
        <time>2021-11-15T20:34:29.136Z</time>
      </trkpt>
      <trkpt lat="47.519453" lon="7.816861">
        <ele>348.675417</ele>
        <time>2021-11-15T20:34:38.896Z</time>
      </trkpt>
      <trkpt lat="47.518941" lon="7.817228">
        <ele>349.908151</ele>
        <time>2021-11-15T20:34:52.148Z</time>
      </trkpt>
      <trkpt lat="47.518481" lon="7.817598">
        <ele>351.042611</ele>
        <time>2021-11-15T20:35:03.894Z</time>
      </trkpt>
      <trkpt lat="47.518220" lon="7.817823">
        <ele>351.717326</ele>
        <time>2021-11-15T20:35:10.288Z</time>
      </trkpt>
      <trkpt lat="47.518035" lon="7.818005">
        <ele>352.286576</ele>
        <time>2021-11-15T20:35:14.996Z</time>
      </trkpt>
      <trkpt lat="47.517657" lon="7.818442">
        <ele>353.515672</ele>
        <time>2021-11-15T20:35:25.406Z</time>
      </trkpt>
      <trkpt lat="47.516786" lon="7.819655">
        <ele>356.902814</ele>
        <time>2021-11-15T20:35:56.431Z</time>
      </trkpt>
      <trkpt lat="47.515587" lon="7.820532">
        <ele>363.209176</ele>
        <time>2021-11-15T20:36:45.336Z</time>
      </trkpt>
      <trkpt lat="47.515469" lon="7.820644">
        <ele>363.870142</ele>
        <time>2021-11-15T20:36:50.861Z</time>
      </trkpt>
      <trkpt lat="47.515268" lon="7.820836">
        <ele>364.852175</ele>
        <time>2021-11-15T20:36:57.836Z</time>
      </trkpt>
      <trkpt lat="47.515202" lon="7.820909">
        <ele>365.063569</ele>
        <time>2021-11-15T20:37:01.178Z</time>
      </trkpt>
      <trkpt lat="47.515036" lon="7.821090">
        <ele>365.592566</ele>
        <time>2021-11-15T20:37:07.038Z</time>
      </trkpt>
      <trkpt lat="47.514821" lon="7.821292">
        <ele>366.245958</ele>
        <time>2021-11-15T20:37:14.612Z</time>
      </trkpt>
      <trkpt lat="47.514708" lon="7.821376">
        <ele>366.570411</ele>
        <time>2021-11-15T20:37:17.784Z</time>
      </trkpt>
      <trkpt lat="47.514302" lon="7.821660">
        <ele>367.722628</ele>
        <time>2021-11-15T20:37:29.488Z</time>
      </trkpt>
      <trkpt lat="47.513483" lon="7.822231">
        <ele>369.623363</ele>
        <time>2021-11-15T20:37:45.636Z</time>
      </trkpt>
      <trkpt lat="47.512648" lon="7.822935">
        <ele>370.705275</ele>
        <time>2021-11-15T20:38:01.384Z</time>
      </trkpt>
      <trkpt lat="47.512263" lon="7.823167">
        <ele>371.173292</ele>
        <time>2021-11-15T20:38:09.882Z</time>
      </trkpt>
      <trkpt lat="47.512067" lon="7.823229">
        <ele>371.630410</ele>
        <time>2021-11-15T20:38:14.785Z</time>
      </trkpt>
      <trkpt lat="47.511863" lon="7.823271">
        <ele>372.529004</ele>
        <time>2021-11-15T20:38:19.725Z</time>
      </trkpt>
      <trkpt lat="47.510706" lon="7.823221">
        <ele>377.579018</ele>
        <time>2021-11-15T20:38:58.334Z</time>
      </trkpt>
      <trkpt lat="47.510203" lon="7.823212">
        <ele>380.038353</ele>
        <time>2021-11-15T20:39:17.356Z</time>
      </trkpt>
      <trkpt lat="47.509744" lon="7.823275">
        <ele>382.924919</ele>
        <time>2021-11-15T20:39:35.523Z</time>
      </trkpt>
      <trkpt lat="47.509075" lon="7.823456">
        <ele>387.183552</ele>
        <time>2021-11-15T20:40:05.604Z</time>
      </trkpt>
      <trkpt lat="47.508288" lon="7.824180">
        <ele>391.706100</ele>
        <time>2021-11-15T20:40:41.066Z</time>
      </trkpt>
      <trkpt lat="47.507990" lon="7.824326">
        <ele>392.688024</ele>
        <time>2021-11-15T20:40:50.674Z</time>
      </trkpt>
      <trkpt lat="47.507017" lon="7.824678">
        <ele>395.821319</ele>
        <time>2021-11-15T20:41:14.481Z</time>
      </trkpt>
      <trkpt lat="47.506147" lon="7.825028">
        <ele>396.079200</ele>
        <time>2021-11-15T20:41:27.663Z</time>
      </trkpt>
      <trkpt lat="47.504813" lon="7.825703">
        <ele>396.439628</ele>
        <time>2021-11-15T20:41:46.737Z</time>
      </trkpt>
      <trkpt lat="47.503860" lon="7.825735">
        <ele>397.162991</ele>
        <time>2021-11-15T20:42:02.839Z</time>
      </trkpt>
      <trkpt lat="47.503509" lon="7.825771">
        <ele>397.429983</ele>
        <time>2021-11-15T20:42:10.558Z</time>
      </trkpt>
      <trkpt lat="47.503225" lon="7.825809">
        <ele>398.506332</ele>
        <time>2021-11-15T20:42:17.582Z</time>
      </trkpt>
      <trkpt lat="47.503195" lon="7.825807">
        <ele>398.641647</ele>
        <time>2021-11-15T20:42:18.323Z</time>
      </trkpt>
      <trkpt lat="47.503143" lon="7.825808">
        <ele>398.875976</ele>
        <time>2021-11-15T20:42:19.517Z</time>
      </trkpt>
      <trkpt lat="47.502825" lon="7.825809">
        <ele>400.308868</ele>
        <time>2021-11-15T20:42:28.183Z</time>
      </trkpt>
      <trkpt lat="47.501557" lon="7.825705">
        <ele>406.385115</ele>
        <time>2021-11-15T20:43:13.335Z</time>
      </trkpt>
      <trkpt lat="47.500385" lon="7.825189">
        <ele>416.186721</ele>
        <time>2021-11-15T20:44:13.667Z</time>
      </trkpt>
      <trkpt lat="47.500269" lon="7.825147">
        <ele>417.144000</ele>
        <time>2021-11-15T20:44:20.726Z</time>
      </trkpt>
      <trkpt lat="47.500062" lon="7.825087">
        <ele>418.834841</ele>
        <time>2021-11-15T20:44:29.601Z</time>
      </trkpt>
      <trkpt lat="47.499714" lon="7.825011">
        <ele>421.396392</ele>
        <time>2021-11-15T20:44:46.567Z</time>
      </trkpt>
      <trkpt lat="47.499602" lon="7.824975">
        <ele>422.172175</ele>
        <time>2021-11-15T20:44:53.183Z</time>
      </trkpt>
      <trkpt lat="47.499488" lon="7.824926">
        <ele>422.975703</ele>
        <time>2021-11-15T20:44:58.794Z</time>
      </trkpt>
      <trkpt lat="47.498586" lon="7.824227">
        <ele>429.867401</ele>
        <time>2021-11-15T20:45:43.073Z</time>
      </trkpt>
      <trkpt lat="47.498343" lon="7.824061">
        <ele>431.678969</ele>
        <time>2021-11-15T20:45:51.956Z</time>
      </trkpt>
      <trkpt lat="47.498162" lon="7.823883">
        <ele>432.460487</ele>
        <time>2021-11-15T20:45:59.357Z</time>
      </trkpt>
      <trkpt lat="47.497246" lon="7.823247">
        <ele>434.492518</ele>
        <time>2021-11-15T20:46:23.920Z</time>
      </trkpt>
      <trkpt lat="47.496927" lon="7.823151">
        <ele>435.146300</ele>
        <time>2021-11-15T20:46:29.838Z</time>
      </trkpt>
      <trkpt lat="47.496704" lon="7.823163">
        <ele>435.594464</ele>
        <time>2021-11-15T20:46:37.019Z</time>
      </trkpt>
      <trkpt lat="47.496375" lon="7.823140">
        <ele>435.093303</ele>
        <time>2021-11-15T20:46:40.707Z</time>
      </trkpt>
      <trkpt lat="47.496320" lon="7.823139">
        <ele>434.932789</ele>
        <time>2021-11-15T20:46:41.203Z</time>
      </trkpt>
      <trkpt lat="47.496254" lon="7.823140">
        <ele>434.740178</ele>
        <time>2021-11-15T20:46:41.764Z</time>
      </trkpt>
      <trkpt lat="47.496106" lon="7.823142">
        <ele>434.308265</ele>
        <time>2021-11-15T20:46:44.511Z</time>
      </trkpt>
      <trkpt lat="47.495873" lon="7.823177">
        <ele>433.624830</ele>
        <time>2021-11-15T20:46:46.725Z</time>
      </trkpt>
      <trkpt lat="47.495577" lon="7.823253">
        <ele>432.748140</ele>
        <time>2021-11-15T20:46:50.094Z</time>
      </trkpt>
      <trkpt lat="47.495618" lon="7.823118">
        <ele>432.456309</ele>
        <time>2021-11-15T20:46:51.383Z</time>
      </trkpt>
      <trkpt lat="47.495695" lon="7.822850">
        <ele>431.882108</ele>
        <time>2021-11-15T20:46:54.994Z</time>
      </trkpt>
      <trkpt lat="47.495778" lon="7.822564">
        <ele>431.268392</ele>
        <time>2021-11-15T20:46:57.786Z</time>
      </trkpt>
      <trkpt lat="47.495806" lon="7.822522">
        <ele>431.152056</ele>
        <time>2021-11-15T20:46:58.286Z</time>
      </trkpt>
      <trkpt lat="47.495858" lon="7.822426">
        <ele>430.909457</ele>
        <time>2021-11-15T20:46:59.618Z</time>
      </trkpt>
      <trkpt lat="47.496023" lon="7.821854">
        <ele>429.879574</ele>
        <time>2021-11-15T20:47:05.293Z</time>
      </trkpt>
      <trkpt lat="47.496103" lon="7.821579">
        <ele>429.425642</ele>
        <time>2021-11-15T20:47:07.968Z</time>
      </trkpt>
      <trkpt lat="47.496212" lon="7.821541">
        <ele>429.174359</ele>
        <time>2021-11-15T20:47:09.675Z</time>
      </trkpt>
      <trkpt lat="47.496576" lon="7.821733">
        <ele>428.307245</ele>
        <time>2021-11-15T20:47:15.063Z</time>
      </trkpt>
      <trkpt lat="47.497131" lon="7.821903">
        <ele>427.035468</ele>
        <time>2021-11-15T20:47:24.596Z</time>
      </trkpt>
      <trkpt lat="47.497346" lon="7.821919">
        <ele>426.552412</ele>
        <time>2021-11-15T20:47:30.173Z</time>
      </trkpt>
      <trkpt lat="47.497759" lon="7.822063">
        <ele>428.300369</ele>
        <time>2021-11-15T20:47:41.736Z</time>
      </trkpt>
      <trkpt lat="47.499353" lon="7.822037">
        <ele>436.273419</ele>
        <time>2021-11-15T20:48:49.980Z</time>
      </trkpt>
      <trkpt lat="47.499878" lon="7.821940">
        <ele>440.777392</ele>
        <time>2021-11-15T20:49:15.286Z</time>
      </trkpt>
      <trkpt lat="47.499930" lon="7.821891">
        <ele>441.302155</ele>
        <time>2021-11-15T20:49:19.936Z</time>
      </trkpt>
      <trkpt lat="47.499935" lon="7.821803">
        <ele>441.810053</ele>
        <time>2021-11-15T20:49:22.624Z</time>
      </trkpt>
      <trkpt lat="47.499794" lon="7.821651">
        <ele>443.294973</ele>
        <time>2021-11-15T20:49:30.712Z</time>
      </trkpt>
      <trkpt lat="47.499470" lon="7.821532">
        <ele>446.136807</ele>
        <time>2021-11-15T20:49:52.719Z</time>
      </trkpt>
      <trkpt lat="47.499265" lon="7.821430">
        <ele>447.977919</ele>
        <time>2021-11-15T20:50:03.871Z</time>
      </trkpt>
      <trkpt lat="47.499176" lon="7.821401">
        <ele>448.753711</ele>
        <time>2021-11-15T20:50:11.538Z</time>
      </trkpt>
      <trkpt lat="47.498885" lon="7.821202">
        <ele>451.845807</ele>
        <time>2021-11-15T20:50:31.198Z</time>
      </trkpt>
      <trkpt lat="47.498677" lon="7.820978">
        <ele>454.545924</ele>
        <time>2021-11-15T20:50:47.931Z</time>
      </trkpt>
      <trkpt lat="47.498469" lon="7.820716">
        <ele>457.412889</ele>
        <time>2021-11-15T20:51:06.747Z</time>
      </trkpt>
      <trkpt lat="47.498430" lon="7.820512">
        <ele>458.916432</ele>
        <time>2021-11-15T20:51:12.691Z</time>
      </trkpt>
      <trkpt lat="47.498430" lon="7.820389">
        <ele>459.788731</ele>
        <time>2021-11-15T20:51:20.388Z</time>
      </trkpt>
      <trkpt lat="47.498461" lon="7.820307">
        <ele>460.455115</ele>
        <time>2021-11-15T20:51:26.217Z</time>
      </trkpt>
      <trkpt lat="47.498687" lon="7.820104">
        <ele>463.230082</ele>
        <time>2021-11-15T20:51:39.725Z</time>
      </trkpt>
      <trkpt lat="47.499255" lon="7.820064">
        <ele>469.140193</ele>
        <time>2021-11-15T20:52:14.049Z</time>
      </trkpt>
      <trkpt lat="47.499442" lon="7.820106">
        <ele>470.829293</ele>
        <time>2021-11-15T20:52:25.671Z</time>
      </trkpt>
      <trkpt lat="47.499513" lon="7.820122">
        <ele>471.470658</ele>
        <time>2021-11-15T20:52:31.835Z</time>
      </trkpt>
      <trkpt lat="47.500268" lon="7.820306">
        <ele>478.303885</ele>
        <time>2021-11-15T20:53:13.607Z</time>
      </trkpt>
      <trkpt lat="47.500800" lon="7.820309">
        <ele>483.054890</ele>
        <time>2021-11-15T20:53:40.943Z</time>
      </trkpt>
      <trkpt lat="47.502160" lon="7.820734">
        <ele>497.518668</ele>
        <time>2021-11-15T20:54:58.940Z</time>
      </trkpt>
      <trkpt lat="47.502873" lon="7.820715">
        <ele>505.309672</ele>
        <time>2021-11-15T20:55:54.249Z</time>
      </trkpt>
      <trkpt lat="47.503275" lon="7.820428">
        <ele>510.904453</ele>
        <time>2021-11-15T20:56:27.965Z</time>
      </trkpt>
      <trkpt lat="47.503537" lon="7.820146">
        <ele>514.965201</ele>
        <time>2021-11-15T20:56:50.156Z</time>
      </trkpt>
      <trkpt lat="47.503564" lon="7.820022">
        <ele>516.068474</ele>
        <time>2021-11-15T20:56:59.083Z</time>
      </trkpt>
      <trkpt lat="47.503563" lon="7.819933">
        <ele>516.822260</ele>
        <time>2021-11-15T20:57:04.104Z</time>
      </trkpt>
      <trkpt lat="47.503466" lon="7.819760">
        <ele>518.726159</ele>
        <time>2021-11-15T20:57:11.942Z</time>
      </trkpt>
      <trkpt lat="47.503398" lon="7.819703">
        <ele>519.705758</ele>
        <time>2021-11-15T20:57:17.457Z</time>
      </trkpt>
      <trkpt lat="47.502869" lon="7.819255">
        <ele>527.017594</ele>
        <time>2021-11-15T20:57:58.184Z</time>
      </trkpt>
      <trkpt lat="47.502387" lon="7.819173">
        <ele>530.480411</ele>
        <time>2021-11-15T20:58:27.753Z</time>
      </trkpt>
      <trkpt lat="47.502174" lon="7.819017">
        <ele>532.176556</ele>
        <time>2021-11-15T20:58:41.591Z</time>
      </trkpt>
      <trkpt lat="47.501637" lon="7.818426">
        <ele>536.952553</ele>
        <time>2021-11-15T20:59:08.188Z</time>
      </trkpt>
      <trkpt lat="47.500974" lon="7.817424">
        <ele>541.254482</ele>
        <time>2021-11-15T20:59:43.786Z</time>
      </trkpt>
      <trkpt lat="47.500349" lon="7.817070">
        <ele>543.293538</ele>
        <time>2021-11-15T21:00:04.758Z</time>
      </trkpt>
      <trkpt lat="47.500217" lon="7.817010">
        <ele>543.714283</ele>
        <time>2021-11-15T21:00:09.302Z</time>
      </trkpt>
      <trkpt lat="47.500080" lon="7.816931">
        <ele>544.162285</ele>
        <time>2021-11-15T21:00:13.147Z</time>
      </trkpt>
      <trkpt lat="47.499494" lon="7.816639">
        <ele>545.072038</ele>
        <time>2021-11-15T21:00:29.916Z</time>
      </trkpt>
      <trkpt lat="47.499305" lon="7.816477">
        <ele>545.171006</ele>
        <time>2021-11-15T21:00:34.647Z</time>
      </trkpt>
      <trkpt lat="47.499090" lon="7.816301">
        <ele>545.282339</ele>
        <time>2021-11-15T21:00:40.343Z</time>
      </trkpt>
      <trkpt lat="47.498274" lon="7.815417">
        <ele>545.713742</ele>
        <time>2021-11-15T21:00:59.440Z</time>
      </trkpt>
      <trkpt lat="47.498175" lon="7.815269">
        <ele>545.705293</ele>
        <time>2021-11-15T21:01:02.348Z</time>
      </trkpt>
      <trkpt lat="47.498156" lon="7.815189">
        <ele>545.701853</ele>
        <time>2021-11-15T21:01:03.234Z</time>
      </trkpt>
      <trkpt lat="47.498025" lon="7.814801">
        <ele>545.684257</ele>
        <time>2021-11-15T21:01:09.587Z</time>
      </trkpt>
      <trkpt lat="47.497689" lon="7.814212">
        <ele>545.652984</ele>
        <time>2021-11-15T21:01:21.716Z</time>
      </trkpt>
      <trkpt lat="47.497443" lon="7.813645">
        <ele>545.625647</ele>
        <time>2021-11-15T21:01:30.389Z</time>
      </trkpt>
      <trkpt lat="47.497382" lon="7.813505">
        <ele>545.618889</ele>
        <time>2021-11-15T21:01:32.577Z</time>
      </trkpt>
      <trkpt lat="47.497290" lon="7.813365">
        <ele>545.610966</ele>
        <time>2021-11-15T21:01:35.297Z</time>
      </trkpt>
      <trkpt lat="47.497107" lon="7.813160">
        <ele>545.453565</ele>
        <time>2021-11-15T21:01:38.965Z</time>
      </trkpt>
      <trkpt lat="47.497103" lon="7.813156">
        <ele>545.449716</ele>
        <time>2021-11-15T21:01:39.059Z</time>
      </trkpt>
      <trkpt lat="47.496999" lon="7.813075">
        <ele>545.355995</ele>
        <time>2021-11-15T21:01:42.154Z</time>
      </trkpt>
      <trkpt lat="47.496962" lon="7.813095">
        <ele>545.324582</ele>
        <time>2021-11-15T21:01:42.777Z</time>
      </trkpt>
      <trkpt lat="47.496864" lon="7.813130">
        <ele>545.244186</ele>
        <time>2021-11-15T21:01:44.239Z</time>
      </trkpt>
      <trkpt lat="47.496712" lon="7.813184">
        <ele>545.119525</ele>
        <time>2021-11-15T21:01:47.690Z</time>
      </trkpt>
      <trkpt lat="47.496444" lon="7.813273">
        <ele>544.900485</ele>
        <time>2021-11-15T21:01:52.451Z</time>
      </trkpt>
      <trkpt lat="47.496428" lon="7.813325">
        <ele>544.869699</ele>
        <time>2021-11-15T21:01:53.121Z</time>
      </trkpt>
      <trkpt lat="47.496386" lon="7.813495">
        <ele>544.772169</ele>
        <time>2021-11-15T21:01:56.329Z</time>
      </trkpt>
      <trkpt lat="47.496365" lon="7.813691">
        <ele>544.665243</ele>
        <time>2021-11-15T21:01:58.281Z</time>
      </trkpt>
      <trkpt lat="47.496345" lon="7.814040">
        <ele>544.476523</ele>
        <time>2021-11-15T21:02:03.743Z</time>
      </trkpt>
      <trkpt lat="47.496292" lon="7.814199">
        <ele>544.380993</ele>
        <time>2021-11-15T21:02:05.492Z</time>
      </trkpt>
      <trkpt lat="47.495492" lon="7.814965">
        <ele>543.853873</ele>
        <time>2021-11-15T21:02:21.802Z</time>
      </trkpt>
      <trkpt lat="47.495356" lon="7.814987">
        <ele>543.790658</ele>
        <time>2021-11-15T21:02:23.794Z</time>
      </trkpt>
      <trkpt lat="47.495263" lon="7.814929">
        <ele>543.744026</ele>
        <time>2021-11-15T21:02:25.766Z</time>
      </trkpt>
      <trkpt lat="47.494740" lon="7.814013">
        <ele>543.369616</ele>
        <time>2021-11-15T21:02:42.982Z</time>
      </trkpt>
      <trkpt lat="47.494606" lon="7.814019">
        <ele>543.451971</ele>
        <time>2021-11-15T21:02:46.047Z</time>
      </trkpt>
      <trkpt lat="47.494431" lon="7.814326">
        <ele>543.833169</ele>
        <time>2021-11-15T21:02:52.463Z</time>
      </trkpt>
      <trkpt lat="47.494369" lon="7.814392">
        <ele>543.940442</ele>
        <time>2021-11-15T21:02:54.579Z</time>
      </trkpt>
      <trkpt lat="47.494321" lon="7.814412">
        <ele>544.010485</ele>
        <time>2021-11-15T21:02:55.851Z</time>
      </trkpt>
      <trkpt lat="47.494164" lon="7.814361">
        <ele>544.236260</ele>
        <time>2021-11-15T21:02:59.482Z</time>
      </trkpt>
      <trkpt lat="47.493814" lon="7.814075">
        <ele>544.797833</ele>
        <time>2021-11-15T21:03:10.035Z</time>
      </trkpt>
      <trkpt lat="47.493666" lon="7.813937">
        <ele>545.043534</ele>
        <time>2021-11-15T21:03:15.041Z</time>
      </trkpt>
      <trkpt lat="47.493451" lon="7.813743">
        <ele>545.397230</ele>
        <time>2021-11-15T21:03:21.699Z</time>
      </trkpt>
      <trkpt lat="47.493235" lon="7.813551">
        <ele>545.751144</ele>
        <time>2021-11-15T21:03:28.385Z</time>
      </trkpt>
      <trkpt lat="47.493099" lon="7.813443">
        <ele>546.083688</ele>
        <time>2021-11-15T21:03:33.092Z</time>
      </trkpt>
      <trkpt lat="47.492642" lon="7.813213">
        <ele>547.561502</ele>
        <time>2021-11-15T21:03:46.490Z</time>
      </trkpt>
      <trkpt lat="47.491947" lon="7.813197">
        <ele>549.689538</ele>
        <time>2021-11-15T21:04:07.456Z</time>
      </trkpt>
      <trkpt lat="47.491451" lon="7.813408">
        <ele>551.269557</ele>
        <time>2021-11-15T21:04:26.849Z</time>
      </trkpt>
      <trkpt lat="47.490925" lon="7.813921">
        <ele>555.226274</ele>
        <time>2021-11-15T21:04:54.276Z</time>
      </trkpt>
      <trkpt lat="47.490693" lon="7.813896">
        <ele>556.731274</ele>
        <time>2021-11-15T21:05:03.350Z</time>
      </trkpt>
      <trkpt lat="47.490609" lon="7.813824">
        <ele>557.359323</ele>
        <time>2021-11-15T21:05:08.482Z</time>
      </trkpt>
      <trkpt lat="47.490928" lon="7.813010">
        <ele>561.473163</ele>
        <time>2021-11-15T21:05:33.530Z</time>
      </trkpt>
      <trkpt lat="47.491001" lon="7.812847">
        <ele>562.328074</ele>
        <time>2021-11-15T21:05:40.301Z</time>
      </trkpt>
      <trkpt lat="47.491212" lon="7.812513">
        <ele>565.030402</ele>
        <time>2021-11-15T21:05:57.325Z</time>
      </trkpt>
      <trkpt lat="47.491595" lon="7.812210">
        <ele>569.344965</ele>
        <time>2021-11-15T21:06:20.125Z</time>
      </trkpt>
      <trkpt lat="47.492008" lon="7.811905">
        <ele>573.930501</ele>
        <time>2021-11-15T21:06:44.996Z</time>
      </trkpt>
      <trkpt lat="47.492176" lon="7.811763">
        <ele>575.852570</ele>
        <time>2021-11-15T21:06:58.453Z</time>
      </trkpt>
      <trkpt lat="47.492264" lon="7.811614">
        <ele>577.181013</ele>
        <time>2021-11-15T21:07:04.874Z</time>
      </trkpt>
      <trkpt lat="47.492273" lon="7.811452">
        <ele>578.272161</ele>
        <time>2021-11-15T21:07:09.520Z</time>
      </trkpt>
      <trkpt lat="47.492257" lon="7.811384">
        <ele>578.755519</ele>
        <time>2021-11-15T21:07:13.136Z</time>
      </trkpt>
      <trkpt lat="47.492224" lon="7.811327">
        <ele>579.259395</ele>
        <time>2021-11-15T21:07:18.017Z</time>
      </trkpt>
      <trkpt lat="47.492165" lon="7.811273">
        <ele>579.948581</ele>
        <time>2021-11-15T21:07:21.843Z</time>
      </trkpt>
      <trkpt lat="47.491701" lon="7.811206">
        <ele>584.162315</ele>
        <time>2021-11-15T21:07:47.458Z</time>
      </trkpt>
      <trkpt lat="47.491536" lon="7.811112">
        <ele>585.720291</ele>
        <time>2021-11-15T21:07:58.675Z</time>
      </trkpt>
      <trkpt lat="47.491417" lon="7.811033">
        <ele>586.869582</ele>
        <time>2021-11-15T21:08:05.614Z</time>
      </trkpt>
      <trkpt lat="47.491356" lon="7.811021">
        <ele>587.411839</ele>
        <time>2021-11-15T21:08:08.212Z</time>
      </trkpt>
      <trkpt lat="47.491305" lon="7.811022">
        <ele>587.861287</ele>
        <time>2021-11-15T21:08:10.118Z</time>
      </trkpt>
      <trkpt lat="47.491210" lon="7.811067">
        <ele>588.740257</ele>
        <time>2021-11-15T21:08:16.991Z</time>
      </trkpt>
      <trkpt lat="47.491168" lon="7.811103">
        <ele>589.167951</ele>
        <time>2021-11-15T21:08:21.219Z</time>
      </trkpt>
      <trkpt lat="47.491099" lon="7.811167">
        <ele>589.885524</ele>
        <time>2021-11-15T21:08:24.479Z</time>
      </trkpt>
      <trkpt lat="47.490921" lon="7.811332">
        <ele>591.736333</ele>
        <time>2021-11-15T21:08:33.989Z</time>
      </trkpt>
      <trkpt lat="47.490608" lon="7.811558">
        <ele>594.805237</ele>
        <time>2021-11-15T21:08:49.679Z</time>
      </trkpt>
      <trkpt lat="47.490230" lon="7.811766">
        <ele>597.507583</ele>
        <time>2021-11-15T21:09:04.688Z</time>
      </trkpt>
      <trkpt lat="47.489734" lon="7.811930">
        <ele>599.642154</ele>
        <time>2021-11-15T21:09:22.915Z</time>
      </trkpt>
      <trkpt lat="47.488654" lon="7.812154">
        <ele>604.222507</ele>
        <time>2021-11-15T21:09:52.079Z</time>
      </trkpt>
      <trkpt lat="47.488525" lon="7.812197">
        <ele>604.703405</ele>
        <time>2021-11-15T21:09:56.453Z</time>
      </trkpt>
      <trkpt lat="47.486782" lon="7.812718">
        <ele>610.694263</ele>
        <time>2021-11-15T21:10:49.628Z</time>
      </trkpt>
      <trkpt lat="47.486531" lon="7.812839">
        <ele>610.690337</ele>
        <time>2021-11-15T21:10:56.577Z</time>
      </trkpt>
      <trkpt lat="47.485925" lon="7.813196">
        <ele>610.680635</ele>
        <time>2021-11-15T21:11:10.569Z</time>
      </trkpt>
      <trkpt lat="47.485144" lon="7.813866">
        <ele>609.728273</ele>
        <time>2021-11-15T21:11:20.577Z</time>
      </trkpt>
      <trkpt lat="47.484810" lon="7.814067">
        <ele>606.826373</ele>
        <time>2021-11-15T21:11:23.786Z</time>
      </trkpt>
      <trkpt lat="47.484732" lon="7.814081">
        <ele>606.194011</ele>
        <time>2021-11-15T21:11:24.437Z</time>
      </trkpt>
      <trkpt lat="47.484689" lon="7.814083">
        <ele>605.847766</ele>
        <time>2021-11-15T21:11:25.538Z</time>
      </trkpt>
      <trkpt lat="47.484558" lon="7.814061">
        <ele>604.786681</ele>
        <time>2021-11-15T21:11:29.246Z</time>
      </trkpt>
      <trkpt lat="47.484474" lon="7.814023">
        <ele>604.079744</ele>
        <time>2021-11-15T21:11:31.638Z</time>
      </trkpt>
      <trkpt lat="47.484375" lon="7.813958">
        <ele>603.208060</ele>
        <time>2021-11-15T21:11:32.530Z</time>
      </trkpt>
      <trkpt lat="47.483867" lon="7.813452">
        <ele>598.279583</ele>
        <time>2021-11-15T21:11:37.990Z</time>
      </trkpt>
      <trkpt lat="47.483804" lon="7.813389">
        <ele>597.667619</ele>
        <time>2021-11-15T21:11:38.618Z</time>
      </trkpt>
      <trkpt lat="47.483708" lon="7.813293">
        <ele>596.735101</ele>
        <time>2021-11-15T21:11:39.633Z</time>
      </trkpt>
      <trkpt lat="47.483493" lon="7.813178">
        <ele>593.688029</ele>
        <time>2021-11-15T21:11:41.586Z</time>
      </trkpt>
      <trkpt lat="47.483220" lon="7.813099">
        <ele>589.367058</ele>
        <time>2021-11-15T21:11:43.960Z</time>
      </trkpt>
      <trkpt lat="47.482949" lon="7.813114">
        <ele>585.154539</ele>
        <time>2021-11-15T21:11:46.207Z</time>
      </trkpt>
      <trkpt lat="47.482420" lon="7.813239">
        <ele>576.833211</ele>
        <time>2021-11-15T21:11:50.613Z</time>
      </trkpt>
      <trkpt lat="47.482097" lon="7.813263">
        <ele>571.809573</ele>
        <time>2021-11-15T21:11:53.269Z</time>
      </trkpt>
      <trkpt lat="47.481920" lon="7.813196">
        <ele>568.971606</ele>
        <time>2021-11-15T21:11:54.766Z</time>
      </trkpt>
      <trkpt lat="47.481456" lon="7.813058">
        <ele>562.503225</ele>
        <time>2021-11-15T21:11:58.662Z</time>
      </trkpt>
      <trkpt lat="47.480872" lon="7.813093">
        <ele>554.633098</ele>
        <time>2021-11-15T21:12:03.513Z</time>
      </trkpt>
      <trkpt lat="47.480713" lon="7.812994">
        <ele>552.310295</ele>
        <time>2021-11-15T21:12:04.970Z</time>
      </trkpt>
      <trkpt lat="47.479735" lon="7.811893">
        <ele>541.355423</ele>
        <time>2021-11-15T21:12:15.585Z</time>
      </trkpt>
      <trkpt lat="47.479687" lon="7.811839">
        <ele>541.092424</ele>
        <time>2021-11-15T21:12:22.677Z</time>
      </trkpt>
      <trkpt lat="47.479473" lon="7.811584">
        <ele>539.893997</ele>
        <time>2021-11-15T21:12:24.957Z</time>
      </trkpt>
      <trkpt lat="47.478943" lon="7.810849">
        <ele>536.725715</ele>
        <time>2021-11-15T21:12:33.341Z</time>
      </trkpt>
      <trkpt lat="47.478809" lon="7.810763">
        <ele>536.037786</ele>
        <time>2021-11-15T21:12:44.690Z</time>
      </trkpt>
      <trkpt lat="47.478566" lon="7.810790">
        <ele>534.440704</ele>
        <time>2021-11-15T21:12:46.819Z</time>
      </trkpt>
      <trkpt lat="47.478335" lon="7.810955">
        <ele>532.759565</ele>
        <time>2021-11-15T21:12:52.354Z</time>
      </trkpt>
      <trkpt lat="47.478231" lon="7.811139">
        <ele>531.697077</ele>
        <time>2021-11-15T21:12:53.732Z</time>
      </trkpt>
      <trkpt lat="47.478204" lon="7.811401">
        <ele>530.523112</ele>
        <time>2021-11-15T21:12:55.326Z</time>
      </trkpt>
      <trkpt lat="47.478262" lon="7.811831">
        <ele>528.580830</ele>
        <time>2021-11-15T21:12:57.889Z</time>
      </trkpt>
      <trkpt lat="47.478245" lon="7.812069">
        <ele>527.520718</ele>
        <time>2021-11-15T21:12:59.356Z</time>
      </trkpt>
      <trkpt lat="47.478216" lon="7.812137">
        <ele>527.164554</ele>
        <time>2021-11-15T21:12:59.808Z</time>
      </trkpt>
      <trkpt lat="47.478172" lon="7.812240">
        <ele>526.624814</ele>
        <time>2021-11-15T21:13:00.534Z</time>
      </trkpt>
      <trkpt lat="47.477609" lon="7.813223">
        <ele>519.422381</ele>
        <time>2021-11-15T21:13:08.089Z</time>
      </trkpt>
      <trkpt lat="47.477546" lon="7.813318">
        <ele>518.579881</ele>
        <time>2021-11-15T21:13:08.839Z</time>
      </trkpt>
      <trkpt lat="47.477516" lon="7.813359">
        <ele>518.197378</ele>
        <time>2021-11-15T21:13:09.184Z</time>
      </trkpt>
      <trkpt lat="47.477155" lon="7.813696">
        <ele>514.199544</ele>
        <time>2021-11-15T21:13:13.106Z</time>
      </trkpt>
      <trkpt lat="47.476980" lon="7.813791">
        <ele>512.453670</ele>
        <time>2021-11-15T21:13:15.274Z</time>
      </trkpt>
      <trkpt lat="47.476884" lon="7.813858">
        <ele>511.459531</ele>
        <time>2021-11-15T21:13:16.140Z</time>
      </trkpt>
      <trkpt lat="47.476563" lon="7.814189">
        <ele>507.794948</ele>
        <time>2021-11-15T21:13:19.520Z</time>
      </trkpt>
      <trkpt lat="47.476534" lon="7.814226">
        <ele>507.419034</ele>
        <time>2021-11-15T21:13:23.562Z</time>
      </trkpt>
      <trkpt lat="47.476334" lon="7.814450">
        <ele>504.730393</ele>
        <time>2021-11-15T21:13:25.724Z</time>
      </trkpt>
      <trkpt lat="47.476204" lon="7.814552">
        <ele>503.153182</ele>
        <time>2021-11-15T21:13:26.935Z</time>
      </trkpt>
      <trkpt lat="47.476150" lon="7.814569">
        <ele>502.561428</ele>
        <time>2021-11-15T21:13:31.722Z</time>
      </trkpt>
      <trkpt lat="47.476077" lon="7.814575">
        <ele>501.777776</ele>
        <time>2021-11-15T21:13:32.325Z</time>
      </trkpt>
      <trkpt lat="47.475705" lon="7.814474">
        <ele>497.723934</ele>
        <time>2021-11-15T21:13:35.512Z</time>
      </trkpt>
      <trkpt lat="47.475471" lon="7.814482">
        <ele>495.215149</ele>
        <time>2021-11-15T21:13:37.459Z</time>
      </trkpt>
      <trkpt lat="47.475276" lon="7.814567">
        <ele>493.036226</ele>
        <time>2021-11-15T21:13:39.222Z</time>
      </trkpt>
      <trkpt lat="47.475210" lon="7.814595">
        <ele>492.300300</ele>
        <time>2021-11-15T21:13:39.791Z</time>
      </trkpt>
      <trkpt lat="47.474961" lon="7.814741">
        <ele>489.429451</ele>
        <time>2021-11-15T21:13:42.399Z</time>
      </trkpt>
      <trkpt lat="47.474804" lon="7.814845">
        <ele>487.177800</ele>
        <time>2021-11-15T21:13:43.815Z</time>
      </trkpt>
      <trkpt lat="47.474584" lon="7.814993">
        <ele>483.059440</ele>
        <time>2021-11-15T21:13:45.952Z</time>
      </trkpt>
      <trkpt lat="47.474430" lon="7.815154">
        <ele>479.846055</ele>
        <time>2021-11-15T21:13:47.592Z</time>
      </trkpt>
      <trkpt lat="47.474375" lon="7.815394">
        <ele>476.927111</ele>
        <time>2021-11-15T21:13:49.055Z</time>
      </trkpt>
      <trkpt lat="47.474616" lon="7.816226">
        <ele>466.501024</ele>
        <time>2021-11-15T21:13:54.060Z</time>
      </trkpt>
      <trkpt lat="47.474739" lon="7.816928">
        <ele>458.148000</ele>
        <time>2021-11-15T21:13:58.086Z</time>
      </trkpt>
      <trkpt lat="47.474739" lon="7.817281">
        <ele>455.114525</ele>
        <time>2021-11-15T21:14:00.037Z</time>
      </trkpt>
      <trkpt lat="47.474641" lon="7.817509">
        <ele>452.908833</ele>
        <time>2021-11-15T21:14:02.121Z</time>
      </trkpt>
      <trkpt lat="47.474613" lon="7.817546">
        <ele>452.455416</ele>
        <time>2021-11-15T21:14:03.389Z</time>
      </trkpt>
      <trkpt lat="47.474555" lon="7.817587">
        <ele>451.679073</ele>
        <time>2021-11-15T21:14:04.176Z</time>
      </trkpt>
      <trkpt lat="47.474461" lon="7.817602">
        <ele>450.537212</ele>
        <time>2021-11-15T21:14:14.397Z</time>
      </trkpt>
      <trkpt lat="47.474389" lon="7.817613">
        <ele>449.663014</ele>
        <time>2021-11-15T21:14:15.423Z</time>
      </trkpt>
      <trkpt lat="47.474233" lon="7.817507">
        <ele>447.589728</ele>
        <time>2021-11-15T21:14:16.881Z</time>
      </trkpt>
      <trkpt lat="47.474210" lon="7.817475">
        <ele>447.208411</ele>
        <time>2021-11-15T21:14:17.459Z</time>
      </trkpt>
      <trkpt lat="47.474182" lon="7.817417">
        <ele>446.626572</ele>
        <time>2021-11-15T21:14:24.425Z</time>
      </trkpt>
      <trkpt lat="47.473926" lon="7.816632">
        <ele>439.511421</ele>
        <time>2021-11-15T21:14:30.011Z</time>
      </trkpt>
      <trkpt lat="47.473743" lon="7.816298">
        <ele>436.001559</ele>
        <time>2021-11-15T21:14:32.424Z</time>
      </trkpt>
      <trkpt lat="47.473230" lon="7.815705">
        <ele>432.002853</ele>
        <time>2021-11-15T21:14:38.038Z</time>
      </trkpt>
      <trkpt lat="47.472623" lon="7.815140">
        <ele>427.651600</ele>
        <time>2021-11-15T21:14:46.554Z</time>
      </trkpt>
      <trkpt lat="47.472505" lon="7.815033">
        <ele>426.811856</ele>
        <time>2021-11-15T21:14:47.917Z</time>
      </trkpt>
      <trkpt lat="47.472320" lon="7.814860">
        <ele>425.483936</ele>
        <time>2021-11-15T21:14:50.054Z</time>
      </trkpt>
      <trkpt lat="47.471093" lon="7.813407">
        <ele>413.380055</ele>
        <time>2021-11-15T21:15:03.636Z</time>
      </trkpt>
      <trkpt lat="47.470923" lon="7.812993">
        <ele>410.908204</ele>
        <time>2021-11-15T21:15:06.697Z</time>
      </trkpt>
      <trkpt lat="47.470835" lon="7.812891">
        <ele>410.498186</ele>
        <time>2021-11-15T21:15:07.831Z</time>
      </trkpt>
      <trkpt lat="47.470794" lon="7.812878">
        <ele>410.344398</ele>
        <time>2021-11-15T21:15:08.599Z</time>
      </trkpt>
      <trkpt lat="47.470744" lon="7.812887">
        <ele>410.159664</ele>
        <time>2021-11-15T21:15:09.048Z</time>
      </trkpt>
      <trkpt lat="47.470614" lon="7.813052">
        <ele>409.531440</ele>
        <time>2021-11-15T21:15:10.674Z</time>
      </trkpt>
      <trkpt lat="47.470607" lon="7.813259">
        <ele>409.017604</ele>
        <time>2021-11-15T21:15:12.373Z</time>
      </trkpt>
      <trkpt lat="47.470938" lon="7.813871">
        <ele>407.074450</ele>
        <time>2021-11-15T21:15:17.763Z</time>
      </trkpt>
      <trkpt lat="47.470969" lon="7.814299">
        <ele>406.007286</ele>
        <time>2021-11-15T21:15:21.237Z</time>
      </trkpt>
      <trkpt lat="47.470838" lon="7.814669">
        <ele>404.971778</ele>
        <time>2021-11-15T21:15:24.334Z</time>
      </trkpt>
      <trkpt lat="47.470596" lon="7.814760">
        <ele>403.751710</ele>
        <time>2021-11-15T21:15:26.687Z</time>
      </trkpt>
      <trkpt lat="47.470163" lon="7.814758">
        <ele>400.680239</ele>
        <time>2021-11-15T21:15:30.682Z</time>
      </trkpt>
      <trkpt lat="47.469960" lon="7.814754">
        <ele>399.240144</ele>
        <time>2021-11-15T21:15:32.698Z</time>
      </trkpt>
      <trkpt lat="47.469647" lon="7.814557">
        <ele>396.827305</ele>
        <time>2021-11-15T21:15:35.702Z</time>
      </trkpt>
      <trkpt lat="47.469608" lon="7.814504">
        <ele>396.451650</ele>
        <time>2021-11-15T21:15:36.177Z</time>
      </trkpt>
      <trkpt lat="47.469564" lon="7.814419">
        <ele>395.938295</ele>
        <time>2021-11-15T21:15:36.780Z</time>
      </trkpt>
      <trkpt lat="47.469502" lon="7.814160">
        <ele>394.620810</ele>
        <time>2021-11-15T21:15:38.439Z</time>
      </trkpt>
      <trkpt lat="47.469477" lon="7.814056">
        <ele>394.091533</ele>
        <time>2021-11-15T21:15:39.157Z</time>
      </trkpt>
      <trkpt lat="47.469471" lon="7.813955">
        <ele>393.605367</ele>
        <time>2021-11-15T21:15:39.731Z</time>
      </trkpt>
      <trkpt lat="47.469445" lon="7.813683">
        <ele>392.288141</ele>
        <time>2021-11-15T21:15:41.365Z</time>
      </trkpt>
      <trkpt lat="47.469382" lon="7.813432">
        <ele>390.839872</ele>
        <time>2021-11-15T21:15:42.908Z</time>
      </trkpt>
      <trkpt lat="47.469261" lon="7.813214">
        <ele>389.127983</ele>
        <time>2021-11-15T21:15:44.558Z</time>
      </trkpt>
      <trkpt lat="47.468968" lon="7.813033">
        <ele>386.277283</ele>
        <time>2021-11-15T21:15:47.274Z</time>
      </trkpt>
      <trkpt lat="47.468898" lon="7.813028">
        <ele>385.648091</ele>
        <time>2021-11-15T21:15:47.861Z</time>
      </trkpt>
      <trkpt lat="47.468231" lon="7.813117">
        <ele>379.635458</ele>
        <time>2021-11-15T21:15:53.610Z</time>
      </trkpt>
      <trkpt lat="47.468087" lon="7.813122">
        <ele>378.342270</ele>
        <time>2021-11-15T21:15:54.883Z</time>
      </trkpt>
      <trkpt lat="47.467986" lon="7.813069">
        <ele>377.380130</ele>
        <time>2021-11-15T21:15:55.892Z</time>
      </trkpt>
      <trkpt lat="47.467958" lon="7.813047">
        <ele>377.095487</ele>
        <time>2021-11-15T21:15:56.229Z</time>
      </trkpt>
      <trkpt lat="47.467857" lon="7.812969">
        <ele>376.072576</ele>
        <time>2021-11-15T21:15:57.234Z</time>
      </trkpt>
      <trkpt lat="47.467746" lon="7.812871">
        <ele>375.316390</ele>
        <time>2021-11-15T21:15:58.452Z</time>
      </trkpt>
      <trkpt lat="47.467739" lon="7.812865">
        <ele>375.295928</ele>
        <time>2021-11-15T21:15:58.519Z</time>
      </trkpt>
      <trkpt lat="47.467426" lon="7.812608">
        <ele>374.390527</ele>
        <time>2021-11-15T21:16:01.887Z</time>
      </trkpt>
      <trkpt lat="47.467146" lon="7.812375">
        <ele>373.578001</ele>
        <time>2021-11-15T21:16:05.201Z</time>
      </trkpt>
      <trkpt lat="47.467077" lon="7.812317">
        <ele>373.377281</ele>
        <time>2021-11-15T21:16:05.995Z</time>
      </trkpt>
      <trkpt lat="47.467013" lon="7.812269">
        <ele>373.195798</ele>
        <time>2021-11-15T21:16:06.843Z</time>
      </trkpt>
      <trkpt lat="47.466796" lon="7.812117">
        <ele>372.588548</ele>
        <time>2021-11-15T21:16:09.428Z</time>
      </trkpt>
      <trkpt lat="47.466676" lon="7.812018">
        <ele>372.241037</ele>
        <time>2021-11-15T21:16:11.042Z</time>
      </trkpt>
      <trkpt lat="47.466578" lon="7.811937">
        <ele>371.957112</ele>
        <time>2021-11-15T21:16:12.448Z</time>
      </trkpt>
      <trkpt lat="47.466490" lon="7.811850">
        <ele>371.689414</ele>
        <time>2021-11-15T21:16:13.772Z</time>
      </trkpt>
      <trkpt lat="47.466315" lon="7.811646">
        <ele>371.125893</ele>
        <time>2021-11-15T21:16:17.566Z</time>
      </trkpt>
      <trkpt lat="47.466262" lon="7.811579">
        <ele>370.949566</ele>
        <time>2021-11-15T21:16:18.630Z</time>
      </trkpt>
      <trkpt lat="47.466196" lon="7.811499">
        <ele>371.045078</ele>
        <time>2021-11-15T21:16:20.246Z</time>
      </trkpt>
      <trkpt lat="47.466094" lon="7.811396">
        <ele>371.238792</ele>
        <time>2021-11-15T21:16:22.712Z</time>
      </trkpt>
      <trkpt lat="47.466010" lon="7.811328">
        <ele>371.388988</ele>
        <time>2021-11-15T21:16:24.615Z</time>
      </trkpt>
      <trkpt lat="47.465897" lon="7.811237">
        <ele>371.590795</ele>
        <time>2021-11-15T21:16:26.888Z</time>
      </trkpt>
      <trkpt lat="47.465656" lon="7.811068">
        <ele>372.009135</ele>
        <time>2021-11-15T21:16:33.281Z</time>
      </trkpt>
      <trkpt lat="47.465536" lon="7.811007">
        <ele>372.208163</ele>
        <time>2021-11-15T21:16:36.220Z</time>
      </trkpt>
      <trkpt lat="47.465394" lon="7.810939">
        <ele>372.442274</ele>
        <time>2021-11-15T21:16:40.079Z</time>
      </trkpt>
      <trkpt lat="47.465245" lon="7.810868">
        <ele>372.687811</ele>
        <time>2021-11-15T21:16:43.417Z</time>
      </trkpt>
      <trkpt lat="47.465212" lon="7.810852">
        <ele>372.742282</ele>
        <time>2021-11-15T21:16:44.301Z</time>
      </trkpt>
      <trkpt lat="47.465087" lon="7.810791">
        <ele>372.948742</ele>
        <time>2021-11-15T21:16:47.456Z</time>
      </trkpt>
      <trkpt lat="47.464636" lon="7.810572">
        <ele>373.693290</ele>
        <time>2021-11-15T21:16:57.740Z</time>
      </trkpt>
      <trkpt lat="47.464496" lon="7.810462">
        <ele>373.931702</ele>
        <time>2021-11-15T21:17:00.962Z</time>
      </trkpt>
      <trkpt lat="47.464452" lon="7.810429">
        <ele>374.005014</ele>
        <time>2021-11-15T21:17:02.158Z</time>
      </trkpt>
      <trkpt lat="47.464417" lon="7.810573">
        <ele>374.158753</ele>
        <time>2021-11-15T21:17:04.449Z</time>
      </trkpt>
      <trkpt lat="47.464385" lon="7.810619">
        <ele>374.225064</ele>
        <time>2021-11-15T21:17:05.185Z</time>
      </trkpt>
      <trkpt lat="47.464364" lon="7.810630">
        <ele>374.258171</ele>
        <time>2021-11-15T21:17:05.669Z</time>
      </trkpt>
      <trkpt lat="47.464340" lon="7.810632">
        <ele>374.293894</ele>
        <time>2021-11-15T21:17:06.209Z</time>
      </trkpt>
      <trkpt lat="47.464200" lon="7.810621">
        <ele>374.502240</ele>
        <time>2021-11-15T21:17:08.976Z</time>
      </trkpt>
      <trkpt lat="47.463897" lon="7.810575">
        <ele>374.954891</ele>
        <time>2021-11-15T21:17:15.622Z</time>
      </trkpt>
      <trkpt lat="47.463886" lon="7.810514">
        <ele>375.018319</ele>
        <time>2021-11-15T21:17:16.655Z</time>
      </trkpt>
      <trkpt lat="47.463831" lon="7.810395">
        <ele>375.163144</ele>
        <time>2021-11-15T21:17:19.225Z</time>
      </trkpt>
      <trkpt lat="47.463753" lon="7.810251">
        <ele>375.348527</ele>
        <time>2021-11-15T21:17:22.520Z</time>
      </trkpt>
      <trkpt lat="47.463689" lon="7.810134">
        <ele>375.499734</ele>
        <time>2021-11-15T21:17:25.213Z</time>
      </trkpt>
      <trkpt lat="47.463652" lon="7.810060">
        <ele>375.592204</ele>
        <time>2021-11-15T21:17:26.687Z</time>
      </trkpt>
      <trkpt lat="47.463616" lon="7.809990">
        <ele>375.680568</ele>
        <time>2021-11-15T21:17:28.200Z</time>
      </trkpt>
      <trkpt lat="47.463603" lon="7.809961">
        <ele>375.715527</ele>
        <time>2021-11-15T21:17:28.820Z</time>
      </trkpt>
      <trkpt lat="47.463403" lon="7.809601">
        <ele>376.183668</ele>
        <time>2021-11-15T21:17:36.874Z</time>
      </trkpt>
      <trkpt lat="47.463347" lon="7.809533">
        <ele>376.291340</ele>
        <time>2021-11-15T21:17:39.003Z</time>
      </trkpt>
      <trkpt lat="47.463122" lon="7.809317">
        <ele>376.663424</ele>
        <time>2021-11-15T21:17:45.523Z</time>
      </trkpt>
      <trkpt lat="47.463007" lon="7.809215">
        <ele>376.843101</ele>
        <time>2021-11-15T21:17:49.052Z</time>
      </trkpt>
      <trkpt lat="47.462918" lon="7.809150">
        <ele>376.976104</ele>
        <time>2021-11-15T21:17:50.753Z</time>
      </trkpt>
      <trkpt lat="47.462879" lon="7.809121">
        <ele>377.034595</ele>
        <time>2021-11-15T21:17:51.800Z</time>
      </trkpt>
      <trkpt lat="47.462185" lon="7.808547">
        <ele>378.100045</ele>
        <time>2021-11-15T21:18:07.321Z</time>
      </trkpt>
      <trkpt lat="47.462087" lon="7.808494">
        <ele>378.239865</ele>
        <time>2021-11-15T21:18:09.722Z</time>
      </trkpt>
      <trkpt lat="47.462052" lon="7.808470">
        <ele>378.291559</ele>
        <time>2021-11-15T21:18:10.428Z</time>
      </trkpt>
      <trkpt lat="47.461997" lon="7.808450">
        <ele>378.367452</ele>
        <time>2021-11-15T21:18:11.488Z</time>
      </trkpt>
      <trkpt lat="47.461822" lon="7.808433">
        <ele>378.602452</ele>
        <time>2021-11-15T21:18:15.325Z</time>
      </trkpt>
      <trkpt lat="47.461296" lon="7.808372">
        <ele>379.359211</ele>
        <time>2021-11-15T21:18:26.584Z</time>
      </trkpt>
      <trkpt lat="47.460938" lon="7.808308">
        <ele>379.892595</ele>
        <time>2021-11-15T21:18:33.920Z</time>
      </trkpt>
      <trkpt lat="47.460870" lon="7.808289">
        <ele>379.994956</ele>
        <time>2021-11-15T21:18:35.254Z</time>
      </trkpt>
      <trkpt lat="47.460827" lon="7.808276">
        <ele>380.059873</ele>
        <time>2021-11-15T21:18:36.252Z</time>
      </trkpt>
      <trkpt lat="47.460439" lon="7.808155">
        <ele>380.646396</ele>
        <time>2021-11-15T21:18:44.515Z</time>
      </trkpt>
      <trkpt lat="47.460298" lon="7.808103">
        <ele>380.861339</ele>
        <time>2021-11-15T21:18:47.509Z</time>
      </trkpt>
      <trkpt lat="47.460078" lon="7.808023">
        <ele>381.196439</ele>
        <time>2021-11-15T21:18:52.188Z</time>
      </trkpt>
      <trkpt lat="47.459865" lon="7.807952">
        <ele>381.519142</ele>
        <time>2021-11-15T21:18:56.616Z</time>
      </trkpt>
      <trkpt lat="47.459423" lon="7.807775">
        <ele>382.190455</ele>
        <time>2021-11-15T21:19:06.213Z</time>
      </trkpt>
      <trkpt lat="47.459282" lon="7.807707">
        <ele>382.407876</ele>
        <time>2021-11-15T21:19:09.087Z</time>
      </trkpt>
      <trkpt lat="47.459007" lon="7.807577">
        <ele>382.831125</ele>
        <time>2021-11-15T21:19:14.488Z</time>
      </trkpt>
      <trkpt lat="47.458678" lon="7.807409">
        <ele>383.341384</ele>
        <time>2021-11-15T21:19:21.453Z</time>
      </trkpt>
      <trkpt lat="47.458342" lon="7.807254">
        <ele>383.857373</ele>
        <time>2021-11-15T21:19:28.964Z</time>
      </trkpt>
      <trkpt lat="47.458237" lon="7.807215">
        <ele>384.016085</ele>
        <time>2021-11-15T21:19:31.381Z</time>
      </trkpt>
      <trkpt lat="47.458181" lon="7.807191">
        <ele>384.101560</ele>
        <time>2021-11-15T21:19:32.731Z</time>
      </trkpt>
      <trkpt lat="47.457732" lon="7.807037">
        <ele>385.054103</ele>
        <time>2021-11-15T21:19:43.232Z</time>
      </trkpt>
      <trkpt lat="47.457326" lon="7.806926">
        <ele>385.917271</ele>
        <time>2021-11-15T21:19:53.155Z</time>
      </trkpt>
      <trkpt lat="47.457291" lon="7.806917">
        <ele>385.991540</ele>
        <time>2021-11-15T21:19:53.880Z</time>
      </trkpt>
      <trkpt lat="47.456988" lon="7.806840">
        <ele>386.634278</ele>
        <time>2021-11-15T21:20:01.316Z</time>
      </trkpt>
      <trkpt lat="47.456502" lon="7.806745">
        <ele>387.659150</ele>
        <time>2021-11-15T21:20:12.628Z</time>
      </trkpt>
      <trkpt lat="47.456331" lon="7.806727">
        <ele>388.005509</ele>
        <time>2021-11-15T21:20:16.777Z</time>
      </trkpt>
      <trkpt lat="47.456100" lon="7.806718">
        <ele>388.443794</ele>
        <time>2021-11-15T21:20:22.146Z</time>
      </trkpt>
      <trkpt lat="47.455379" lon="7.806783">
        <ele>389.813840</ele>
        <time>2021-11-15T21:20:38.840Z</time>
      </trkpt>
      <trkpt lat="47.454559" lon="7.807067">
        <ele>391.384111</ele>
        <time>2021-11-15T21:20:57.608Z</time>
      </trkpt>
      <trkpt lat="47.454428" lon="7.807128">
        <ele>391.581599</ele>
        <time>2021-11-15T21:20:59.943Z</time>
      </trkpt>
      <trkpt lat="47.454310" lon="7.807191">
        <ele>391.761994</ele>
        <time>2021-11-15T21:21:02.448Z</time>
      </trkpt>
      <trkpt lat="47.453985" lon="7.807368">
        <ele>392.260007</ele>
        <time>2021-11-15T21:21:08.918Z</time>
      </trkpt>
      <trkpt lat="47.453901" lon="7.807402">
        <ele>392.385237</ele>
        <time>2021-11-15T21:21:10.797Z</time>
      </trkpt>
      <trkpt lat="47.453815" lon="7.807438">
        <ele>392.513758</ele>
        <time>2021-11-15T21:21:12.493Z</time>
      </trkpt>
      <trkpt lat="47.453677" lon="7.807487">
        <ele>392.717834</ele>
        <time>2021-11-15T21:21:15.100Z</time>
      </trkpt>
      <trkpt lat="47.453371" lon="7.807571">
        <ele>393.165361</ele>
        <time>2021-11-15T21:21:21.154Z</time>
      </trkpt>
      <trkpt lat="47.453183" lon="7.807608">
        <ele>393.438077</ele>
        <time>2021-11-15T21:21:25.378Z</time>
      </trkpt>
      <trkpt lat="47.452830" lon="7.807686">
        <ele>393.960134</ele>
        <time>2021-11-15T21:21:33.650Z</time>
      </trkpt>
      <trkpt lat="47.452649" lon="7.807724">
        <ele>394.258307</ele>
        <time>2021-11-15T21:21:37.561Z</time>
      </trkpt>
      <trkpt lat="47.452556" lon="7.807739">
        <ele>394.410891</ele>
        <time>2021-11-15T21:21:39.564Z</time>
      </trkpt>
      <trkpt lat="47.452456" lon="7.807753">
        <ele>394.574721</ele>
        <time>2021-11-15T21:21:42.086Z</time>
      </trkpt>
      <trkpt lat="47.452253" lon="7.807773">
        <ele>394.906550</ele>
        <time>2021-11-15T21:21:46.424Z</time>
      </trkpt>
      <trkpt lat="47.451923" lon="7.807754">
        <ele>395.445192</ele>
        <time>2021-11-15T21:21:53.309Z</time>
      </trkpt>
      <trkpt lat="47.451791" lon="7.807759">
        <ele>395.660556</ele>
        <time>2021-11-15T21:21:56.066Z</time>
      </trkpt>
      <trkpt lat="47.451415" lon="7.807774">
        <ele>396.274039</ele>
        <time>2021-11-15T21:22:03.886Z</time>
      </trkpt>
      <trkpt lat="47.450005" lon="7.807761">
        <ele>398.632828</ele>
        <time>2021-11-15T21:22:33.473Z</time>
      </trkpt>
      <trkpt lat="47.449896" lon="7.807771">
        <ele>398.816941</ele>
        <time>2021-11-15T21:22:35.610Z</time>
      </trkpt>
      <trkpt lat="47.449829" lon="7.807782">
        <ele>398.930589</ele>
        <time>2021-11-15T21:22:37.193Z</time>
      </trkpt>
      <trkpt lat="47.449353" lon="7.807942">
        <ele>399.753534</ele>
        <time>2021-11-15T21:22:47.585Z</time>
      </trkpt>
      <trkpt lat="47.449267" lon="7.807971">
        <ele>399.954231</ele>
        <time>2021-11-15T21:22:49.786Z</time>
      </trkpt>
      <trkpt lat="47.449253" lon="7.807755">
        <ele>400.454816</ele>
        <time>2021-11-15T21:22:54.068Z</time>
      </trkpt>
      <trkpt lat="47.449252" lon="7.807713">
        <ele>400.551768</ele>
        <time>2021-11-15T21:22:54.882Z</time>
      </trkpt>
      <trkpt lat="47.449247" lon="7.807403">
        <ele>401.267126</ele>
        <time>2021-11-15T21:23:01.342Z</time>
      </trkpt>
      <trkpt lat="47.449300" lon="7.806913">
        <ele>402.411900</ele>
        <time>2021-11-15T21:23:11.915Z</time>
      </trkpt>
      <trkpt lat="47.449425" lon="7.806478">
        <ele>403.502265</ele>
        <time>2021-11-15T21:23:22.480Z</time>
      </trkpt>
      <trkpt lat="47.449513" lon="7.806105">
        <ele>404.413618</ele>
        <time>2021-11-15T21:23:31.931Z</time>
      </trkpt>
      <trkpt lat="47.449544" lon="7.805931">
        <ele>404.828723</ele>
        <time>2021-11-15T21:23:36.897Z</time>
      </trkpt>
      <trkpt lat="47.449551" lon="7.805863">
        <ele>404.987401</ele>
        <time>2021-11-15T21:23:38.686Z</time>
      </trkpt>
      <trkpt lat="47.449654" lon="7.805006">
        <ele>407.492566</ele>
        <time>2021-11-15T21:24:01.528Z</time>
      </trkpt>
      <trkpt lat="47.449694" lon="7.804883">
        <ele>407.962704</ele>
        <time>2021-11-15T21:24:05.771Z</time>
      </trkpt>
      <trkpt lat="47.449912" lon="7.804695">
        <ele>409.248194</ele>
        <time>2021-11-15T21:24:15.156Z</time>
      </trkpt>
      <trkpt lat="47.449977" lon="7.804586">
        <ele>409.748793</ele>
        <time>2021-11-15T21:24:19.744Z</time>
      </trkpt>
      <trkpt lat="47.449992" lon="7.804348">
        <ele>410.572166</ele>
        <time>2021-11-15T21:24:26.280Z</time>
      </trkpt>
      <trkpt lat="47.449997" lon="7.803583">
        <ele>413.207423</ele>
        <time>2021-11-15T21:24:47.164Z</time>
      </trkpt>
      <trkpt lat="47.449998" lon="7.803407">
        <ele>413.813698</ele>
        <time>2021-11-15T21:24:51.905Z</time>
      </trkpt>
      <trkpt lat="47.449996" lon="7.803209">
        <ele>414.495808</ele>
        <time>2021-11-15T21:24:57.221Z</time>
      </trkpt>
      <trkpt lat="47.449993" lon="7.803123">
        <ele>414.792440</ele>
        <time>2021-11-15T21:24:59.650Z</time>
      </trkpt>
      <trkpt lat="47.449989" lon="7.803041">
        <ele>415.075632</ele>
        <time>2021-11-15T21:25:02.188Z</time>
      </trkpt>
      <trkpt lat="47.449988" lon="7.802434">
        <ele>417.481460</ele>
        <time>2021-11-15T21:25:20.233Z</time>
      </trkpt>
      <trkpt lat="47.449979" lon="7.802272">
        <ele>418.128786</ele>
        <time>2021-11-15T21:25:25.038Z</time>
      </trkpt>
      <trkpt lat="47.449943" lon="7.802235">
        <ele>418.386971</ele>
        <time>2021-11-15T21:25:27.336Z</time>
      </trkpt>
      <trkpt lat="47.449720" lon="7.802112">
        <ele>419.788626</ele>
        <time>2021-11-15T21:25:37.479Z</time>
      </trkpt>
      <trkpt lat="47.449690" lon="7.802095">
        <ele>419.977827</ele>
        <time>2021-11-15T21:25:38.872Z</time>
      </trkpt>
      <trkpt lat="47.449611" lon="7.801975">
        <ele>420.644784</ele>
        <time>2021-11-15T21:25:43.569Z</time>
      </trkpt>
      <trkpt lat="47.449390" lon="7.801489">
        <ele>422.977157</ele>
        <time>2021-11-15T21:26:01.253Z</time>
      </trkpt>
      <trkpt lat="47.449143" lon="7.800947">
        <ele>425.580048</ele>
        <time>2021-11-15T21:26:20.352Z</time>
      </trkpt>
      <trkpt lat="47.449078" lon="7.800818">
        <ele>426.345532</ele>
        <time>2021-11-15T21:26:25.311Z</time>
      </trkpt>
      <trkpt lat="47.448983" lon="7.800594">
        <ele>427.672955</ele>
        <time>2021-11-15T21:26:33.379Z</time>
      </trkpt>
      <trkpt lat="47.448848" lon="7.800119">
        <ele>430.259688</ele>
        <time>2021-11-15T21:26:49.849Z</time>
      </trkpt>
      <trkpt lat="47.448810" lon="7.799932">
        <ele>431.239972</ele>
        <time>2021-11-15T21:26:56.517Z</time>
      </trkpt>
      <trkpt lat="47.448750" lon="7.799670">
        <ele>432.628694</ele>
        <time>2021-11-15T21:27:05.786Z</time>
      </trkpt>
      <trkpt lat="47.448620" lon="7.799147">
        <ele>435.426122</ele>
        <time>2021-11-15T21:27:24.518Z</time>
      </trkpt>
      <trkpt lat="47.448309" lon="7.798761">
        <ele>438.440441</ele>
        <time>2021-11-15T21:27:47.013Z</time>
      </trkpt>
      <trkpt lat="47.448084" lon="7.798490">
        <ele>441.156159</ele>
        <time>2021-11-15T21:28:02.583Z</time>
      </trkpt>
      <trkpt lat="47.447931" lon="7.798365">
        <ele>442.939486</ele>
        <time>2021-11-15T21:28:12.904Z</time>
      </trkpt>
      <trkpt lat="47.447820" lon="7.798327">
        <ele>444.101878</ele>
        <time>2021-11-15T21:28:18.723Z</time>
      </trkpt>
      <trkpt lat="47.447544" lon="7.798379">
        <ele>446.940436</ele>
        <time>2021-11-15T21:28:34.416Z</time>
      </trkpt>
      <trkpt lat="47.447380" lon="7.798347">
        <ele>448.628092</ele>
        <time>2021-11-15T21:28:45.558Z</time>
      </trkpt>
      <trkpt lat="47.447276" lon="7.798226">
        <ele>449.978169</ele>
        <time>2021-11-15T21:28:55.394Z</time>
      </trkpt>
      <trkpt lat="47.447148" lon="7.797938">
        <ele>452.355897</ele>
        <time>2021-11-15T21:29:09.807Z</time>
      </trkpt>
      <trkpt lat="47.446763" lon="7.796590">
        <ele>462.929768</ele>
        <time>2021-11-15T21:30:12.300Z</time>
      </trkpt>
      <trkpt lat="47.446732" lon="7.796525">
        <ele>463.530928</ele>
        <time>2021-11-15T21:30:18.148Z</time>
      </trkpt>
      <trkpt lat="47.446624" lon="7.796412">
        <ele>465.009563</ele>
        <time>2021-11-15T21:30:28.347Z</time>
      </trkpt>
      <trkpt lat="47.445967" lon="7.796221">
        <ele>472.492884</ele>
        <time>2021-11-15T21:31:10.516Z</time>
      </trkpt>
      <trkpt lat="47.445779" lon="7.796039">
        <ele>475.004263</ele>
        <time>2021-11-15T21:31:23.591Z</time>
      </trkpt>
      <trkpt lat="47.445682" lon="7.795835">
        <ele>476.889124</ele>
        <time>2021-11-15T21:31:36.785Z</time>
      </trkpt>
      <trkpt lat="47.445475" lon="7.795391">
        <ele>480.852284</ele>
        <time>2021-11-15T21:32:00.467Z</time>
      </trkpt>
      <trkpt lat="47.445416" lon="7.795242">
        <ele>482.114220</ele>
        <time>2021-11-15T21:32:06.743Z</time>
      </trkpt>
      <trkpt lat="47.445320" lon="7.795072">
        <ele>483.732905</ele>
        <time>2021-11-15T21:32:14.372Z</time>
      </trkpt>
      <trkpt lat="47.445231" lon="7.794743">
        <ele>486.322719</ele>
        <time>2021-11-15T21:32:27.271Z</time>
      </trkpt>
      <trkpt lat="47.445321" lon="7.794537">
        <ele>488.115167</ele>
        <time>2021-11-15T21:32:36.597Z</time>
      </trkpt>
      <trkpt lat="47.445387" lon="7.794487">
        <ele>488.916600</ele>
        <time>2021-11-15T21:32:41.675Z</time>
      </trkpt>
      <trkpt lat="47.445548" lon="7.794462">
        <ele>490.666108</ele>
        <time>2021-11-15T21:32:52.394Z</time>
      </trkpt>
      <trkpt lat="47.446028" lon="7.794297">
        <ele>495.991836</ele>
        <time>2021-11-15T21:33:26.079Z</time>
      </trkpt>
      <trkpt lat="47.446451" lon="7.793993">
        <ele>502.128885</ele>
        <time>2021-11-15T21:33:59.837Z</time>
      </trkpt>
      <trkpt lat="47.446661" lon="7.793793">
        <ele>505.524281</ele>
        <time>2021-11-15T21:34:17.422Z</time>
      </trkpt>
      <trkpt lat="47.446993" lon="7.793502">
        <ele>510.770456</ele>
        <time>2021-11-15T21:34:46.854Z</time>
      </trkpt>
      <trkpt lat="47.447282" lon="7.793359">
        <ele>514.912969</ele>
        <time>2021-11-15T21:35:09.365Z</time>
      </trkpt>
      <trkpt lat="47.447855" lon="7.793340">
        <ele>522.816144</ele>
        <time>2021-11-15T21:35:54.074Z</time>
      </trkpt>
      <trkpt lat="47.448363" lon="7.792534">
        <ele>533.840484</ele>
        <time>2021-11-15T21:36:55.633Z</time>
      </trkpt>
      <trkpt lat="47.448536" lon="7.792353">
        <ele>536.976090</ele>
        <time>2021-11-15T21:37:15.455Z</time>
      </trkpt>
      <trkpt lat="47.448715" lon="7.792165">
        <ele>540.224623</ele>
        <time>2021-11-15T21:37:29.896Z</time>
      </trkpt>
      <trkpt lat="47.449194" lon="7.791897">
        <ele>547.802235</ele>
        <time>2021-11-15T21:38:12.404Z</time>
      </trkpt>
      <trkpt lat="47.449435" lon="7.791839">
        <ele>550.829335</ele>
        <time>2021-11-15T21:38:26.839Z</time>
      </trkpt>
      <trkpt lat="47.449469" lon="7.791832">
        <ele>551.248939</ele>
        <time>2021-11-15T21:38:29.950Z</time>
      </trkpt>
      <trkpt lat="47.449471" lon="7.791720">
        <ele>552.175048</ele>
        <time>2021-11-15T21:38:38.399Z</time>
      </trkpt>
      <trkpt lat="47.449436" lon="7.791522">
        <ele>553.866698</ele>
        <time>2021-11-15T21:38:45.026Z</time>
      </trkpt>
      <trkpt lat="47.449369" lon="7.791466">
        <ele>554.807430</ele>
        <time>2021-11-15T21:38:49.129Z</time>
      </trkpt>
      <trkpt lat="47.449262" lon="7.791427">
        <ele>556.154477</ele>
        <time>2021-11-15T21:38:59.354Z</time>
      </trkpt>
      <trkpt lat="47.448392" lon="7.791109">
        <ele>567.108881</ele>
        <time>2021-11-15T21:40:00.014Z</time>
      </trkpt>
      <trkpt lat="47.448192" lon="7.791016">
        <ele>569.671581</ele>
        <time>2021-11-15T21:40:15.664Z</time>
      </trkpt>
      <trkpt lat="47.448130" lon="7.790974">
        <ele>570.435728</ele>
        <time>2021-11-15T21:40:18.697Z</time>
      </trkpt>
      <trkpt lat="47.447992" lon="7.790893">
        <ele>571.984117</ele>
        <time>2021-11-15T21:40:28.416Z</time>
      </trkpt>
      <trkpt lat="47.447687" lon="7.790708">
        <ele>575.422061</ele>
        <time>2021-11-15T21:40:47.546Z</time>
      </trkpt>
      <trkpt lat="47.447587" lon="7.790639">
        <ele>576.572878</ele>
        <time>2021-11-15T21:40:52.860Z</time>
      </trkpt>
      <trkpt lat="47.447500" lon="7.790589">
        <ele>577.546291</ele>
        <time>2021-11-15T21:40:57.125Z</time>
      </trkpt>
      <trkpt lat="47.447453" lon="7.790554">
        <ele>578.095086</ele>
        <time>2021-11-15T21:41:00.940Z</time>
      </trkpt>
      <trkpt lat="47.447429" lon="7.790481">
        <ele>578.667539</ele>
        <time>2021-11-15T21:41:07.061Z</time>
      </trkpt>
      <trkpt lat="47.447394" lon="7.789555">
        <ele>585.208416</ele>
        <time>2021-11-15T21:41:43.861Z</time>
      </trkpt>
      <trkpt lat="47.447440" lon="7.788465">
        <ele>591.657835</ele>
        <time>2021-11-15T21:42:28.939Z</time>
      </trkpt>
      <trkpt lat="47.447439" lon="7.788419">
        <ele>591.883741</ele>
        <time>2021-11-15T21:42:32.607Z</time>
      </trkpt>
      <trkpt lat="47.447433" lon="7.788039">
        <ele>593.749469</ele>
        <time>2021-11-15T21:42:45.560Z</time>
      </trkpt>
      <trkpt lat="47.447433" lon="7.787953">
        <ele>594.171597</ele>
        <time>2021-11-15T21:42:48.375Z</time>
      </trkpt>
      <trkpt lat="47.447432" lon="7.787892">
        <ele>594.471102</ele>
        <time>2021-11-15T21:42:52.944Z</time>
      </trkpt>
      <trkpt lat="47.447324" lon="7.787333">
        <ele>597.324719</ele>
        <time>2021-11-15T21:43:12.307Z</time>
      </trkpt>
      <trkpt lat="47.446444" lon="7.785618">
        <ele>601.553052</ele>
        <time>2021-11-15T21:43:58.874Z</time>
      </trkpt>
      <trkpt lat="47.446319" lon="7.785292">
        <ele>601.464360</ele>
        <time>2021-11-15T21:44:02.819Z</time>
      </trkpt>
      <trkpt lat="47.446226" lon="7.784823">
        <ele>601.348689</ele>
        <time>2021-11-15T21:44:07.649Z</time>
      </trkpt>
      <trkpt lat="47.446193" lon="7.784607">
        <ele>601.296280</ele>
        <time>2021-11-15T21:44:09.818Z</time>
      </trkpt>
      <trkpt lat="47.446178" lon="7.784507">
        <ele>601.272038</ele>
        <time>2021-11-15T21:44:10.686Z</time>
      </trkpt>
      <trkpt lat="47.446135" lon="7.783937">
        <ele>600.368965</ele>
        <time>2021-11-15T21:44:16.220Z</time>
      </trkpt>
      <trkpt lat="47.446352" lon="7.783367">
        <ele>598.707983</ele>
        <time>2021-11-15T21:44:22.511Z</time>
      </trkpt>
      <trkpt lat="47.446520" lon="7.783084">
        <ele>597.751776</ele>
        <time>2021-11-15T21:44:25.929Z</time>
      </trkpt>
      <trkpt lat="47.446721" lon="7.782801">
        <ele>596.709659</ele>
        <time>2021-11-15T21:44:29.950Z</time>
      </trkpt>
      <trkpt lat="47.446972" lon="7.782443">
        <ele>595.400227</ele>
        <time>2021-11-15T21:44:34.782Z</time>
      </trkpt>
      <trkpt lat="47.447383" lon="7.781620">
        <ele>592.922300</ele>
        <time>2021-11-15T21:44:45.083Z</time>
      </trkpt>
      <trkpt lat="47.447601" lon="7.781253">
        <ele>591.771602</ele>
        <time>2021-11-15T21:44:50.211Z</time>
      </trkpt>
      <trkpt lat="47.447746" lon="7.780962">
        <ele>590.920107</ele>
        <time>2021-11-15T21:44:54.044Z</time>
      </trkpt>
      <trkpt lat="47.448013" lon="7.780607">
        <ele>589.669353</ele>
        <time>2021-11-15T21:44:59.132Z</time>
      </trkpt>
      <trkpt lat="47.448130" lon="7.780390">
        <ele>589.015584</ele>
        <time>2021-11-15T21:45:01.852Z</time>
      </trkpt>
      <trkpt lat="47.448159" lon="7.780313">
        <ele>588.807964</ele>
        <time>2021-11-15T21:45:02.678Z</time>
      </trkpt>
      <trkpt lat="47.448201" lon="7.780045">
        <ele>588.100641</ele>
        <time>2021-11-15T21:45:05.108Z</time>
      </trkpt>
      <trkpt lat="47.448218" lon="7.779733">
        <ele>586.159018</ele>
        <time>2021-11-15T21:45:07.969Z</time>
      </trkpt>
      <trkpt lat="47.448238" lon="7.779393">
        <ele>584.042018</ele>
        <time>2021-11-15T21:45:11.031Z</time>
      </trkpt>
      <trkpt lat="47.448253" lon="7.779053">
        <ele>581.928499</ele>
        <time>2021-11-15T21:45:13.953Z</time>
      </trkpt>
      <trkpt lat="47.448285" lon="7.778741">
        <ele>579.971018</ele>
        <time>2021-11-15T21:45:16.648Z</time>
      </trkpt>
      <trkpt lat="47.448303" lon="7.778528">
        <ele>578.639495</ele>
        <time>2021-11-15T21:45:18.349Z</time>
      </trkpt>
      <trkpt lat="47.448416" lon="7.777341">
        <ele>570.937970</ele>
        <time>2021-11-15T21:45:28.107Z</time>
      </trkpt>
      <trkpt lat="47.448549" lon="7.776848">
        <ele>565.873197</ele>
        <time>2021-11-15T21:45:32.362Z</time>
      </trkpt>
      <trkpt lat="47.448634" lon="7.776646">
        <ele>563.603008</ele>
        <time>2021-11-15T21:45:34.261Z</time>
      </trkpt>
      <trkpt lat="47.448702" lon="7.776544">
        <ele>562.236285</ele>
        <time>2021-11-15T21:45:35.381Z</time>
      </trkpt>
      <trkpt lat="47.449249" lon="7.775915">
        <ele>552.458988</ele>
        <time>2021-11-15T21:45:43.487Z</time>
      </trkpt>
      <trkpt lat="47.449533" lon="7.775401">
        <ele>546.161758</ele>
        <time>2021-11-15T21:45:48.714Z</time>
      </trkpt>
      <trkpt lat="47.449767" lon="7.774684">
        <ele>539.992211</ele>
        <time>2021-11-15T21:45:55.044Z</time>
      </trkpt>
      <trkpt lat="47.449786" lon="7.774620">
        <ele>539.450562</ele>
        <time>2021-11-15T21:45:55.587Z</time>
      </trkpt>
      <trkpt lat="47.449800" lon="7.774515">
        <ele>538.621212</ele>
        <time>2021-11-15T21:45:56.472Z</time>
      </trkpt>
      <trkpt lat="47.449836" lon="7.774059">
        <ele>535.063499</ele>
        <time>2021-11-15T21:46:00.198Z</time>
      </trkpt>
      <trkpt lat="47.449949" lon="7.773945">
        <ele>533.495924</ele>
        <time>2021-11-15T21:46:01.887Z</time>
      </trkpt>
      <trkpt lat="47.449993" lon="7.773867">
        <ele>532.708779</ele>
        <time>2021-11-15T21:46:02.728Z</time>
      </trkpt>
      <trkpt lat="47.450173" lon="7.773366">
        <ele>528.312420</ele>
        <time>2021-11-15T21:46:07.417Z</time>
      </trkpt>
      <trkpt lat="47.450487" lon="7.772269">
        <ele>523.551935</ele>
        <time>2021-11-15T21:46:17.512Z</time>
      </trkpt>
      <trkpt lat="47.450696" lon="7.771509">
        <ele>521.484083</ele>
        <time>2021-11-15T21:46:25.982Z</time>
      </trkpt>
      <trkpt lat="47.451004" lon="7.770428">
        <ele>518.819739</ele>
        <time>2021-11-15T21:46:41.140Z</time>
      </trkpt>
      <trkpt lat="47.451135" lon="7.769901">
        <ele>518.274207</ele>
        <time>2021-11-15T21:46:48.009Z</time>
      </trkpt>
      <trkpt lat="47.451217" lon="7.769745">
        <ele>518.082232</ele>
        <time>2021-11-15T21:46:50.748Z</time>
      </trkpt>
      <trkpt lat="47.451197" lon="7.769677">
        <ele>518.010185</ele>
        <time>2021-11-15T21:46:51.641Z</time>
      </trkpt>
      <trkpt lat="47.451184" lon="7.769584">
        <ele>517.917916</ele>
        <time>2021-11-15T21:46:52.425Z</time>
      </trkpt>
      <trkpt lat="47.451171" lon="7.769212">
        <ele>517.556000</ele>
        <time>2021-11-15T21:46:55.147Z</time>
      </trkpt>
      <trkpt lat="47.451134" lon="7.768791">
        <ele>517.143517</ele>
        <time>2021-11-15T21:46:58.497Z</time>
      </trkpt>
      <trkpt lat="47.451069" lon="7.768123">
        <ele>516.487805</ele>
        <time>2021-11-15T21:47:03.343Z</time>
      </trkpt>
      <trkpt lat="47.451065" lon="7.767935">
        <ele>516.035549</ele>
        <time>2021-11-15T21:47:04.827Z</time>
      </trkpt>
      <trkpt lat="47.451066" lon="7.767828">
        <ele>515.685070</ele>
        <time>2021-11-15T21:47:05.524Z</time>
      </trkpt>
      <trkpt lat="47.451120" lon="7.767294">
        <ele>513.916671</ele>
        <time>2021-11-15T21:47:09.303Z</time>
      </trkpt>
      <trkpt lat="47.451119" lon="7.767203">
        <ele>513.618590</ele>
        <time>2021-11-15T21:47:09.886Z</time>
      </trkpt>
      <trkpt lat="47.451103" lon="7.767132">
        <ele>513.373479</ele>
        <time>2021-11-15T21:47:10.357Z</time>
      </trkpt>
      <trkpt lat="47.451026" lon="7.766973">
        <ele>512.732955</ele>
        <time>2021-11-15T21:47:11.845Z</time>
      </trkpt>
      <trkpt lat="47.450777" lon="7.766704">
        <ele>511.239417</ele>
        <time>2021-11-15T21:47:14.772Z</time>
      </trkpt>
      <trkpt lat="47.450678" lon="7.766592">
        <ele>510.635700</ele>
        <time>2021-11-15T21:47:15.985Z</time>
      </trkpt>
      <trkpt lat="47.450521" lon="7.766413">
        <ele>509.675527</ele>
        <time>2021-11-15T21:47:17.725Z</time>
      </trkpt>
      <trkpt lat="47.449733" lon="7.765755">
        <ele>503.760098</ele>
        <time>2021-11-15T21:47:25.822Z</time>
      </trkpt>
      <trkpt lat="47.449615" lon="7.765656">
        <ele>502.685999</ele>
        <time>2021-11-15T21:47:27.009Z</time>
      </trkpt>
      <trkpt lat="47.449522" lon="7.765582">
        <ele>501.849887</ele>
        <time>2021-11-15T21:47:27.919Z</time>
      </trkpt>
      <trkpt lat="47.449371" lon="7.765478">
        <ele>500.531100</ele>
        <time>2021-11-15T21:47:29.459Z</time>
      </trkpt>
      <trkpt lat="47.449330" lon="7.765441">
        <ele>500.150829</ele>
        <time>2021-11-15T21:47:29.887Z</time>
      </trkpt>
      <trkpt lat="47.449309" lon="7.765407">
        <ele>499.904298</ele>
        <time>2021-11-15T21:47:30.144Z</time>
      </trkpt>
      <trkpt lat="47.449197" lon="7.765003">
        <ele>497.566633</ele>
        <time>2021-11-15T21:47:32.805Z</time>
      </trkpt>
      <trkpt lat="47.449117" lon="7.764686">
        <ele>495.755121</ele>
        <time>2021-11-15T21:47:34.788Z</time>
      </trkpt>
      <trkpt lat="47.449104" lon="7.764651">
        <ele>495.541331</ele>
        <time>2021-11-15T21:47:35.039Z</time>
      </trkpt>
      <trkpt lat="47.449090" lon="7.764621">
        <ele>495.346182</ele>
        <time>2021-11-15T21:47:35.272Z</time>
      </trkpt>
      <trkpt lat="47.449068" lon="7.764572">
        <ele>495.031285</ele>
        <time>2021-11-15T21:47:35.633Z</time>
      </trkpt>
      <trkpt lat="47.448997" lon="7.764469">
        <ele>494.243841</ele>
        <time>2021-11-15T21:47:36.492Z</time>
      </trkpt>
      <trkpt lat="47.448981" lon="7.764430">
        <ele>493.999619</ele>
        <time>2021-11-15T21:47:36.757Z</time>
      </trkpt>
      <trkpt lat="47.448974" lon="7.764320">
        <ele>493.398112</ele>
        <time>2021-11-15T21:47:37.657Z</time>
      </trkpt>
      <trkpt lat="47.449018" lon="7.763977">
        <ele>491.213544</ele>
        <time>2021-11-15T21:47:40.694Z</time>
      </trkpt>
      <trkpt lat="47.449030" lon="7.763957">
        <ele>491.046237</ele>
        <time>2021-11-15T21:47:40.904Z</time>
      </trkpt>
      <trkpt lat="47.449068" lon="7.763893">
        <ele>490.513305</ele>
        <time>2021-11-15T21:47:41.601Z</time>
      </trkpt>
      <trkpt lat="47.449423" lon="7.763910">
        <ele>487.226710</ele>
        <time>2021-11-15T21:47:46.017Z</time>
      </trkpt>
      <trkpt lat="47.449641" lon="7.763856">
        <ele>485.181416</ele>
        <time>2021-11-15T21:47:48.691Z</time>
      </trkpt>
      <trkpt lat="47.450213" lon="7.763596">
        <ele>479.644212</ele>
        <time>2021-11-15T21:47:56.000Z</time>
      </trkpt>
      <trkpt lat="47.450591" lon="7.763529">
        <ele>476.216974</ele>
        <time>2021-11-15T21:48:00.712Z</time>
      </trkpt>
      <trkpt lat="47.450817" lon="7.763325">
        <ele>474.099963</ele>
        <time>2021-11-15T21:48:04.116Z</time>
      </trkpt>
      <trkpt lat="47.450847" lon="7.763266">
        <ele>473.700846</ele>
        <time>2021-11-15T21:48:04.699Z</time>
      </trkpt>
      <trkpt lat="47.450838" lon="7.763197">
        <ele>473.320905</ele>
        <time>2021-11-15T21:48:05.266Z</time>
      </trkpt>
      <trkpt lat="47.450610" lon="7.762726">
        <ele>470.189088</ele>
        <time>2021-11-15T21:48:10.221Z</time>
      </trkpt>
      <trkpt lat="47.450560" lon="7.762685">
        <ele>469.731966</ele>
        <time>2021-11-15T21:48:10.931Z</time>
      </trkpt>
      <trkpt lat="47.450507" lon="7.762657">
        <ele>469.281975</ele>
        <time>2021-11-15T21:48:11.643Z</time>
      </trkpt>
      <trkpt lat="47.450194" lon="7.762510">
        <ele>466.656208</ele>
        <time>2021-11-15T21:48:15.792Z</time>
      </trkpt>
      <trkpt lat="47.449966" lon="7.762399">
        <ele>464.736986</ele>
        <time>2021-11-15T21:48:18.807Z</time>
      </trkpt>
      <trkpt lat="47.449829" lon="7.762363">
        <ele>463.624444</ele>
        <time>2021-11-15T21:48:20.580Z</time>
      </trkpt>
      <trkpt lat="47.449598" lon="7.762322">
        <ele>461.893478</ele>
        <time>2021-11-15T21:48:23.496Z</time>
      </trkpt>
      <trkpt lat="47.449520" lon="7.762314">
        <ele>461.387365</ele>
        <time>2021-11-15T21:48:24.503Z</time>
      </trkpt>
      <trkpt lat="47.449019" lon="7.762253">
        <ele>458.133379</ele>
        <time>2021-11-15T21:48:31.137Z</time>
      </trkpt>
      <trkpt lat="47.448580" lon="7.762093">
        <ele>455.206658</ele>
        <time>2021-11-15T21:48:37.218Z</time>
      </trkpt>
      <trkpt lat="47.447451" lon="7.761515">
        <ele>445.912459</ele>
        <time>2021-11-15T21:48:52.585Z</time>
      </trkpt>
      <trkpt lat="47.445946" lon="7.760212">
        <ele>428.734401</ele>
        <time>2021-11-15T21:49:13.680Z</time>
      </trkpt>
      <trkpt lat="47.445735" lon="7.760004">
        <ele>425.994807</ele>
        <time>2021-11-15T21:49:16.793Z</time>
      </trkpt>
      <trkpt lat="47.445458" lon="7.759563">
        <ele>421.597515</ele>
        <time>2021-11-15T21:49:21.734Z</time>
      </trkpt>
      <trkpt lat="47.445401" lon="7.759495">
        <ele>420.806305</ele>
        <time>2021-11-15T21:49:22.569Z</time>
      </trkpt>
      <trkpt lat="47.445150" lon="7.759617">
        <ele>417.951959</ele>
        <time>2021-11-15T21:49:25.911Z</time>
      </trkpt>
      <trkpt lat="47.444345" lon="7.759836">
        <ele>410.065762</ele>
        <time>2021-11-15T21:49:35.670Z</time>
      </trkpt>
      <trkpt lat="47.443729" lon="7.759804">
        <ele>404.641848</ele>
        <time>2021-11-15T21:49:43.279Z</time>
      </trkpt>
      <trkpt lat="47.443616" lon="7.759700">
        <ele>403.470596</ele>
        <time>2021-11-15T21:49:44.898Z</time>
      </trkpt>
      <trkpt lat="47.443553" lon="7.759787">
        <ele>402.712035</ele>
        <time>2021-11-15T21:49:45.681Z</time>
      </trkpt>
      <trkpt lat="47.443311" lon="7.760032">
        <ele>400.131181</ele>
        <time>2021-11-15T21:49:48.328Z</time>
      </trkpt>
      <trkpt lat="47.443255" lon="7.760116">
        <ele>399.429223</ele>
        <time>2021-11-15T21:49:49.063Z</time>
      </trkpt>
      <trkpt lat="47.443200" lon="7.760059">
        <ele>398.838197</ele>
        <time>2021-11-15T21:49:49.718Z</time>
      </trkpt>
      <trkpt lat="47.443041" lon="7.759900">
        <ele>398.575797</ele>
        <time>2021-11-15T21:49:51.440Z</time>
      </trkpt>
      <trkpt lat="47.443002" lon="7.759874">
        <ele>398.615842</ele>
        <time>2021-11-15T21:49:51.844Z</time>
      </trkpt>
      <trkpt lat="47.442943" lon="7.759844">
        <ele>398.674243</ele>
        <time>2021-11-15T21:49:52.425Z</time>
      </trkpt>
      <trkpt lat="47.442870" lon="7.759812">
        <ele>398.745514</ele>
        <time>2021-11-15T21:49:53.211Z</time>
      </trkpt>
      <trkpt lat="47.442760" lon="7.759773">
        <ele>398.851398</ele>
        <time>2021-11-15T21:49:54.263Z</time>
      </trkpt>
      <trkpt lat="47.441986" lon="7.759617">
        <ele>399.582598</ele>
        <time>2021-11-15T21:50:03.988Z</time>
      </trkpt>
      <trkpt lat="47.441551" lon="7.759290">
        <ele>400.039383</ele>
        <time>2021-11-15T21:50:22.562Z</time>
      </trkpt>
      <trkpt lat="47.441501" lon="7.759205">
        <ele>400.110701</ele>
        <time>2021-11-15T21:50:26.731Z</time>
      </trkpt>
      <trkpt lat="47.441419" lon="7.759058">
        <ele>401.957287</ele>
        <time>2021-11-15T21:50:33.477Z</time>
      </trkpt>
      <trkpt lat="47.441385" lon="7.758985">
        <ele>402.901162</ele>
        <time>2021-11-15T21:50:36.778Z</time>
      </trkpt>
      <trkpt lat="47.441226" lon="7.758702">
        <ele>406.819017</ele>
        <time>2021-11-15T21:50:54.494Z</time>
      </trkpt>
      <trkpt lat="47.440922" lon="7.758380">
        <ele>412.707017</ele>
        <time>2021-11-15T21:51:23.183Z</time>
      </trkpt>
      <trkpt lat="47.440672" lon="7.758163">
        <ele>417.271466</ele>
        <time>2021-11-15T21:51:48.511Z</time>
      </trkpt>
      <trkpt lat="47.440212" lon="7.757840">
        <ele>425.289466</ele>
        <time>2021-11-15T21:52:35.255Z</time>
      </trkpt>
      <trkpt lat="47.439884" lon="7.757706">
        <ele>430.696546</ele>
        <time>2021-11-15T21:53:08.119Z</time>
      </trkpt>
      <trkpt lat="47.439347" lon="7.757578">
        <ele>439.451797</ele>
        <time>2021-11-15T21:53:56.985Z</time>
      </trkpt>
      <trkpt lat="47.438766" lon="7.757443">
        <ele>448.918458</ele>
        <time>2021-11-15T21:54:45.010Z</time>
      </trkpt>
      <trkpt lat="47.437931" lon="7.757166">
        <ele>460.271888</ele>
        <time>2021-11-15T21:55:40.205Z</time>
      </trkpt>
      <trkpt lat="47.437319" lon="7.756811">
        <ele>466.019783</ele>
        <time>2021-11-15T21:56:12.136Z</time>
      </trkpt>
      <trkpt lat="47.436505" lon="7.756529">
        <ele>473.256257</ele>
        <time>2021-11-15T21:56:48.126Z</time>
      </trkpt>
      <trkpt lat="47.436069" lon="7.756301">
        <ele>475.894099</ele>
        <time>2021-11-15T21:57:07.315Z</time>
      </trkpt>
      <trkpt lat="47.435521" lon="7.755885">
        <ele>479.407763</ele>
        <time>2021-11-15T21:57:31.096Z</time>
      </trkpt>
      <trkpt lat="47.435322" lon="7.755657">
        <ele>480.843782</ele>
        <time>2021-11-15T21:57:40.463Z</time>
      </trkpt>
      <trkpt lat="47.435162" lon="7.755469">
        <ele>482.009529</ele>
        <time>2021-11-15T21:57:47.436Z</time>
      </trkpt>
      <trkpt lat="47.434847" lon="7.755234">
        <ele>483.611735</ele>
        <time>2021-11-15T21:57:58.944Z</time>
      </trkpt>
      <trkpt lat="47.433995" lon="7.755221">
        <ele>485.375670</ele>
        <time>2021-11-15T21:58:24.039Z</time>
      </trkpt>
      <trkpt lat="47.432260" lon="7.754664">
        <ele>487.160256</ele>
        <time>2021-11-15T21:58:49.377Z</time>
      </trkpt>
      <trkpt lat="47.431813" lon="7.754709">
        <ele>487.188169</ele>
        <time>2021-11-15T21:58:55.996Z</time>
      </trkpt>
      <trkpt lat="47.431550" lon="7.754908">
        <ele>487.206577</ele>
        <time>2021-11-15T21:59:00.208Z</time>
      </trkpt>
      <trkpt lat="47.431353" lon="7.755088">
        <ele>487.592743</ele>
        <time>2021-11-15T21:59:03.351Z</time>
      </trkpt>
      <trkpt lat="47.431261" lon="7.755176">
        <ele>487.944205</ele>
        <time>2021-11-15T21:59:06.015Z</time>
      </trkpt>
      <trkpt lat="47.431137" lon="7.755296">
        <ele>488.419560</ele>
        <time>2021-11-15T21:59:09.218Z</time>
      </trkpt>
      <trkpt lat="47.431019" lon="7.755438">
        <ele>488.907577</ele>
        <time>2021-11-15T21:59:11.362Z</time>
      </trkpt>
      <trkpt lat="47.430932" lon="7.755571">
        <ele>489.308994</ele>
        <time>2021-11-15T21:59:15.807Z</time>
      </trkpt>
      <trkpt lat="47.430651" lon="7.756251">
        <ele>491.037892</ele>
        <time>2021-11-15T21:59:28.255Z</time>
      </trkpt>
      <trkpt lat="47.429823" lon="7.757390">
        <ele>496.198711</ele>
        <time>2021-11-15T22:00:13.610Z</time>
      </trkpt>
      <trkpt lat="47.429479" lon="7.758067">
        <ele>499.709332</ele>
        <time>2021-11-15T22:00:35.351Z</time>
      </trkpt>
      <trkpt lat="47.428620" lon="7.759414">
        <ele>507.344581</ele>
        <time>2021-11-15T22:01:26.339Z</time>
      </trkpt>
      <trkpt lat="47.428453" lon="7.759548">
        <ele>508.495381</ele>
        <time>2021-11-15T22:01:32.668Z</time>
      </trkpt>
      <trkpt lat="47.428359" lon="7.759581">
        <ele>509.080505</ele>
        <time>2021-11-15T22:01:37.449Z</time>
      </trkpt>
      <trkpt lat="47.428259" lon="7.759570">
        <ele>509.687807</ele>
        <time>2021-11-15T22:01:41.356Z</time>
      </trkpt>
      <trkpt lat="47.427740" lon="7.759448">
        <ele>512.870507</ele>
        <time>2021-11-15T22:02:00.670Z</time>
      </trkpt>
      <trkpt lat="47.427468" lon="7.759390">
        <ele>514.534864</ele>
        <time>2021-11-15T22:02:12.039Z</time>
      </trkpt>
      <trkpt lat="47.427229" lon="7.759330">
        <ele>515.881629</ele>
        <time>2021-11-15T22:02:21.767Z</time>
      </trkpt>
      <trkpt lat="47.426765" lon="7.759237">
        <ele>518.405476</ele>
        <time>2021-11-15T22:02:39.074Z</time>
      </trkpt>
      <trkpt lat="47.426393" lon="7.759162">
        <ele>520.429122</ele>
        <time>2021-11-15T22:02:50.946Z</time>
      </trkpt>
      <trkpt lat="47.426062" lon="7.759081">
        <ele>522.237497</ele>
        <time>2021-11-15T22:02:59.918Z</time>
      </trkpt>
      <trkpt lat="47.425993" lon="7.759039">
        <ele>522.639707</ele>
        <time>2021-11-15T22:03:04.465Z</time>
      </trkpt>
      <trkpt lat="47.425928" lon="7.758994">
        <ele>523.026583</ele>
        <time>2021-11-15T22:03:08.827Z</time>
      </trkpt>
      <trkpt lat="47.425825" lon="7.758936">
        <ele>523.620675</ele>
        <time>2021-11-15T22:03:11.386Z</time>
      </trkpt>
      <trkpt lat="47.425722" lon="7.758880">
        <ele>524.212211</ele>
        <time>2021-11-15T22:03:13.975Z</time>
      </trkpt>
      <trkpt lat="47.425435" lon="7.758763">
        <ele>526.218267</ele>
        <time>2021-11-15T22:03:25.393Z</time>
      </trkpt>
      <trkpt lat="47.425349" lon="7.758735">
        <ele>526.848720</ele>
        <time>2021-11-15T22:03:31.935Z</time>
      </trkpt>
      <trkpt lat="47.425276" lon="7.758756">
        <ele>527.381150</ele>
        <time>2021-11-15T22:03:36.815Z</time>
      </trkpt>
      <trkpt lat="47.425222" lon="7.758764">
        <ele>527.769686</ele>
        <time>2021-11-15T22:03:39.579Z</time>
      </trkpt>
      <trkpt lat="47.425168" lon="7.758755">
        <ele>528.158735</ele>
        <time>2021-11-15T22:03:41.233Z</time>
      </trkpt>
      <trkpt lat="47.425120" lon="7.758740">
        <ele>528.509974</ele>
        <time>2021-11-15T22:03:41.733Z</time>
      </trkpt>
      <trkpt lat="47.424813" lon="7.758605">
        <ele>530.803065</ele>
        <time>2021-11-15T22:03:57.835Z</time>
      </trkpt>
      <trkpt lat="47.424709" lon="7.758492">
        <ele>531.727154</ele>
        <time>2021-11-15T22:03:59.410Z</time>
      </trkpt>
      <trkpt lat="47.424640" lon="7.758687">
        <ele>532.793045</ele>
        <time>2021-11-15T22:04:11.444Z</time>
      </trkpt>
      <trkpt lat="47.424459" lon="7.759331">
        <ele>536.170805</ele>
        <time>2021-11-15T22:04:28.863Z</time>
      </trkpt>
      <trkpt lat="47.424371" lon="7.759412">
        <ele>536.912994</ele>
        <time>2021-11-15T22:04:30.241Z</time>
      </trkpt>
      <trkpt lat="47.424340" lon="7.759418">
        <ele>537.136825</ele>
        <time>2021-11-15T22:04:33.589Z</time>
      </trkpt>
      <trkpt lat="47.424304" lon="7.759390">
        <ele>537.428063</ele>
        <time>2021-11-15T22:04:36.605Z</time>
      </trkpt>
      <trkpt lat="47.423865" lon="7.758543">
        <ele>542.095828</ele>
        <time>2021-11-15T22:05:09.650Z</time>
      </trkpt>
      <trkpt lat="47.423379" lon="7.757835">
        <ele>546.504256</ele>
        <time>2021-11-15T22:05:39.136Z</time>
      </trkpt>
      <trkpt lat="47.423220" lon="7.757667">
        <ele>547.766926</ele>
        <time>2021-11-15T22:05:45.230Z</time>
      </trkpt>
      <trkpt lat="47.423125" lon="7.757576">
        <ele>548.498276</ele>
        <time>2021-11-15T22:05:48.507Z</time>
      </trkpt>
      <trkpt lat="47.423014" lon="7.757492">
        <ele>549.229701</ele>
        <time>2021-11-15T22:05:51.648Z</time>
      </trkpt>
      <trkpt lat="47.422936" lon="7.757446">
        <ele>549.583293</ele>
        <time>2021-11-15T22:05:54.329Z</time>
      </trkpt>
      <trkpt lat="47.422839" lon="7.757410">
        <ele>550.004385</ele>
        <time>2021-11-15T22:05:57.372Z</time>
      </trkpt>
      <trkpt lat="47.422698" lon="7.757394">
        <ele>550.599805</ele>
        <time>2021-11-15T22:06:00.856Z</time>
      </trkpt>
      <trkpt lat="47.422229" lon="7.757351">
        <ele>552.578299</ele>
        <time>2021-11-15T22:06:15.632Z</time>
      </trkpt>
      <trkpt lat="47.421957" lon="7.757327">
        <ele>553.725578</ele>
        <time>2021-11-15T22:06:23.911Z</time>
      </trkpt>
      <trkpt lat="47.421843" lon="7.757289">
        <ele>554.217625</ele>
        <time>2021-11-15T22:06:28.095Z</time>
      </trkpt>
      <trkpt lat="47.421747" lon="7.757231">
        <ele>554.654294</ele>
        <time>2021-11-15T22:06:31.970Z</time>
      </trkpt>
      <trkpt lat="47.421548" lon="7.757099">
        <ele>555.572687</ele>
        <time>2021-11-15T22:06:38.291Z</time>
      </trkpt>
      <trkpt lat="47.421290" lon="7.756852">
        <ele>556.889386</ele>
        <time>2021-11-15T22:06:48.141Z</time>
      </trkpt>
      <trkpt lat="47.421222" lon="7.756747">
        <ele>557.349172</ele>
        <time>2021-11-15T22:06:51.394Z</time>
      </trkpt>
      <trkpt lat="47.421138" lon="7.756625">
        <ele>557.899790</ele>
        <time>2021-11-15T22:06:55.682Z</time>
      </trkpt>
      <trkpt lat="47.420834" lon="7.756097">
        <ele>560.092943</ele>
        <time>2021-11-15T22:07:10.666Z</time>
      </trkpt>
      <trkpt lat="47.420579" lon="7.755594">
        <ele>562.081227</ele>
        <time>2021-11-15T22:07:25.026Z</time>
      </trkpt>
      <trkpt lat="47.420480" lon="7.755388">
        <ele>562.880543</ele>
        <time>2021-11-15T22:07:31.281Z</time>
      </trkpt>
      <trkpt lat="47.420262" lon="7.754930">
        <ele>564.651979</ele>
        <time>2021-11-15T22:07:44.493Z</time>
      </trkpt>
      <trkpt lat="47.419657" lon="7.753538">
        <ele>570.407874</ele>
        <time>2021-11-15T22:08:22.394Z</time>
      </trkpt>
      <trkpt lat="47.419232" lon="7.753026">
        <ele>573.249562</ele>
        <time>2021-11-15T22:08:43.243Z</time>
      </trkpt>
      <trkpt lat="47.418773" lon="7.752612">
        <ele>576.134634</ele>
        <time>2021-11-15T22:09:03.070Z</time>
      </trkpt>
      <trkpt lat="47.418683" lon="7.752443">
        <ele>576.933942</ele>
        <time>2021-11-15T22:09:08.625Z</time>
      </trkpt>
      <trkpt lat="47.418665" lon="7.752194">
        <ele>577.864641</ele>
        <time>2021-11-15T22:09:14.792Z</time>
      </trkpt>
      <trkpt lat="47.418685" lon="7.751883">
        <ele>579.025711</ele>
        <time>2021-11-15T22:09:22.740Z</time>
      </trkpt>
      <trkpt lat="47.418629" lon="7.751526">
        <ele>580.387723</ele>
        <time>2021-11-15T22:09:32.096Z</time>
      </trkpt>
      <trkpt lat="47.418425" lon="7.750815">
        <ele>583.257986</ele>
        <time>2021-11-15T22:09:51.437Z</time>
      </trkpt>
      <trkpt lat="47.418447" lon="7.750223">
        <ele>585.120423</ele>
        <time>2021-11-15T22:10:06.385Z</time>
      </trkpt>
      <trkpt lat="47.418231" lon="7.748818">
        <ele>588.936524</ele>
        <time>2021-11-15T22:10:36.969Z</time>
      </trkpt>
      <trkpt lat="47.418073" lon="7.746158">
        <ele>594.345867</ele>
        <time>2021-11-15T22:11:23.187Z</time>
      </trkpt>
      <trkpt lat="47.418029" lon="7.745535">
        <ele>595.417126</ele>
        <time>2021-11-15T22:11:33.378Z</time>
      </trkpt>
      <trkpt lat="47.417933" lon="7.744575">
        <ele>596.617265</ele>
        <time>2021-11-15T22:11:48.352Z</time>
      </trkpt>
      <trkpt lat="47.417833" lon="7.743809">
        <ele>597.447169</ele>
        <time>2021-11-15T22:11:59.511Z</time>
      </trkpt>
      <trkpt lat="47.417780" lon="7.743449">
        <ele>597.839100</ele>
        <time>2021-11-15T22:12:04.673Z</time>
      </trkpt>
      <trkpt lat="47.417748" lon="7.743354">
        <ele>597.951991</ele>
        <time>2021-11-15T22:12:06.050Z</time>
      </trkpt>
      <trkpt lat="47.417625" lon="7.743018">
        <ele>598.358388</ele>
        <time>2021-11-15T22:12:11.222Z</time>
      </trkpt>
      <trkpt lat="47.417227" lon="7.742401">
        <ele>598.971788</ele>
        <time>2021-11-15T22:12:22.573Z</time>
      </trkpt>
      <trkpt lat="47.416369" lon="7.741422">
        <ele>599.808379</ele>
        <time>2021-11-15T22:12:41.558Z</time>
      </trkpt>
      <trkpt lat="47.415396" lon="7.739746">
        <ele>600.639583</ele>
        <time>2021-11-15T22:13:06.948Z</time>
      </trkpt>
      <trkpt lat="47.415295" lon="7.739537">
        <ele>600.724880</ele>
        <time>2021-11-15T22:13:09.751Z</time>
      </trkpt>
      <trkpt lat="47.415497" lon="7.739267">
        <ele>600.858561</ele>
        <time>2021-11-15T22:13:18.160Z</time>
      </trkpt>
      <trkpt lat="47.415865" lon="7.738510">
        <ele>600.535154</ele>
        <time>2021-11-15T22:13:36.544Z</time>
      </trkpt>
      <trkpt lat="47.416109" lon="7.737885">
        <ele>600.046730</ele>
        <time>2021-11-15T22:13:49.093Z</time>
      </trkpt>
      <trkpt lat="47.416486" lon="7.737163">
        <ele>599.429421</ele>
        <time>2021-11-15T22:14:04.067Z</time>
      </trkpt>
      <trkpt lat="47.416676" lon="7.737017">
        <ele>599.215199</ele>
        <time>2021-11-15T22:14:08.828Z</time>
      </trkpt>
      <trkpt lat="47.416984" lon="7.736846">
        <ele>597.775263</ele>
        <time>2021-11-15T22:14:15.899Z</time>
      </trkpt>
      <trkpt lat="47.417518" lon="7.736510">
        <ele>594.844957</ele>
        <time>2021-11-15T22:14:27.762Z</time>
      </trkpt>
      <trkpt lat="47.417807" lon="7.736460">
        <ele>593.375860</ele>
        <time>2021-11-15T22:14:33.417Z</time>
      </trkpt>
      <trkpt lat="47.418779" lon="7.736523">
        <ele>587.012082</ele>
        <time>2021-11-15T22:14:51.482Z</time>
      </trkpt>
      <trkpt lat="47.419802" lon="7.736343">
        <ele>577.137750</ele>
        <time>2021-11-15T22:15:09.741Z</time>
      </trkpt>
      <trkpt lat="47.420861" lon="7.736378">
        <ele>565.551795</ele>
        <time>2021-11-15T22:15:27.872Z</time>
      </trkpt>
      <trkpt lat="47.421296" lon="7.736285">
        <ele>560.307812</ele>
        <time>2021-11-15T22:15:35.296Z</time>
      </trkpt>
      <trkpt lat="47.421568" lon="7.736186">
        <ele>556.965638</ele>
        <time>2021-11-15T22:15:40.123Z</time>
      </trkpt>
      <trkpt lat="47.421691" lon="7.736142">
        <ele>555.455758</ele>
        <time>2021-11-15T22:15:42.271Z</time>
      </trkpt>
      <trkpt lat="47.421704" lon="7.736083">
        <ele>554.954865</ele>
        <time>2021-11-15T22:15:43.008Z</time>
      </trkpt>
      <trkpt lat="47.421784" lon="7.735744">
        <ele>552.056628</ele>
        <time>2021-11-15T22:15:47.215Z</time>
      </trkpt>
      <trkpt lat="47.421844" lon="7.735301">
        <ele>548.977917</ele>
        <time>2021-11-15T22:15:52.588Z</time>
      </trkpt>
      <trkpt lat="47.422293" lon="7.735294">
        <ele>544.645455</ele>
        <time>2021-11-15T22:16:31.683Z</time>
      </trkpt>
      <trkpt lat="47.422388" lon="7.735288">
        <ele>543.728001</ele>
        <time>2021-11-15T22:16:40.129Z</time>
      </trkpt>
      <trkpt lat="47.422500" lon="7.735210">
        <ele>542.533401</ele>
        <time>2021-11-15T22:16:51.064Z</time>
      </trkpt>
      <trkpt lat="47.422671" lon="7.735019">
        <ele>540.465338</ele>
        <time>2021-11-15T22:17:10.130Z</time>
      </trkpt>
      <trkpt lat="47.422710" lon="7.734975">
        <ele>539.991943</ele>
        <time>2021-11-15T22:17:14.505Z</time>
      </trkpt>
      <trkpt lat="47.423061" lon="7.734488">
        <ele>535.346884</ele>
        <time>2021-11-15T22:17:58.651Z</time>
      </trkpt>
      <trkpt lat="47.423099" lon="7.734398">
        <ele>534.654342</ele>
        <time>2021-11-15T22:18:05.127Z</time>
      </trkpt>
      <trkpt lat="47.423325" lon="7.734550">
        <ele>532.360360</ele>
        <time>2021-11-15T22:18:27.259Z</time>
      </trkpt>
      <trkpt lat="47.424230" lon="7.735230">
        <ele>523.128735</ele>
        <time>2021-11-15T22:19:58.660Z</time>
      </trkpt>
      <trkpt lat="47.424417" lon="7.735484">
        <ele>520.819352</ele>
        <time>2021-11-15T22:20:21.129Z</time>
      </trkpt>
      <trkpt lat="47.424571" lon="7.735725">
        <ele>518.779935</ele>
        <time>2021-11-15T22:20:40.641Z</time>
      </trkpt>
      <trkpt lat="47.424739" lon="7.735943">
        <ele>516.813532</ele>
        <time>2021-11-15T22:21:00.937Z</time>
      </trkpt>
      <trkpt lat="47.425774" lon="7.736576">
        <ele>507.360771</ele>
        <time>2021-11-15T22:22:40.545Z</time>
      </trkpt>
      <trkpt lat="47.425997" lon="7.736650">
        <ele>505.431987</ele>
        <time>2021-11-15T22:23:01.210Z</time>
      </trkpt>
      <trkpt lat="47.427900" lon="7.737015">
        <ele>494.973782</ele>
        <time>2021-11-15T22:26:04.989Z</time>
      </trkpt>
      <trkpt lat="47.428115" lon="7.736897">
        <ele>493.877576</ele>
        <time>2021-11-15T22:26:29.380Z</time>
      </trkpt>
      <trkpt lat="47.428150" lon="7.736813">
        <ele>493.644768</ele>
        <time>2021-11-15T22:26:35.770Z</time>
      </trkpt>
      <trkpt lat="47.428190" lon="7.736356">
        <ele>492.557329</ele>
        <time>2021-11-15T22:27:09.458Z</time>
      </trkpt>
      <trkpt lat="47.428103" lon="7.735428">
        <ele>490.346462</ele>
        <time>2021-11-15T22:28:17.591Z</time>
      </trkpt>
      <trkpt lat="47.428191" lon="7.734968">
        <ele>489.218365</ele>
        <time>2021-11-15T22:28:49.216Z</time>
      </trkpt>
      <trkpt lat="47.428615" lon="7.733879">
        <ele>483.150925</ele>
        <time>2021-11-15T22:30:09.567Z</time>
      </trkpt>
      <trkpt lat="47.428833" lon="7.733579">
        <ele>479.732290</ele>
        <time>2021-11-15T22:30:36.052Z</time>
      </trkpt>
      <trkpt lat="47.429069" lon="7.733252">
        <ele>476.019573</ele>
        <time>2021-11-15T22:31:04.184Z</time>
      </trkpt>
      <trkpt lat="47.429362" lon="7.732853">
        <ele>471.447040</ele>
        <time>2021-11-15T22:31:38.075Z</time>
      </trkpt>
      <trkpt lat="47.429959" lon="7.732498">
        <ele>462.776396</ele>
        <time>2021-11-15T22:32:30.675Z</time>
      </trkpt>
      <trkpt lat="47.430224" lon="7.731858">
        <ele>454.370861</ele>
        <time>2021-11-15T22:33:11.781Z</time>
      </trkpt>
      <trkpt lat="47.430584" lon="7.731172">
        <ele>444.645295</ele>
        <time>2021-11-15T22:33:59.586Z</time>
      </trkpt>
      <trkpt lat="47.430842" lon="7.730733">
        <ele>438.131148</ele>
        <time>2021-11-15T22:34:32.112Z</time>
      </trkpt>
      <trkpt lat="47.430854" lon="7.730687">
        <ele>437.578882</ele>
        <time>2021-11-15T22:34:34.912Z</time>
      </trkpt>
      <trkpt lat="47.430965" lon="7.730504">
        <ele>435.656757</ele>
        <time>2021-11-15T22:34:48.823Z</time>
      </trkpt>
      <trkpt lat="47.431272" lon="7.730133">
        <ele>431.408757</ele>
        <time>2021-11-15T22:35:22.327Z</time>
      </trkpt>
      <trkpt lat="47.431302" lon="7.730041">
        <ele>430.668613</ele>
        <time>2021-11-15T22:35:28.023Z</time>
      </trkpt>
      <trkpt lat="47.431421" lon="7.730117">
        <ele>429.279886</ele>
        <time>2021-11-15T22:35:29.110Z</time>
      </trkpt>
      <trkpt lat="47.431765" lon="7.730246">
        <ele>425.477911</ele>
        <time>2021-11-15T22:35:32.134Z</time>
      </trkpt>
      <trkpt lat="47.432069" lon="7.730253">
        <ele>422.220786</ele>
        <time>2021-11-15T22:35:34.780Z</time>
      </trkpt>
      <trkpt lat="47.433187" lon="7.730043">
        <ele>415.273690</ele>
        <time>2021-11-15T22:35:45.302Z</time>
      </trkpt>
      <trkpt lat="47.433636" lon="7.729886">
        <ele>413.594535</ele>
        <time>2021-11-15T22:35:50.159Z</time>
      </trkpt>
      <trkpt lat="47.434474" lon="7.729332">
        <ele>410.813999</ele>
        <time>2021-11-15T22:36:00.187Z</time>
      </trkpt>
      <trkpt lat="47.436101" lon="7.727930">
        <ele>408.220049</ele>
        <time>2021-11-15T22:36:21.248Z</time>
      </trkpt>
      <trkpt lat="47.436508" lon="7.727625">
        <ele>408.338360</ele>
        <time>2021-11-15T22:36:27.613Z</time>
      </trkpt>
      <trkpt lat="47.436769" lon="7.727452">
        <ele>408.412524</ele>
        <time>2021-11-15T22:36:32.198Z</time>
      </trkpt>
      <trkpt lat="47.437140" lon="7.727168">
        <ele>408.520848</ele>
        <time>2021-11-15T22:36:40.864Z</time>
      </trkpt>
      <trkpt lat="47.437400" lon="7.726969">
        <ele>408.558401</ele>
        <time>2021-11-15T22:36:48.901Z</time>
      </trkpt>
      <trkpt lat="47.437559" lon="7.727278">
        <ele>408.398809</ele>
        <time>2021-11-15T22:36:55.813Z</time>
      </trkpt>
      <trkpt lat="47.438029" lon="7.727947">
        <ele>408.002322</ele>
        <time>2021-11-15T22:37:05.986Z</time>
      </trkpt>
      <trkpt lat="47.438277" lon="7.728199">
        <ele>407.819445</ele>
        <time>2021-11-15T22:37:09.337Z</time>
      </trkpt>
      <trkpt lat="47.438420" lon="7.728330">
        <ele>407.717212</ele>
        <time>2021-11-15T22:37:12.835Z</time>
      </trkpt>
      <trkpt lat="47.438560" lon="7.728448">
        <ele>407.619278</ele>
        <time>2021-11-15T22:37:14.379Z</time>
      </trkpt>
      <trkpt lat="47.438996" lon="7.728816">
        <ele>405.657195</ele>
        <time>2021-11-15T22:37:19.594Z</time>
      </trkpt>
      <trkpt lat="47.440436" lon="7.730051">
        <ele>395.535491</ele>
        <time>2021-11-15T22:37:34.393Z</time>
      </trkpt>
      <trkpt lat="47.440666" lon="7.730243">
        <ele>394.387250</ele>
        <time>2021-11-15T22:37:36.797Z</time>
      </trkpt>
      <trkpt lat="47.441594" lon="7.731080">
        <ele>389.661574</ele>
        <time>2021-11-15T22:37:47.413Z</time>
      </trkpt>
      <trkpt lat="47.441706" lon="7.731181">
        <ele>389.091262</ele>
        <time>2021-11-15T22:37:48.906Z</time>
      </trkpt>
      <trkpt lat="47.442994" lon="7.732397">
        <ele>385.824031</ele>
        <time>2021-11-15T22:38:06.369Z</time>
      </trkpt>
      <trkpt lat="47.443020" lon="7.732425">
        <ele>385.763411</ele>
        <time>2021-11-15T22:38:06.636Z</time>
      </trkpt>
      <trkpt lat="47.443230" lon="7.732639">
        <ele>385.282738</ele>
        <time>2021-11-15T22:38:09.781Z</time>
      </trkpt>
      <trkpt lat="47.443386" lon="7.732819">
        <ele>384.899106</ele>
        <time>2021-11-15T22:38:11.852Z</time>
      </trkpt>
      <trkpt lat="47.443761" lon="7.733253">
        <ele>383.912883</ele>
        <time>2021-11-15T22:38:17.127Z</time>
      </trkpt>
      <trkpt lat="47.443863" lon="7.733374">
        <ele>383.642062</ele>
        <time>2021-11-15T22:38:18.520Z</time>
      </trkpt>
      <trkpt lat="47.443910" lon="7.733430">
        <ele>383.517057</ele>
        <time>2021-11-15T22:38:19.102Z</time>
      </trkpt>
      <trkpt lat="47.444242" lon="7.733828">
        <ele>382.631910</ele>
        <time>2021-11-15T22:38:23.734Z</time>
      </trkpt>
      <trkpt lat="47.444384" lon="7.733998">
        <ele>382.253526</ele>
        <time>2021-11-15T22:38:25.773Z</time>
      </trkpt>
      <trkpt lat="47.444690" lon="7.734364">
        <ele>381.438433</ele>
        <time>2021-11-15T22:38:30.203Z</time>
      </trkpt>
      <trkpt lat="47.444778" lon="7.734464">
        <ele>381.204162</ele>
        <time>2021-11-15T22:38:31.493Z</time>
      </trkpt>
      <trkpt lat="47.444952" lon="7.734628">
        <ele>380.754461</ele>
        <time>2021-11-15T22:38:33.695Z</time>
      </trkpt>
      <trkpt lat="47.445206" lon="7.734772">
        <ele>380.161606</ele>
        <time>2021-11-15T22:38:36.629Z</time>
      </trkpt>
      <trkpt lat="47.445351" lon="7.734812">
        <ele>379.840144</ele>
        <time>2021-11-15T22:38:38.167Z</time>
      </trkpt>
      <trkpt lat="47.445493" lon="7.734890">
        <ele>379.510009</ele>
        <time>2021-11-15T22:38:39.823Z</time>
      </trkpt>
      <trkpt lat="47.445550" lon="7.734931">
        <ele>379.371866</ele>
        <time>2021-11-15T22:38:40.506Z</time>
      </trkpt>
      <trkpt lat="47.445610" lon="7.734982">
        <ele>379.221038</ele>
        <time>2021-11-15T22:38:41.220Z</time>
      </trkpt>
      <trkpt lat="47.445804" lon="7.735171">
        <ele>378.714720</ele>
        <time>2021-11-15T22:38:43.743Z</time>
      </trkpt>
      <trkpt lat="47.446093" lon="7.735404">
        <ele>377.997342</ele>
        <time>2021-11-15T22:38:47.280Z</time>
      </trkpt>
      <trkpt lat="47.446470" lon="7.735676">
        <ele>377.116709</ele>
        <time>2021-11-15T22:38:51.823Z</time>
      </trkpt>
      <trkpt lat="47.447048" lon="7.735793">
        <ele>375.992485</ele>
        <time>2021-11-15T22:38:58.296Z</time>
      </trkpt>
      <trkpt lat="47.447629" lon="7.735983">
        <ele>374.845815</ele>
        <time>2021-11-15T22:39:04.874Z</time>
      </trkpt>
      <trkpt lat="47.447927" lon="7.736077">
        <ele>374.258632</ele>
        <time>2021-11-15T22:39:08.251Z</time>
      </trkpt>
      <trkpt lat="47.448235" lon="7.736115">
        <ele>373.700318</ele>
        <time>2021-11-15T22:39:11.767Z</time>
      </trkpt>
      <trkpt lat="47.448379" lon="7.736094">
        <ele>373.464072</ele>
        <time>2021-11-15T22:39:13.283Z</time>
      </trkpt>
      <trkpt lat="47.448554" lon="7.736059">
        <ele>373.175752</ele>
        <time>2021-11-15T22:39:15.419Z</time>
      </trkpt>
      <trkpt lat="47.448658" lon="7.736045">
        <ele>373.005252</ele>
        <time>2021-11-15T22:39:16.511Z</time>
      </trkpt>
      <trkpt lat="47.448771" lon="7.736054">
        <ele>372.820492</ele>
        <time>2021-11-15T22:39:17.772Z</time>
      </trkpt>
      <trkpt lat="47.448896" lon="7.736079">
        <ele>372.614550</ele>
        <time>2021-11-15T22:39:19.315Z</time>
      </trkpt>
      <trkpt lat="47.449072" lon="7.736131">
        <ele>372.321519</ele>
        <time>2021-11-15T22:39:21.233Z</time>
      </trkpt>
      <trkpt lat="47.449300" lon="7.736166">
        <ele>371.947269</ele>
        <time>2021-11-15T22:39:24.125Z</time>
      </trkpt>
      <trkpt lat="47.449358" lon="7.736158">
        <ele>371.852163</ele>
        <time>2021-11-15T22:39:24.738Z</time>
      </trkpt>
      <trkpt lat="47.449411" lon="7.736143">
        <ele>371.764061</ele>
        <time>2021-11-15T22:39:25.286Z</time>
      </trkpt>
      <trkpt lat="47.449636" lon="7.736014">
        <ele>371.370065</ele>
        <time>2021-11-15T22:39:28.348Z</time>
      </trkpt>
      <trkpt lat="47.449876" lon="7.735764">
        <ele>370.904755</ele>
        <time>2021-11-15T22:39:31.679Z</time>
      </trkpt>
      <trkpt lat="47.449999" lon="7.735674">
        <ele>370.720015</ele>
        <time>2021-11-15T22:39:33.203Z</time>
      </trkpt>
      <trkpt lat="47.450032" lon="7.735659">
        <ele>370.673540</ele>
        <time>2021-11-15T22:39:33.554Z</time>
      </trkpt>
      <trkpt lat="47.450096" lon="7.735633">
        <ele>370.584193</ele>
        <time>2021-11-15T22:39:34.294Z</time>
      </trkpt>
      <trkpt lat="47.450162" lon="7.735630">
        <ele>370.495304</ele>
        <time>2021-11-15T22:39:35.122Z</time>
      </trkpt>
      <trkpt lat="47.450235" lon="7.735644">
        <ele>370.396211</ele>
        <time>2021-11-15T22:39:36.007Z</time>
      </trkpt>
      <trkpt lat="47.450479" lon="7.735840">
        <ele>370.022414</ele>
        <time>2021-11-15T22:39:39.147Z</time>
      </trkpt>
      <trkpt lat="47.450546" lon="7.735968">
        <ele>369.875065</ele>
        <time>2021-11-15T22:39:40.510Z</time>
      </trkpt>
      <trkpt lat="47.450604" lon="7.736062">
        <ele>369.759228</ele>
        <time>2021-11-15T22:39:41.495Z</time>
      </trkpt>
      <trkpt lat="47.450657" lon="7.736137">
        <ele>369.660477</ele>
        <time>2021-11-15T22:39:42.270Z</time>
      </trkpt>
      <trkpt lat="47.450802" lon="7.736283">
        <ele>369.424331</ele>
        <time>2021-11-15T22:39:44.425Z</time>
      </trkpt>
      <trkpt lat="47.450937" lon="7.736418">
        <ele>369.204948</ele>
        <time>2021-11-15T22:39:46.500Z</time>
      </trkpt>
      <trkpt lat="47.451089" lon="7.736610">
        <ele>368.935845</ele>
        <time>2021-11-15T22:39:48.855Z</time>
      </trkpt>
      <trkpt lat="47.451187" lon="7.736763">
        <ele>368.744007</ele>
        <time>2021-11-15T22:39:50.621Z</time>
      </trkpt>
      <trkpt lat="47.451252" lon="7.736833">
        <ele>368.635762</ele>
        <time>2021-11-15T22:39:51.539Z</time>
      </trkpt>
      <trkpt lat="47.451333" lon="7.736889">
        <ele>368.512475</ele>
        <time>2021-11-15T22:39:52.582Z</time>
      </trkpt>
      <trkpt lat="47.451595" lon="7.736972">
        <ele>368.120617</ele>
        <time>2021-11-15T22:39:55.787Z</time>
      </trkpt>
      <trkpt lat="47.451812" lon="7.737022">
        <ele>367.799435</ele>
        <time>2021-11-15T22:39:58.378Z</time>
      </trkpt>
      <trkpt lat="47.451885" lon="7.737043">
        <ele>367.690674</ele>
        <time>2021-11-15T22:39:59.273Z</time>
      </trkpt>
      <trkpt lat="47.452015" lon="7.736899">
        <ele>367.453135</ele>
        <time>2021-11-15T22:40:01.096Z</time>
      </trkpt>
      <trkpt lat="47.452271" lon="7.736620">
        <ele>366.988061</ele>
        <time>2021-11-15T22:40:04.788Z</time>
      </trkpt>
      <trkpt lat="47.452433" lon="7.736548">
        <ele>366.740675</ele>
        <time>2021-11-15T22:40:06.744Z</time>
      </trkpt>
      <trkpt lat="47.452718" lon="7.736396">
        <ele>366.297597</ele>
        <time>2021-11-15T22:40:10.165Z</time>
      </trkpt>
      <trkpt lat="47.453006" lon="7.736239">
        <ele>365.831948</ele>
        <time>2021-11-15T22:40:13.638Z</time>
      </trkpt>
      <trkpt lat="47.453622" lon="7.735950">
        <ele>364.660753</ele>
        <time>2021-11-15T22:40:20.823Z</time>
      </trkpt>
      <trkpt lat="47.453883" lon="7.735834">
        <ele>364.166850</ele>
        <time>2021-11-15T22:40:23.824Z</time>
      </trkpt>
      <trkpt lat="47.454308" lon="7.735755">
        <ele>363.390571</ele>
        <time>2021-11-15T22:40:28.559Z</time>
      </trkpt>
      <trkpt lat="47.454885" lon="7.735630">
        <ele>362.377000</ele>
        <time>2021-11-15T22:40:35.113Z</time>
      </trkpt>
      <trkpt lat="47.455429" lon="7.735582">
        <ele>361.520714</ele>
        <time>2021-11-15T22:40:41.476Z</time>
      </trkpt>
      <trkpt lat="47.455549" lon="7.735588">
        <ele>361.332056</ele>
        <time>2021-11-15T22:40:42.885Z</time>
      </trkpt>
      <trkpt lat="47.455615" lon="7.735594">
        <ele>361.228157</ele>
        <time>2021-11-15T22:40:43.698Z</time>
      </trkpt>
      <trkpt lat="47.456176" lon="7.735679">
        <ele>360.342066</ele>
        <time>2021-11-15T22:40:50.103Z</time>
      </trkpt>
      <trkpt lat="47.456690" lon="7.735740">
        <ele>359.477859</ele>
        <time>2021-11-15T22:40:55.899Z</time>
      </trkpt>
      <trkpt lat="47.457063" lon="7.735820">
        <ele>358.779483</ele>
        <time>2021-11-15T22:41:00.153Z</time>
      </trkpt>
      <trkpt lat="47.457484" lon="7.735879">
        <ele>357.995901</ele>
        <time>2021-11-15T22:41:04.874Z</time>
      </trkpt>
      <trkpt lat="47.457758" lon="7.735918">
        <ele>357.485850</ele>
        <time>2021-11-15T22:41:07.916Z</time>
      </trkpt>
      <trkpt lat="47.457799" lon="7.735179">
        <ele>356.556894</ele>
        <time>2021-11-15T22:41:13.496Z</time>
      </trkpt>
      <trkpt lat="47.458298" lon="7.735177">
        <ele>355.659412</ele>
        <time>2021-11-15T22:41:18.882Z</time>
      </trkpt>
      <trkpt lat="47.458729" lon="7.735136">
        <ele>354.884168</ele>
        <time>2021-11-15T22:41:23.657Z</time>
      </trkpt>
      <trkpt lat="47.459171" lon="7.734384">
        <ele>353.674869</ele>
        <time>2021-11-15T22:41:31.408Z</time>
      </trkpt>
      <trkpt lat="47.459314" lon="7.734184">
        <ele>353.321594</ele>
        <time>2021-11-15T22:41:33.608Z</time>
      </trkpt>
      <trkpt lat="47.459335" lon="7.734155">
        <ele>353.270113</ele>
        <time>2021-11-15T22:41:33.928Z</time>
      </trkpt>
      <trkpt lat="47.459375" lon="7.734098">
        <ele>353.175987</ele>
        <time>2021-11-15T22:41:34.552Z</time>
      </trkpt>
      <trkpt lat="47.459533" lon="7.733882">
        <ele>352.811389</ele>
        <time>2021-11-15T22:41:36.971Z</time>
      </trkpt>
      <trkpt lat="47.459872" lon="7.733477">
        <ele>352.072930</ele>
        <time>2021-11-15T22:41:41.956Z</time>
      </trkpt>
      <trkpt lat="47.460742" lon="7.733028">
        <ele>350.511470</ele>
        <time>2021-11-15T22:41:52.350Z</time>
      </trkpt>
      <trkpt lat="47.461241" lon="7.732810">
        <ele>349.515212</ele>
        <time>2021-11-15T22:41:58.123Z</time>
      </trkpt>
      <trkpt lat="47.461727" lon="7.732633">
        <ele>348.503465</ele>
        <time>2021-11-15T22:42:03.586Z</time>
      </trkpt>
      <trkpt lat="47.462549" lon="7.732636">
        <ele>346.841863</ele>
        <time>2021-11-15T22:42:12.577Z</time>
      </trkpt>
      <trkpt lat="47.463439" lon="7.732609">
        <ele>344.985600</ele>
        <time>2021-11-15T22:42:22.161Z</time>
      </trkpt>
      <trkpt lat="47.464097" lon="7.732716">
        <ele>343.598293</ele>
        <time>2021-11-15T22:42:29.330Z</time>
      </trkpt>
      <trkpt lat="47.465398" lon="7.732895">
        <ele>341.478869</ele>
        <time>2021-11-15T22:42:44.033Z</time>
      </trkpt>
      <trkpt lat="47.466451" lon="7.733067">
        <ele>340.175474</ele>
        <time>2021-11-15T22:42:56.646Z</time>
      </trkpt>
      <trkpt lat="47.467031" lon="7.733067">
        <ele>339.983361</ele>
        <time>2021-11-15T22:43:04.263Z</time>
      </trkpt>
      <trkpt lat="47.468111" lon="7.733543">
        <ele>339.639081</ele>
        <time>2021-11-15T22:43:21.342Z</time>
      </trkpt>
      <trkpt lat="47.468168" lon="7.733547">
        <ele>339.636160</ele>
        <time>2021-11-15T22:43:21.925Z</time>
      </trkpt>
      <trkpt lat="47.468229" lon="7.733497">
        <ele>339.632591</ele>
        <time>2021-11-15T22:43:23.696Z</time>
      </trkpt>
      <trkpt lat="47.468421" lon="7.733200">
        <ele>339.618371</ele>
        <time>2021-11-15T22:43:27.247Z</time>
      </trkpt>
      <trkpt lat="47.468562" lon="7.733196">
        <ele>339.611152</ele>
        <time>2021-11-15T22:43:29.694Z</time>
      </trkpt>
      <trkpt lat="47.468620" lon="7.733218">
        <ele>339.608087</ele>
        <time>2021-11-15T22:43:31.358Z</time>
      </trkpt>
      <trkpt lat="47.468845" lon="7.733471">
        <ele>339.593620</ele>
        <time>2021-11-15T22:43:35.017Z</time>
      </trkpt>
      <trkpt lat="47.469087" lon="7.733776">
        <ele>339.577347</ele>
        <time>2021-11-15T22:43:39.988Z</time>
      </trkpt>
      <trkpt lat="47.469170" lon="7.733878">
        <ele>339.571823</ele>
        <time>2021-11-15T22:43:42.034Z</time>
      </trkpt>
      <trkpt lat="47.469549" lon="7.734424">
        <ele>339.444859</ele>
        <time>2021-11-15T22:43:49.592Z</time>
      </trkpt>
      <trkpt lat="47.470937" lon="7.735790">
        <ele>338.234133</ele>
        <time>2021-11-15T22:44:10.370Z</time>
      </trkpt>
      <trkpt lat="47.471007" lon="7.735877">
        <ele>338.172809</ele>
        <time>2021-11-15T22:44:11.586Z</time>
      </trkpt>
      <trkpt lat="47.471084" lon="7.736004">
        <ele>338.095456</ele>
        <time>2021-11-15T22:44:12.929Z</time>
      </trkpt>
      <trkpt lat="47.471200" lon="7.736140">
        <ele>337.996176</ele>
        <time>2021-11-15T22:44:14.897Z</time>
      </trkpt>
      <trkpt lat="47.471461" lon="7.736291">
        <ele>337.808195</ele>
        <time>2021-11-15T22:44:18.345Z</time>
      </trkpt>
      <trkpt lat="47.471811" lon="7.736488">
        <ele>337.557010</ele>
        <time>2021-11-15T22:44:22.963Z</time>
      </trkpt>
      <trkpt lat="47.473022" lon="7.737442">
        <ele>337.098959</ele>
        <time>2021-11-15T22:44:41.429Z</time>
      </trkpt>
      <trkpt lat="47.473306" lon="7.737636">
        <ele>337.130479</ele>
        <time>2021-11-15T22:44:46.663Z</time>
      </trkpt>
      <trkpt lat="47.473508" lon="7.737670">
        <ele>337.150964</ele>
        <time>2021-11-15T22:44:50.752Z</time>
      </trkpt>
      <trkpt lat="47.474657" lon="7.737686">
        <ele>336.613952</ele>
        <time>2021-11-15T22:45:08.641Z</time>
      </trkpt>
      <trkpt lat="47.474872" lon="7.737661">
        <ele>336.333337</ele>
        <time>2021-11-15T22:45:11.143Z</time>
      </trkpt>
      <trkpt lat="47.475220" lon="7.737599">
        <ele>335.877256</ele>
        <time>2021-11-15T22:45:15.232Z</time>
      </trkpt>
      <trkpt lat="47.475400" lon="7.737565">
        <ele>335.641143</ele>
        <time>2021-11-15T22:45:17.399Z</time>
      </trkpt>
      <trkpt lat="47.475490" lon="7.737890">
        <ele>335.332255</ele>
        <time>2021-11-15T22:45:21.042Z</time>
      </trkpt>
      <trkpt lat="47.475697" lon="7.738335">
        <ele>334.831784</ele>
        <time>2021-11-15T22:45:26.704Z</time>
      </trkpt>
      <trkpt lat="47.475811" lon="7.738591">
        <ele>334.255454</ele>
        <time>2021-11-15T22:45:29.860Z</time>
      </trkpt>
      <trkpt lat="47.476310" lon="7.738873">
        <ele>332.769739</ele>
        <time>2021-11-15T22:45:37.631Z</time>
      </trkpt>
      <trkpt lat="47.476800" lon="7.739141">
        <ele>331.316717</ele>
        <time>2021-11-15T22:45:45.046Z</time>
      </trkpt>
      <trkpt lat="47.477232" lon="7.739342">
        <ele>330.057144</ele>
        <time>2021-11-15T22:45:52.034Z</time>
      </trkpt>
      <trkpt lat="47.477544" lon="7.739487">
        <ele>329.390496</ele>
        <time>2021-11-15T22:45:57.396Z</time>
      </trkpt>
      <trkpt lat="47.478433" lon="7.739902">
        <ele>327.661538</ele>
        <time>2021-11-15T22:46:12.466Z</time>
      </trkpt>
      <trkpt lat="47.478734" lon="7.740055">
        <ele>327.071244</ele>
        <time>2021-11-15T22:46:17.404Z</time>
      </trkpt>
      <trkpt lat="47.478886" lon="7.740171">
        <ele>326.754036</ele>
        <time>2021-11-15T22:46:20.081Z</time>
      </trkpt>
      <trkpt lat="47.478976" lon="7.740230">
        <ele>326.571462</ele>
        <time>2021-11-15T22:46:21.232Z</time>
      </trkpt>
      <trkpt lat="47.479094" lon="7.740332">
        <ele>326.284019</ele>
        <time>2021-11-15T22:46:22.696Z</time>
      </trkpt>
      <trkpt lat="47.479203" lon="7.740474">
        <ele>325.973584</ele>
        <time>2021-11-15T22:46:24.473Z</time>
      </trkpt>
      <trkpt lat="47.479320" lon="7.740624">
        <ele>325.642667</ele>
        <time>2021-11-15T22:46:26.224Z</time>
      </trkpt>
      <trkpt lat="47.479429" lon="7.740787">
        <ele>325.311401</ele>
        <time>2021-11-15T22:46:28.049Z</time>
      </trkpt>
      <trkpt lat="47.479786" lon="7.741328">
        <ele>324.219077</ele>
        <time>2021-11-15T22:46:33.542Z</time>
      </trkpt>
      <trkpt lat="47.479843" lon="7.741440">
        <ele>324.016531</ele>
        <time>2021-11-15T22:46:34.513Z</time>
      </trkpt>
      <trkpt lat="47.479963" lon="7.741350">
        <ele>323.728954</ele>
        <time>2021-11-15T22:46:36.073Z</time>
      </trkpt>
      <trkpt lat="47.480006" lon="7.741317">
        <ele>323.625412</ele>
        <time>2021-11-15T22:46:36.561Z</time>
      </trkpt>
      <trkpt lat="47.480104" lon="7.741241">
        <ele>323.388903</ele>
        <time>2021-11-15T22:46:37.707Z</time>
      </trkpt>
      <trkpt lat="47.480294" lon="7.741119">
        <ele>322.946175</ele>
        <time>2021-11-15T22:46:39.974Z</time>
      </trkpt>
      <trkpt lat="47.480539" lon="7.740961">
        <ele>322.377105</ele>
        <time>2021-11-15T22:46:42.737Z</time>
      </trkpt>
      <trkpt lat="47.480591" lon="7.740959">
        <ele>322.266680</ele>
        <time>2021-11-15T22:46:43.438Z</time>
      </trkpt>
      <trkpt lat="47.480648" lon="7.741012">
        <ele>322.123770</ele>
        <time>2021-11-15T22:46:44.093Z</time>
      </trkpt>
      <trkpt lat="47.480737" lon="7.741134">
        <ele>321.866219</ele>
        <time>2021-11-15T22:46:45.335Z</time>
      </trkpt>
      <trkpt lat="47.481177" lon="7.741735">
        <ele>320.595029</ele>
        <time>2021-11-15T22:46:51.679Z</time>
      </trkpt>
      <trkpt lat="47.481605" lon="7.742324">
        <ele>319.354232</ele>
        <time>2021-11-15T22:46:58.252Z</time>
      </trkpt>
      <trkpt lat="47.481698" lon="7.742446">
        <ele>319.090391</ele>
        <time>2021-11-15T22:46:59.596Z</time>
      </trkpt>
      <trkpt lat="47.481898" lon="7.742719">
        <ele>318.687502</ele>
        <time>2021-11-15T22:47:02.745Z</time>
      </trkpt>
      <trkpt lat="47.481963" lon="7.742814">
        <ele>318.586379</ele>
        <time>2021-11-15T22:47:03.772Z</time>
      </trkpt>
      <trkpt lat="47.482088" lon="7.743048">
        <ele>318.363264</ele>
        <time>2021-11-15T22:47:06.326Z</time>
      </trkpt>
      <trkpt lat="47.482182" lon="7.743222">
        <ele>318.196634</ele>
        <time>2021-11-15T22:47:08.052Z</time>
      </trkpt>
      <trkpt lat="47.482599" lon="7.742771">
        <ele>317.624935</ele>
        <time>2021-11-15T22:47:14.363Z</time>
      </trkpt>
      <trkpt lat="47.482889" lon="7.742461">
        <ele>317.228955</ele>
        <time>2021-11-15T22:47:18.804Z</time>
      </trkpt>
      <trkpt lat="47.482927" lon="7.742421">
        <ele>317.177338</ele>
        <time>2021-11-15T22:47:19.501Z</time>
      </trkpt>
      <trkpt lat="47.483275" lon="7.742050">
        <ele>316.788669</ele>
        <time>2021-11-15T22:47:24.796Z</time>
      </trkpt>
      <trkpt lat="47.483828" lon="7.741475">
        <ele>316.389640</ele>
        <time>2021-11-15T22:47:33.634Z</time>
      </trkpt>
      <trkpt lat="47.483946" lon="7.741362">
        <ele>316.306658</ele>
        <time>2021-11-15T22:47:35.391Z</time>
      </trkpt>
      <trkpt lat="47.484154" lon="7.741142">
        <ele>316.155712</ele>
        <time>2021-11-15T22:47:38.620Z</time>
      </trkpt>
      <trkpt lat="47.484268" lon="7.741010">
        <ele>316.070252</ele>
        <time>2021-11-15T22:47:40.376Z</time>
      </trkpt>
      <trkpt lat="47.484365" lon="7.740878">
        <ele>315.992449</ele>
        <time>2021-11-15T22:47:41.954Z</time>
      </trkpt>
      <trkpt lat="47.484807" lon="7.739866">
        <ele>315.766477</ele>
        <time>2021-11-15T22:47:53.795Z</time>
      </trkpt>
      <trkpt lat="47.484997" lon="7.738871">
        <ele>315.689246</ele>
        <time>2021-11-15T22:48:05.349Z</time>
      </trkpt>
      <trkpt lat="47.485014" lon="7.738715">
        <ele>315.677443</ele>
        <time>2021-11-15T22:48:06.887Z</time>
      </trkpt>
      <trkpt lat="47.485032" lon="7.738535">
        <ele>315.663851</ele>
        <time>2021-11-15T22:48:08.840Z</time>
      </trkpt>
      <trkpt lat="47.485045" lon="7.738427">
        <ele>315.655657</ele>
        <time>2021-11-15T22:48:09.718Z</time>
      </trkpt>
      <trkpt lat="47.485067" lon="7.738278">
        <ele>315.644265</ele>
        <time>2021-11-15T22:48:11.170Z</time>
      </trkpt>
      <trkpt lat="47.485088" lon="7.738190">
        <ele>315.637294</ele>
        <time>2021-11-15T22:48:11.910Z</time>
      </trkpt>
      <trkpt lat="47.485121" lon="7.738124">
        <ele>315.631162</ele>
        <time>2021-11-15T22:48:12.922Z</time>
      </trkpt>
      <trkpt lat="47.485202" lon="7.737978">
        <ele>315.554334</ele>
        <time>2021-11-15T22:48:14.499Z</time>
      </trkpt>
      <trkpt lat="47.485384" lon="7.737678">
        <ele>315.321269</ele>
        <time>2021-11-15T22:48:17.887Z</time>
      </trkpt>
      <trkpt lat="47.485631" lon="7.737265">
        <ele>315.002440</ele>
        <time>2021-11-15T22:48:22.361Z</time>
      </trkpt>
      <trkpt lat="47.485696" lon="7.737158">
        <ele>314.919264</ele>
        <time>2021-11-15T22:48:23.558Z</time>
      </trkpt>
      <trkpt lat="47.485750" lon="7.737070">
        <ele>314.850547</ele>
        <time>2021-11-15T22:48:24.566Z</time>
      </trkpt>
      <trkpt lat="47.485806" lon="7.737111">
        <ele>314.797098</ele>
        <time>2021-11-15T22:48:25.260Z</time>
      </trkpt>
      <trkpt lat="47.485875" lon="7.737156">
        <ele>314.732593</ele>
        <time>2021-11-15T22:48:26.573Z</time>
      </trkpt>
      <trkpt lat="47.485976" lon="7.737217">
        <ele>314.639271</ele>
        <time>2021-11-15T22:48:27.894Z</time>
      </trkpt>
      <trkpt lat="47.486087" lon="7.737329">
        <ele>314.524341</ele>
        <time>2021-11-15T22:48:29.535Z</time>
      </trkpt>
      <trkpt lat="47.486115" lon="7.737373">
        <ele>314.489402</ele>
        <time>2021-11-15T22:48:29.966Z</time>
      </trkpt>
      <trkpt lat="47.486287" lon="7.737642">
        <ele>314.275316</ele>
        <time>2021-11-15T22:48:33.176Z</time>
      </trkpt>
      <trkpt lat="47.486314" lon="7.737686">
        <ele>314.240958</ele>
        <time>2021-11-15T22:48:33.588Z</time>
      </trkpt>
      <trkpt lat="47.486354" lon="7.737753">
        <ele>314.189275</ele>
        <time>2021-11-15T22:48:34.222Z</time>
      </trkpt>
      <trkpt lat="47.486384" lon="7.737805">
        <ele>314.149749</ele>
        <time>2021-11-15T22:48:34.950Z</time>
      </trkpt>
      <trkpt lat="47.486495" lon="7.737981">
        <ele>314.070682</ele>
        <time>2021-11-15T22:48:37.400Z</time>
      </trkpt>
      <trkpt lat="47.486621" lon="7.738169">
        <ele>314.036933</ele>
        <time>2021-11-15T22:48:39.416Z</time>
      </trkpt>
      <trkpt lat="47.486676" lon="7.738293">
        <ele>314.018027</ele>
        <time>2021-11-15T22:48:41.381Z</time>
      </trkpt>
      <trkpt lat="47.486689" lon="7.738358">
        <ele>314.009387</ele>
        <time>2021-11-15T22:48:41.900Z</time>
      </trkpt>
      <trkpt lat="47.486827" lon="7.738319">
        <ele>313.982887</ele>
        <time>2021-11-15T22:48:43.534Z</time>
      </trkpt>
      <trkpt lat="47.487288" lon="7.738117">
        <ele>313.892202</ele>
        <time>2021-11-15T22:48:50.003Z</time>
      </trkpt>
      <trkpt lat="47.487552" lon="7.737858">
        <ele>313.832458</ele>
        <time>2021-11-15T22:48:54.966Z</time>
      </trkpt>
      <trkpt lat="47.487621" lon="7.737779">
        <ele>313.816003</ele>
        <time>2021-11-15T22:48:56.965Z</time>
      </trkpt>
      <trkpt lat="47.487864" lon="7.737500">
        <ele>313.757992</ele>
        <time>2021-11-15T22:49:02.300Z</time>
      </trkpt>
      <trkpt lat="47.488046" lon="7.737266">
        <ele>313.670798</ele>
        <time>2021-11-15T22:49:06.808Z</time>
      </trkpt>
      <trkpt lat="47.488606" lon="7.735964">
        <ele>313.245548</ele>
        <time>2021-11-15T22:49:21.810Z</time>
      </trkpt>
      <trkpt lat="47.488804" lon="7.735382">
        <ele>313.066012</ele>
        <time>2021-11-15T22:49:26.969Z</time>
      </trkpt>
      <trkpt lat="47.488949" lon="7.734979">
        <ele>312.683988</ele>
        <time>2021-11-15T22:49:30.533Z</time>
      </trkpt>
      <trkpt lat="47.489032" lon="7.734791">
        <ele>312.410200</ele>
        <time>2021-11-15T22:49:32.210Z</time>
      </trkpt>
      <trkpt lat="47.489918" lon="7.732395">
        <ele>309.207394</ele>
        <time>2021-11-15T22:49:52.614Z</time>
      </trkpt>
      <trkpt lat="47.489972" lon="7.732312">
        <ele>309.092813</ele>
        <time>2021-11-15T22:49:53.428Z</time>
      </trkpt>
      <trkpt lat="47.491123" lon="7.730521">
        <ele>306.717701</ele>
        <time>2021-11-15T22:50:13.117Z</time>
      </trkpt>
      <trkpt lat="47.491189" lon="7.730425">
        <ele>306.604633</ele>
        <time>2021-11-15T22:50:14.274Z</time>
      </trkpt>
      <trkpt lat="47.491229" lon="7.730369">
        <ele>306.537358</ele>
        <time>2021-11-15T22:50:14.961Z</time>
      </trkpt>
      <trkpt lat="47.491274" lon="7.730304">
        <ele>306.460529</ele>
        <time>2021-11-15T22:50:15.748Z</time>
      </trkpt>
      <trkpt lat="47.491352" lon="7.730195">
        <ele>306.329455</ele>
        <time>2021-11-15T22:50:16.973Z</time>
      </trkpt>
      <trkpt lat="47.491749" lon="7.729641">
        <ele>305.662769</ele>
        <time>2021-11-15T22:50:23.530Z</time>
      </trkpt>
      <trkpt lat="47.491764" lon="7.729620">
        <ele>305.637541</ele>
        <time>2021-11-15T22:50:23.722Z</time>
      </trkpt>
      <trkpt lat="47.492018" lon="7.729265">
        <ele>305.210685</ele>
        <time>2021-11-15T22:50:27.914Z</time>
      </trkpt>
      <trkpt lat="47.492160" lon="7.729079">
        <ele>304.978994</ele>
        <time>2021-11-15T22:50:30.089Z</time>
      </trkpt>
      <trkpt lat="47.492253" lon="7.728955">
        <ele>304.845978</ele>
        <time>2021-11-15T22:50:31.629Z</time>
      </trkpt>
      <trkpt lat="47.492640" lon="7.728394">
        <ele>304.317125</ele>
        <time>2021-11-15T22:50:38.131Z</time>
      </trkpt>
      <trkpt lat="47.493051" lon="7.727844">
        <ele>303.776182</ele>
        <time>2021-11-15T22:50:44.875Z</time>
      </trkpt>
      <trkpt lat="47.493304" lon="7.727627">
        <ele>303.490709</ele>
        <time>2021-11-15T22:50:48.447Z</time>
      </trkpt>
      <trkpt lat="47.493736" lon="7.727441">
        <ele>303.124535</ele>
        <time>2021-11-15T22:50:54.243Z</time>
      </trkpt>
      <trkpt lat="47.493928" lon="7.727382">
        <ele>303.051840</ele>
        <time>2021-11-15T22:50:56.823Z</time>
      </trkpt>
      <trkpt lat="47.495388" lon="7.727405">
        <ele>302.510567</ele>
        <time>2021-11-15T22:51:17.382Z</time>
      </trkpt>
      <trkpt lat="47.495736" lon="7.727409">
        <ele>302.295827</ele>
        <time>2021-11-15T22:51:21.988Z</time>
      </trkpt>
      <trkpt lat="47.495777" lon="7.727410">
        <ele>302.269848</ele>
        <time>2021-11-15T22:51:22.539Z</time>
      </trkpt>
      <trkpt lat="47.495921" lon="7.727411">
        <ele>302.178618</ele>
        <time>2021-11-15T22:51:24.354Z</time>
      </trkpt>
      <trkpt lat="47.496039" lon="7.727411">
        <ele>302.103861</ele>
        <time>2021-11-15T22:51:25.922Z</time>
      </trkpt>
      <trkpt lat="47.496162" lon="7.727414">
        <ele>302.025926</ele>
        <time>2021-11-15T22:51:27.512Z</time>
      </trkpt>
      <trkpt lat="47.496367" lon="7.727420">
        <ele>301.896026</ele>
        <time>2021-11-15T22:51:30.101Z</time>
      </trkpt>
      <trkpt lat="47.496689" lon="7.727441">
        <ele>301.691830</ele>
        <time>2021-11-15T22:51:34.143Z</time>
      </trkpt>
      <trkpt lat="47.498171" lon="7.727736">
        <ele>300.829715</ele>
        <time>2021-11-15T22:51:53.271Z</time>
      </trkpt>
      <trkpt lat="47.499222" lon="7.727694">
        <ele>300.237766</ele>
        <time>2021-11-15T22:52:07.633Z</time>
      </trkpt>
      <trkpt lat="47.500808" lon="7.727366">
        <ele>299.203271</ele>
        <time>2021-11-15T22:52:29.120Z</time>
      </trkpt>
      <trkpt lat="47.501683" lon="7.727114">
        <ele>297.628978</ele>
        <time>2021-11-15T22:52:38.843Z</time>
      </trkpt>
      <trkpt lat="47.502070" lon="7.727002">
        <ele>296.932566</ele>
        <time>2021-11-15T22:52:43.118Z</time>
      </trkpt>
      <trkpt lat="47.502089" lon="7.726997">
        <ele>296.898485</ele>
        <time>2021-11-15T22:52:43.326Z</time>
      </trkpt>
      <trkpt lat="47.502204" lon="7.726964">
        <ele>296.691605</ele>
        <time>2021-11-15T22:52:44.670Z</time>
      </trkpt>
      <trkpt lat="47.502189" lon="7.726824">
        <ele>296.522485</ele>
        <time>2021-11-15T22:52:45.670Z</time>
      </trkpt>
      <trkpt lat="47.502177" lon="7.726706">
        <ele>296.380113</ele>
        <time>2021-11-15T22:52:46.654Z</time>
      </trkpt>
      <trkpt lat="47.502161" lon="7.726591">
        <ele>296.240028</ele>
        <time>2021-11-15T22:52:47.488Z</time>
      </trkpt>
      <trkpt lat="47.502122" lon="7.726303">
        <ele>295.998632</ele>
        <time>2021-11-15T22:52:49.704Z</time>
      </trkpt>
      <trkpt lat="47.502115" lon="7.726246">
        <ele>295.968517</ele>
        <time>2021-11-15T22:52:50.376Z</time>
      </trkpt>
      <trkpt lat="47.502048" lon="7.725782">
        <ele>295.721873</ele>
        <time>2021-11-15T22:52:53.973Z</time>
      </trkpt>
      <trkpt lat="47.502031" lon="7.725427">
        <ele>295.536875</ele>
        <time>2021-11-15T22:52:56.928Z</time>
      </trkpt>
      <trkpt lat="47.502031" lon="7.725298">
        <ele>295.469818</ele>
        <time>2021-11-15T22:52:57.923Z</time>
      </trkpt>
      <trkpt lat="47.502029" lon="7.725074">
        <ele>295.353369</ele>
        <time>2021-11-15T22:52:59.815Z</time>
      </trkpt>
      <trkpt lat="47.502040" lon="7.724902">
        <ele>295.263561</ele>
        <time>2021-11-15T22:53:01.350Z</time>
      </trkpt>
      <trkpt lat="47.502055" lon="7.724669">
        <ele>295.141894</ele>
        <time>2021-11-15T22:53:03.368Z</time>
      </trkpt>
      <trkpt lat="47.502172" lon="7.724685">
        <ele>295.051484</ele>
        <time>2021-11-15T22:53:05.334Z</time>
      </trkpt>
      <trkpt lat="47.502179" lon="7.724686">
        <ele>295.046073</ele>
        <time>2021-11-15T22:53:05.452Z</time>
      </trkpt>
      <trkpt lat="47.502205" lon="7.724690">
        <ele>295.025959</ele>
        <time>2021-11-15T22:53:05.943Z</time>
      </trkpt>
      <trkpt lat="47.502283" lon="7.724703">
        <ele>294.965563</ele>
        <time>2021-11-15T22:53:07.513Z</time>
      </trkpt>
      <trkpt lat="47.502584" lon="7.724671">
        <ele>294.733359</ele>
        <time>2021-11-15T22:53:14.264Z</time>
      </trkpt>
      <trkpt lat="47.502794" lon="7.724635">
        <ele>294.634522</ele>
        <time>2021-11-15T22:53:19.059Z</time>
      </trkpt>
      <trkpt lat="47.503201" lon="7.724541">
        <ele>294.475429</ele>
        <time>2021-11-15T22:53:28.538Z</time>
      </trkpt>
      <trkpt lat="47.503333" lon="7.724502">
        <ele>294.423442</ele>
        <time>2021-11-15T22:53:31.431Z</time>
      </trkpt>
      <trkpt lat="47.503457" lon="7.724469">
        <ele>294.374784</ele>
        <time>2021-11-15T22:53:34.045Z</time>
      </trkpt>
      <trkpt lat="47.503494" lon="7.724462">
        <ele>294.360377</ele>
        <time>2021-11-15T22:53:34.852Z</time>
      </trkpt>
      <trkpt lat="47.503945" lon="7.724377">
        <ele>294.184787</ele>
        <time>2021-11-15T22:53:43.100Z</time>
      </trkpt>
      <trkpt lat="47.504048" lon="7.724357">
        <ele>294.144665</ele>
        <time>2021-11-15T22:53:44.820Z</time>
      </trkpt>
      <trkpt lat="47.504396" lon="7.724291">
        <ele>294.009163</ele>
        <time>2021-11-15T22:53:50.733Z</time>
      </trkpt>
      <trkpt lat="47.504514" lon="7.724269">
        <ele>293.789761</ele>
        <time>2021-11-15T22:53:52.752Z</time>
      </trkpt>
      <trkpt lat="47.504610" lon="7.724250">
        <ele>293.593888</ele>
        <time>2021-11-15T22:53:54.416Z</time>
      </trkpt>
      <trkpt lat="47.504856" lon="7.724220">
        <ele>293.094704</ele>
        <time>2021-11-15T22:53:58.327Z</time>
      </trkpt>
      <trkpt lat="47.505012" lon="7.724231">
        <ele>292.778859</ele>
        <time>2021-11-15T22:54:00.882Z</time>
      </trkpt>
      <trkpt lat="47.505073" lon="7.724246">
        <ele>292.653805</ele>
        <time>2021-11-15T22:54:01.774Z</time>
      </trkpt>
      <trkpt lat="47.505161" lon="7.724267">
        <ele>292.473540</ele>
        <time>2021-11-15T22:54:03.193Z</time>
      </trkpt>
      <trkpt lat="47.505365" lon="7.724317">
        <ele>292.055364</ele>
        <time>2021-11-15T22:54:06.547Z</time>
      </trkpt>
      <trkpt lat="47.505646" lon="7.724350">
        <ele>291.485297</ele>
        <time>2021-11-15T22:54:10.846Z</time>
      </trkpt>
      <trkpt lat="47.505783" lon="7.724344">
        <ele>291.208113</ele>
        <time>2021-11-15T22:54:12.880Z</time>
      </trkpt>
      <trkpt lat="47.505851" lon="7.724341">
        <ele>291.070532</ele>
        <time>2021-11-15T22:54:13.962Z</time>
      </trkpt>
      <trkpt lat="47.505891" lon="7.724339">
        <ele>290.989592</ele>
        <time>2021-11-15T22:54:14.558Z</time>
      </trkpt>
      <trkpt lat="47.505930" lon="7.724337">
        <ele>290.910673</ele>
        <time>2021-11-15T22:54:15.160Z</time>
      </trkpt>
      <trkpt lat="47.506453" lon="7.724284">
        <ele>289.879373</ele>
        <time>2021-11-15T22:54:23.129Z</time>
      </trkpt>
      <trkpt lat="47.506607" lon="7.724268">
        <ele>289.584625</ele>
        <time>2021-11-15T22:54:25.446Z</time>
      </trkpt>
      <trkpt lat="47.506921" lon="7.724257">
        <ele>288.984951</ele>
        <time>2021-11-15T22:54:30.443Z</time>
      </trkpt>
      <trkpt lat="47.506945" lon="7.724261">
        <ele>288.938839</ele>
        <time>2021-11-15T22:54:30.822Z</time>
      </trkpt>
      <trkpt lat="47.507064" lon="7.724278">
        <ele>288.710582</ele>
        <time>2021-11-15T22:54:32.699Z</time>
      </trkpt>
      <trkpt lat="47.507444" lon="7.724343">
        <ele>287.980238</ele>
        <time>2021-11-15T22:54:38.823Z</time>
      </trkpt>
      <trkpt lat="47.507810" lon="7.724326">
        <ele>287.281107</ele>
        <time>2021-11-15T22:54:44.805Z</time>
      </trkpt>
      <trkpt lat="47.508175" lon="7.724311">
        <ele>286.768732</ele>
        <time>2021-11-15T22:54:50.845Z</time>
      </trkpt>
      <trkpt lat="47.508425" lon="7.724317">
        <ele>286.544343</ele>
        <time>2021-11-15T22:54:55.070Z</time>
      </trkpt>
      <trkpt lat="47.508629" lon="7.724301">
        <ele>286.361010</ele>
        <time>2021-11-15T22:54:58.439Z</time>
      </trkpt>
      <trkpt lat="47.508823" lon="7.724215">
        <ele>286.179269</ele>
        <time>2021-11-15T22:55:00.921Z</time>
      </trkpt>
      <trkpt lat="47.509150" lon="7.724070">
        <ele>285.872927</ele>
        <time>2021-11-15T22:55:05.096Z</time>
      </trkpt>
      <trkpt lat="47.509672" lon="7.723906">
        <ele>285.394033</ele>
        <time>2021-11-15T22:55:12.019Z</time>
      </trkpt>
      <trkpt lat="47.509849" lon="7.723882">
        <ele>285.322536</ele>
        <time>2021-11-15T22:55:15.623Z</time>
      </trkpt>
      <trkpt lat="47.510349" lon="7.724011">
        <ele>285.344713</ele>
        <time>2021-11-15T22:55:26.591Z</time>
      </trkpt>
      <trkpt lat="47.510952" lon="7.724263">
        <ele>285.372091</ele>
        <time>2021-11-15T22:55:40.651Z</time>
      </trkpt>
      <trkpt lat="47.511606" lon="7.724590">
        <ele>285.517418</ele>
        <time>2021-11-15T22:55:53.121Z</time>
      </trkpt>
      <trkpt lat="47.511791" lon="7.724622">
        <ele>285.705411</ele>
        <time>2021-11-15T22:55:56.690Z</time>
      </trkpt>
      <trkpt lat="47.511979" lon="7.724618">
        <ele>285.895181</ele>
        <time>2021-11-15T22:56:00.532Z</time>
      </trkpt>
      <trkpt lat="47.512214" lon="7.724543">
        <ele>286.137818</ele>
        <time>2021-11-15T22:56:06.600Z</time>
      </trkpt>
      <trkpt lat="47.512277" lon="7.724501">
        <ele>286.207554</ele>
        <time>2021-11-15T22:56:07.701Z</time>
      </trkpt>
      <trkpt lat="47.512857" lon="7.723931">
        <ele>286.910185</ele>
        <time>2021-11-15T22:56:28.457Z</time>
      </trkpt>
      <trkpt lat="47.512888" lon="7.724074">
        <ele>287.012568</ele>
        <time>2021-11-15T22:56:30.555Z</time>
      </trkpt>
      <trkpt lat="47.512910" lon="7.724174">
        <ele>287.084265</ele>
        <time>2021-11-15T22:56:32.410Z</time>
      </trkpt>
      <trkpt lat="47.512976" lon="7.724418">
        <ele>287.253959</ele>
        <time>2021-11-15T22:56:35.804Z</time>
      </trkpt>
      <trkpt lat="47.513078" lon="7.724821">
        <ele>287.492773</ele>
        <time>2021-11-15T22:56:41.717Z</time>
      </trkpt>
      <trkpt lat="47.513150" lon="7.725105">
        <ele>287.661104</ele>
        <time>2021-11-15T22:56:44.091Z</time>
      </trkpt>
      <trkpt lat="47.513193" lon="7.725244">
        <ele>287.745942</ele>
        <time>2021-11-15T22:56:47.087Z</time>
      </trkpt>
      <trkpt lat="47.513232" lon="7.725318">
        <ele>287.798027</ele>
        <time>2021-11-15T22:56:48.243Z</time>
      </trkpt>
      <trkpt lat="47.513538" lon="7.725582">
        <ele>288.088998</ele>
        <time>2021-11-15T22:56:55.341Z</time>
      </trkpt>
      <trkpt lat="47.513681" lon="7.725617">
        <ele>288.208077</ele>
        <time>2021-11-15T22:56:57.669Z</time>
      </trkpt>
      <trkpt lat="47.514143" lon="7.725538">
        <ele>288.590169</ele>
        <time>2021-11-15T22:57:07.305Z</time>
      </trkpt>
      <trkpt lat="47.515140" lon="7.725368">
        <ele>287.174496</ele>
        <time>2021-11-15T22:57:19.221Z</time>
      </trkpt>
      <trkpt lat="47.515697" lon="7.725255">
        <ele>286.208254</ele>
        <time>2021-11-15T22:57:25.023Z</time>
      </trkpt>
      <trkpt lat="47.515959" lon="7.725102">
        <ele>285.724206</ele>
        <time>2021-11-15T22:57:28.006Z</time>
      </trkpt>
      <trkpt lat="47.516416" lon="7.724623">
        <ele>284.554815</ele>
        <time>2021-11-15T22:57:33.963Z</time>
      </trkpt>
      <trkpt lat="47.517269" lon="7.723372">
        <ele>281.980859</ele>
        <time>2021-11-15T22:57:47.026Z</time>
      </trkpt>
      <trkpt lat="47.517885" lon="7.722793">
        <ele>280.983221</ele>
        <time>2021-11-15T22:57:55.360Z</time>
      </trkpt>
      <trkpt lat="47.518038" lon="7.722700">
        <ele>280.780135</ele>
        <time>2021-11-15T22:57:57.240Z</time>
      </trkpt>
      <trkpt lat="47.518237" lon="7.722578">
        <ele>280.515662</ele>
        <time>2021-11-15T22:57:59.858Z</time>
      </trkpt>
      <trkpt lat="47.519305" lon="7.722165">
        <ele>279.658515</ele>
        <time>2021-11-15T22:58:13.458Z</time>
      </trkpt>
      <trkpt lat="47.520760" lon="7.721667">
        <ele>280.268018</ele>
        <time>2021-11-15T22:58:37.456Z</time>
      </trkpt>
      <trkpt lat="47.521121" lon="7.721544">
        <ele>282.062896</ele>
        <time>2021-11-15T22:58:46.897Z</time>
      </trkpt>
      <trkpt lat="47.521455" lon="7.721426">
        <ele>283.729689</ele>
        <time>2021-11-15T22:58:58.068Z</time>
      </trkpt>
      <trkpt lat="47.521722" lon="7.721283">
        <ele>285.107915</ele>
        <time>2021-11-15T22:59:07.666Z</time>
      </trkpt>
      <trkpt lat="47.521846" lon="7.721211">
        <ele>285.754450</ele>
        <time>2021-11-15T22:59:13.941Z</time>
      </trkpt>
      <trkpt lat="47.521984" lon="7.721168">
        <ele>286.438993</ele>
        <time>2021-11-15T22:59:18.696Z</time>
      </trkpt>
      <trkpt lat="47.522249" lon="7.721165">
        <ele>287.725381</ele>
        <time>2021-11-15T22:59:30.752Z</time>
      </trkpt>
      <trkpt lat="47.522498" lon="7.721207">
        <ele>288.941881</ele>
        <time>2021-11-15T22:59:41.389Z</time>
      </trkpt>
      <trkpt lat="47.522682" lon="7.721170">
        <ele>289.975961</ele>
        <time>2021-11-15T22:59:48.841Z</time>
      </trkpt>
      <trkpt lat="47.522888" lon="7.721170">
        <ele>291.133151</ele>
        <time>2021-11-15T22:59:58.574Z</time>
      </trkpt>
      <trkpt lat="47.523111" lon="7.721224">
        <ele>292.402477</ele>
        <time>2021-11-15T23:00:06.938Z</time>
      </trkpt>
      <trkpt lat="47.523300" lon="7.721328">
        <ele>293.535101</ele>
        <time>2021-11-15T23:00:16.263Z</time>
      </trkpt>
      <trkpt lat="47.523671" lon="7.721634">
        <ele>295.920627</ele>
        <time>2021-11-15T23:00:32.179Z</time>
      </trkpt>
      <trkpt lat="47.523902" lon="7.721670">
        <ele>297.225420</ele>
        <time>2021-11-15T23:00:40.994Z</time>
      </trkpt>
      <trkpt lat="47.524263" lon="7.721598">
        <ele>299.116101</ele>
        <time>2021-11-15T23:00:52.337Z</time>
      </trkpt>
      <trkpt lat="47.524632" lon="7.721805">
        <ele>299.288772</ele>
        <time>2021-11-15T23:01:01.697Z</time>
      </trkpt>
      <trkpt lat="47.524884" lon="7.722022">
        <ele>299.416335</ele>
        <time>2021-11-15T23:01:06.945Z</time>
      </trkpt>
      <trkpt lat="47.525258" lon="7.722384">
        <ele>299.611854</ele>
        <time>2021-11-15T23:01:13.082Z</time>
      </trkpt>
      <trkpt lat="47.525373" lon="7.722545">
        <ele>299.681105</ele>
        <time>2021-11-15T23:01:15.089Z</time>
      </trkpt>
      <trkpt lat="47.526099" lon="7.723563">
        <ele>299.268824</ele>
        <time>2021-11-15T23:01:26.488Z</time>
      </trkpt>
      <trkpt lat="47.526744" lon="7.724750">
        <ele>298.045244</ele>
        <time>2021-11-15T23:01:38.424Z</time>
      </trkpt>
      <trkpt lat="47.526894" lon="7.725042">
        <ele>297.750973</ele>
        <time>2021-11-15T23:01:41.460Z</time>
      </trkpt>
      <trkpt lat="47.527862" lon="7.727114">
        <ele>298.228041</ele>
        <time>2021-11-15T23:02:09.673Z</time>
      </trkpt>
      <trkpt lat="47.528009" lon="7.727429">
        <ele>298.242653</ele>
        <time>2021-11-15T23:02:14.550Z</time>
      </trkpt>
      <trkpt lat="47.528065" lon="7.727556">
        <ele>298.234656</ele>
        <time>2021-11-15T23:02:16.334Z</time>
      </trkpt>
      <trkpt lat="47.528164" lon="7.727824">
        <ele>298.218550</ele>
        <time>2021-11-15T23:02:19.897Z</time>
      </trkpt>
      <trkpt lat="47.528320" lon="7.728136">
        <ele>298.198082</ele>
        <time>2021-11-15T23:02:24.072Z</time>
      </trkpt>
      <trkpt lat="47.528408" lon="7.728307">
        <ele>298.186747</ele>
        <time>2021-11-15T23:02:26.206Z</time>
      </trkpt>
      <trkpt lat="47.528552" lon="7.728411">
        <ele>298.174238</ele>
        <time>2021-11-15T23:02:28.461Z</time>
      </trkpt>
      <trkpt lat="47.528614" lon="7.728431">
        <ele>298.169283</ele>
        <time>2021-11-15T23:02:29.363Z</time>
      </trkpt>
      <trkpt lat="47.528688" lon="7.728441">
        <ele>298.163482</ele>
        <time>2021-11-15T23:02:30.358Z</time>
      </trkpt>
      <trkpt lat="47.528715" lon="7.728334">
        <ele>298.157459</ele>
        <time>2021-11-15T23:02:31.365Z</time>
      </trkpt>
      <trkpt lat="47.528746" lon="7.728265">
        <ele>298.153090</ele>
        <time>2021-11-15T23:02:32.132Z</time>
      </trkpt>
      <trkpt lat="47.528803" lon="7.728159">
        <ele>298.145946</ele>
        <time>2021-11-15T23:02:33.366Z</time>
      </trkpt>
      <trkpt lat="47.528848" lon="7.728118">
        <ele>298.141821</ele>
        <time>2021-11-15T23:02:34.070Z</time>
      </trkpt>
      <trkpt lat="47.528941" lon="7.728048">
        <ele>298.133675</ele>
        <time>2021-11-15T23:02:35.420Z</time>
      </trkpt>
      <trkpt lat="47.528941" lon="7.728048">
        <ele>298.133675</ele>
        <time>2021-11-15T23:02:35.423Z</time>
      </trkpt>
      <trkpt lat="47.528941" lon="7.728048">
        <ele>298.133675</ele>
        <time>2021-11-15T23:02:35.463Z</time>
      </trkpt>
      <trkpt lat="47.529269" lon="7.727844">
        <ele>298.011865</ele>
        <time>2021-11-15T23:02:39.926Z</time>
      </trkpt>
      <trkpt lat="47.529976" lon="7.727410">
        <ele>297.322535</ele>
        <time>2021-11-15T23:02:49.215Z</time>
      </trkpt>
      <trkpt lat="47.530372" lon="7.727161">
        <ele>296.935042</ele>
        <time>2021-11-15T23:02:54.562Z</time>
      </trkpt>
      <trkpt lat="47.530756" lon="7.726844">
        <ele>296.539072</ele>
        <time>2021-11-15T23:02:59.950Z</time>
      </trkpt>
      <trkpt lat="47.531031" lon="7.726569">
        <ele>296.335159</ele>
        <time>2021-11-15T23:03:04.085Z</time>
      </trkpt>
      <trkpt lat="47.531193" lon="7.726888">
        <ele>296.182954</ele>
        <time>2021-11-15T23:03:07.483Z</time>
      </trkpt>
      <trkpt lat="47.531296" lon="7.727089">
        <ele>296.086737</ele>
        <time>2021-11-15T23:03:10.032Z</time>
      </trkpt>
      <trkpt lat="47.531623" lon="7.727725">
        <ele>295.781914</ele>
        <time>2021-11-15T23:03:17.091Z</time>
      </trkpt>
      <trkpt lat="47.531815" lon="7.728165">
        <ele>295.582149</ele>
        <time>2021-11-15T23:03:21.846Z</time>
      </trkpt>
      <trkpt lat="47.531944" lon="7.728603">
        <ele>295.457388</ele>
        <time>2021-11-15T23:03:26.218Z</time>
      </trkpt>
      <trkpt lat="47.532193" lon="7.730459">
        <ele>295.260161</ele>
        <time>2021-11-15T23:03:43.785Z</time>
      </trkpt>
      <trkpt lat="47.532405" lon="7.731493">
        <ele>295.231248</ele>
        <time>2021-11-15T23:03:55.743Z</time>
      </trkpt>
      <trkpt lat="47.532473" lon="7.731703">
        <ele>295.244738</ele>
        <time>2021-11-15T23:03:58.210Z</time>
      </trkpt>
      <trkpt lat="47.532665" lon="7.732105">
        <ele>295.273261</ele>
        <time>2021-11-15T23:04:03.694Z</time>
      </trkpt>
      <trkpt lat="47.532776" lon="7.732283">
        <ele>295.287296</ele>
        <time>2021-11-15T23:04:06.270Z</time>
      </trkpt>
      <trkpt lat="47.532853" lon="7.732416">
        <ele>295.297444</ele>
        <time>2021-11-15T23:04:08.186Z</time>
      </trkpt>
      <trkpt lat="47.532961" lon="7.732599">
        <ele>295.311522</ele>
        <time>2021-11-15T23:04:10.476Z</time>
      </trkpt>
      <trkpt lat="47.533220" lon="7.733022">
        <ele>295.344599</ele>
        <time>2021-11-15T23:04:16.012Z</time>
      </trkpt>
      <trkpt lat="47.533324" lon="7.733190">
        <ele>295.338583</ele>
        <time>2021-11-15T23:04:18.315Z</time>
      </trkpt>
      <trkpt lat="47.533436" lon="7.733399">
        <ele>295.215998</ele>
        <time>2021-11-15T23:04:20.660Z</time>
      </trkpt>
      <trkpt lat="47.533577" lon="7.733712">
        <ele>295.043134</ele>
        <time>2021-11-15T23:04:24.173Z</time>
      </trkpt>
      <trkpt lat="47.533685" lon="7.734026">
        <ele>294.881240</ele>
        <time>2021-11-15T23:04:27.285Z</time>
      </trkpt>
      <trkpt lat="47.533860" lon="7.734479">
        <ele>294.641469</ele>
        <time>2021-11-15T23:04:31.780Z</time>
      </trkpt>
      <trkpt lat="47.534301" lon="7.735625">
        <ele>294.162711</ele>
        <time>2021-11-15T23:04:42.610Z</time>
      </trkpt>
      <trkpt lat="47.534450" lon="7.736026">
        <ele>294.230278</ele>
        <time>2021-11-15T23:04:46.388Z</time>
      </trkpt>
      <trkpt lat="47.534670" lon="7.736644">
        <ele>294.333410</ele>
        <time>2021-11-15T23:04:52.411Z</time>
      </trkpt>
      <trkpt lat="47.534765" lon="7.736911">
        <ele>294.377961</ele>
        <time>2021-11-15T23:04:55.076Z</time>
      </trkpt>
      <trkpt lat="47.534938" lon="7.737388">
        <ele>294.457891</ele>
        <time>2021-11-15T23:05:01.032Z</time>
      </trkpt>
      <trkpt lat="47.535216" lon="7.738157">
        <ele>296.343169</ele>
        <time>2021-11-15T23:05:14.493Z</time>
      </trkpt>
      <trkpt lat="47.534755" lon="7.738529">
        <ele>299.729728</ele>
        <time>2021-11-15T23:05:34.717Z</time>
      </trkpt>
      <trkpt lat="47.534011" lon="7.739126">
        <ele>305.188257</ele>
        <time>2021-11-15T23:06:16.515Z</time>
      </trkpt>
      <trkpt lat="47.533446" lon="7.739598">
        <ele>309.369926</ele>
        <time>2021-11-15T23:06:48.434Z</time>
      </trkpt>
      <trkpt lat="47.533226" lon="7.739781">
        <ele>310.996185</ele>
        <time>2021-11-15T23:06:59.771Z</time>
      </trkpt>
      <trkpt lat="47.533191" lon="7.739816">
        <ele>311.268369</ele>
        <time>2021-11-15T23:07:03.022Z</time>
      </trkpt>
      <trkpt lat="47.533352" lon="7.740430">
        <ele>314.134657</ele>
        <time>2021-11-15T23:07:21.706Z</time>
      </trkpt>
      <trkpt lat="47.533707" lon="7.742025">
        <ele>318.103765</ele>
        <time>2021-11-15T23:07:53.991Z</time>
      </trkpt>
      <trkpt lat="47.533870" lon="7.743466">
        <ele>318.758360</ele>
        <time>2021-11-15T23:08:06.069Z</time>
      </trkpt>
      <trkpt lat="47.534043" lon="7.744207">
        <ele>318.846748</ele>
        <time>2021-11-15T23:08:13.152Z</time>
      </trkpt>
      <trkpt lat="47.534097" lon="7.744343">
        <ele>318.822410</ele>
        <time>2021-11-15T23:08:14.600Z</time>
      </trkpt>
      <trkpt lat="47.534179" lon="7.744495">
        <ele>318.792397</ele>
        <time>2021-11-15T23:08:16.479Z</time>
      </trkpt>
      <trkpt lat="47.534370" lon="7.744709">
        <ele>318.737678</ele>
        <time>2021-11-15T23:08:19.773Z</time>
      </trkpt>
      <trkpt lat="47.534429" lon="7.744856">
        <ele>318.711298</ele>
        <time>2021-11-15T23:08:21.535Z</time>
      </trkpt>
      <trkpt lat="47.534874" lon="7.746551">
        <ele>318.585021</ele>
        <time>2021-11-15T23:08:39.085Z</time>
      </trkpt>
      <trkpt lat="47.535912" lon="7.749669">
        <ele>319.231676</ele>
        <time>2021-11-15T23:09:17.425Z</time>
      </trkpt>
      <trkpt lat="47.537134" lon="7.752309">
        <ele>320.019095</ele>
        <time>2021-11-15T23:09:51.578Z</time>
      </trkpt>
      <trkpt lat="47.537371" lon="7.752851">
        <ele>320.197781</ele>
        <time>2021-11-15T23:09:58.227Z</time>
      </trkpt>
      <trkpt lat="47.537564" lon="7.753073">
        <ele>320.595747</ele>
        <time>2021-11-15T23:10:02.042Z</time>
      </trkpt>
      <trkpt lat="47.537715" lon="7.753194">
        <ele>321.134344</ele>
        <time>2021-11-15T23:10:05.887Z</time>
      </trkpt>
      <trkpt lat="47.538052" lon="7.753460">
        <ele>322.332324</ele>
        <time>2021-11-15T23:10:14.971Z</time>
      </trkpt>
      <trkpt lat="47.538359" lon="7.753900">
        <ele>323.672487</ele>
        <time>2021-11-15T23:10:26.225Z</time>
      </trkpt>
      <trkpt lat="47.538494" lon="7.754103">
        <ele>324.275994</ele>
        <time>2021-11-15T23:10:32.007Z</time>
      </trkpt>
      <trkpt lat="47.538723" lon="7.754445">
        <ele>325.296183</ele>
        <time>2021-11-15T23:10:42.168Z</time>
      </trkpt>
      <trkpt lat="47.538792" lon="7.754549">
        <ele>325.605010</ele>
        <time>2021-11-15T23:10:46.162Z</time>
      </trkpt>
      <trkpt lat="47.539079" lon="7.754976">
        <ele>327.581077</ele>
        <time>2021-11-15T23:11:01.953Z</time>
      </trkpt>
      <trkpt lat="47.539230" lon="7.755294">
        <ele>328.989456</ele>
        <time>2021-11-15T23:11:12.421Z</time>
      </trkpt>
      <trkpt lat="47.539266" lon="7.755431">
        <ele>329.522009</ele>
        <time>2021-11-15T23:11:16.943Z</time>
      </trkpt>
      <trkpt lat="47.539320" lon="7.755636">
        <ele>330.319151</ele>
        <time>2021-11-15T23:11:22.442Z</time>
      </trkpt>
      <trkpt lat="47.539346" lon="7.755736">
        <ele>330.707338</ele>
        <time>2021-11-15T23:11:25.712Z</time>
      </trkpt>
      <trkpt lat="47.539595" lon="7.757548">
        <ele>335.788533</ele>
        <time>2021-11-15T23:12:09.733Z</time>
      </trkpt>
      <trkpt lat="47.539722" lon="7.758107">
        <ele>336.065717</ele>
        <time>2021-11-15T23:12:18.641Z</time>
      </trkpt>
      <trkpt lat="47.539949" lon="7.758688">
        <ele>336.381194</ele>
        <time>2021-11-15T23:12:25.854Z</time>
      </trkpt>
      <trkpt lat="47.540447" lon="7.759585">
        <ele>335.800848</ele>
        <time>2021-11-15T23:12:34.377Z</time>
      </trkpt>
      <trkpt lat="47.540567" lon="7.759901">
        <ele>334.465499</ele>
        <time>2021-11-15T23:12:36.764Z</time>
      </trkpt>
      <trkpt lat="47.540921" lon="7.761599">
        <ele>327.920278</ele>
        <time>2021-11-15T23:12:47.886Z</time>
      </trkpt>
      <trkpt lat="47.541004" lon="7.762306">
        <ele>324.021964</ele>
        <time>2021-11-15T23:12:52.107Z</time>
      </trkpt>
      <trkpt lat="47.541023" lon="7.762922">
        <ele>320.082826</ele>
        <time>2021-11-15T23:12:55.690Z</time>
      </trkpt>
      <trkpt lat="47.541219" lon="7.763853">
        <ele>313.853072</ele>
        <time>2021-11-15T23:13:01.314Z</time>
      </trkpt>
      <trkpt lat="47.541334" lon="7.764020">
        <ele>312.329160</ele>
        <time>2021-11-15T23:13:02.780Z</time>
      </trkpt>
      <trkpt lat="47.541377" lon="7.764045">
        <ele>311.892039</ele>
        <time>2021-11-15T23:13:03.153Z</time>
      </trkpt>
      <trkpt lat="47.541364" lon="7.764150">
        <ele>311.210112</ele>
        <time>2021-11-15T23:13:03.764Z</time>
      </trkpt>
      <trkpt lat="47.541443" lon="7.764512">
        <ele>309.234410</ele>
        <time>2021-11-15T23:13:06.075Z</time>
      </trkpt>
      <trkpt lat="47.541552" lon="7.764869">
        <ele>307.690583</ele>
        <time>2021-11-15T23:13:08.369Z</time>
      </trkpt>
      <trkpt lat="47.541697" lon="7.765479">
        <ele>305.142430</ele>
        <time>2021-11-15T23:13:12.251Z</time>
      </trkpt>
      <trkpt lat="47.542317" lon="7.768533">
        <ele>296.805581</ele>
        <time>2021-11-15T23:13:33.724Z</time>
      </trkpt>
      <trkpt lat="47.542450" lon="7.769311">
        <ele>295.583909</ele>
        <time>2021-11-15T23:13:41.439Z</time>
      </trkpt>
      <trkpt lat="47.542720" lon="7.770771">
        <ele>295.705618</ele>
        <time>2021-11-15T23:13:57.982Z</time>
      </trkpt>
      <trkpt lat="47.543108" lon="7.773069">
        <ele>296.109505</ele>
        <time>2021-11-15T23:14:24.835Z</time>
      </trkpt>
      <trkpt lat="47.543145" lon="7.773277">
        <ele>296.136544</ele>
        <time>2021-11-15T23:14:26.961Z</time>
      </trkpt>
      <trkpt lat="47.543350" lon="7.774507">
        <ele>296.295804</ele>
        <time>2021-11-15T23:14:39.424Z</time>
      </trkpt>
      <trkpt lat="47.543402" lon="7.775016">
        <ele>296.502589</ele>
        <time>2021-11-15T23:14:44.487Z</time>
      </trkpt>
      <trkpt lat="47.543449" lon="7.775478">
        <ele>296.713076</ele>
        <time>2021-11-15T23:14:49.180Z</time>
      </trkpt>
      <trkpt lat="47.543482" lon="7.776095">
        <ele>296.991913</ele>
        <time>2021-11-15T23:14:55.888Z</time>
      </trkpt>
      <trkpt lat="47.543527" lon="7.776532">
        <ele>297.191064</ele>
        <time>2021-11-15T23:15:01.047Z</time>
      </trkpt>
      <trkpt lat="47.543707" lon="7.777394">
        <ele>298.039380</ele>
        <time>2021-11-15T23:15:13.333Z</time>
      </trkpt>
      <trkpt lat="47.543933" lon="7.778374">
        <ele>300.755691</ele>
        <time>2021-11-15T23:15:31.660Z</time>
      </trkpt>
      <trkpt lat="47.544100" lon="7.779438">
        <ele>303.620899</ele>
        <time>2021-11-15T23:15:55.861Z</time>
      </trkpt>
      <trkpt lat="47.544461" lon="7.782254">
        <ele>314.269952</ele>
        <time>2021-11-15T23:17:16.462Z</time>
      </trkpt>
      <trkpt lat="47.544469" lon="7.782455">
        <ele>314.672630</ele>
        <time>2021-11-15T23:17:21.495Z</time>
      </trkpt>
      <trkpt lat="47.544474" lon="7.782623">
        <ele>314.421310</ele>
        <time>2021-11-15T23:17:23.883Z</time>
      </trkpt>
      <trkpt lat="47.544490" lon="7.783060">
        <ele>313.767253</ele>
        <time>2021-11-15T23:17:27.775Z</time>
      </trkpt>
      <trkpt lat="47.544555" lon="7.783372">
        <ele>313.279267</ele>
        <time>2021-11-15T23:17:30.260Z</time>
      </trkpt>
      <trkpt lat="47.544627" lon="7.783499">
        <ele>313.031404</ele>
        <time>2021-11-15T23:17:31.657Z</time>
      </trkpt>
      <trkpt lat="47.544950" lon="7.784008">
        <ele>311.987342</ele>
        <time>2021-11-15T23:17:38.469Z</time>
      </trkpt>
      <trkpt lat="47.545054" lon="7.784227">
        <ele>311.587168</ele>
        <time>2021-11-15T23:17:41.041Z</time>
      </trkpt>
      <trkpt lat="47.545240" lon="7.784746">
        <ele>310.579270</ele>
        <time>2021-11-15T23:17:46.196Z</time>
      </trkpt>
      <trkpt lat="47.545250" lon="7.784778">
        <ele>310.446994</ele>
        <time>2021-11-15T23:17:46.469Z</time>
      </trkpt>
      <trkpt lat="47.545624" lon="7.785548">
        <ele>306.888575</ele>
        <time>2021-11-15T23:17:54.633Z</time>
      </trkpt>
      <trkpt lat="47.545672" lon="7.785654">
        <ele>306.409772</ele>
        <time>2021-11-15T23:17:55.642Z</time>
      </trkpt>
      <trkpt lat="47.545856" lon="7.785973">
        <ele>304.835795</ele>
        <time>2021-11-15T23:17:59.482Z</time>
      </trkpt>
      <trkpt lat="47.546102" lon="7.786217">
        <ele>303.190627</ele>
        <time>2021-11-15T23:18:03.467Z</time>
      </trkpt>
      <trkpt lat="47.546417" lon="7.786331">
        <ele>301.388642</ele>
        <time>2021-11-15T23:18:08.040Z</time>
      </trkpt>
      <trkpt lat="47.546464" lon="7.786335">
        <ele>301.127024</ele>
        <time>2021-11-15T23:18:08.801Z</time>
      </trkpt>
      <trkpt lat="47.546526" lon="7.786353">
        <ele>300.796706</ele>
        <time>2021-11-15T23:18:09.798Z</time>
      </trkpt>
      <trkpt lat="47.546913" lon="7.786470">
        <ele>300.535306</ele>
        <time>2021-11-15T23:18:15.955Z</time>
      </trkpt>
      <trkpt lat="47.546952" lon="7.786540">
        <ele>300.494760</ele>
        <time>2021-11-15T23:18:16.894Z</time>
      </trkpt>
      <trkpt lat="47.546959" lon="7.786598">
        <ele>300.468440</ele>
        <time>2021-11-15T23:18:17.595Z</time>
      </trkpt>
      <trkpt lat="47.546897" lon="7.787133">
        <ele>300.225951</ele>
        <time>2021-11-15T23:18:24.772Z</time>
      </trkpt>
      <trkpt lat="47.546800" lon="7.787916">
        <ele>299.870330</ele>
        <time>2021-11-15T23:18:35.997Z</time>
      </trkpt>
      <trkpt lat="47.546695" lon="7.788763">
        <ele>299.779800</ele>
        <time>2021-11-15T23:18:48.591Z</time>
      </trkpt>
      <trkpt lat="47.546673" lon="7.788921">
        <ele>299.879367</ele>
        <time>2021-11-15T23:18:51.199Z</time>
      </trkpt>
      <trkpt lat="47.546253" lon="7.791998">
        <ele>301.552252</ele>
        <time>2021-11-15T23:19:43.188Z</time>
      </trkpt>
      <trkpt lat="47.546077" lon="7.792975">
        <ele>301.883082</ele>
        <time>2021-11-15T23:19:58.649Z</time>
      </trkpt>
      <trkpt lat="47.546027" lon="7.793254">
        <ele>301.977524</ele>
        <time>2021-11-15T23:20:02.917Z</time>
      </trkpt>
      <trkpt lat="47.545969" lon="7.793663">
        <ele>302.114257</ele>
        <time>2021-11-15T23:20:08.048Z</time>
      </trkpt>
      <trkpt lat="47.545921" lon="7.794468">
        <ele>301.923529</ele>
        <time>2021-11-15T23:20:17.879Z</time>
      </trkpt>
      <trkpt lat="47.545947" lon="7.794710">
        <ele>301.859548</ele>
        <time>2021-11-15T23:20:20.737Z</time>
      </trkpt>
      <trkpt lat="47.546019" lon="7.795020">
        <ele>301.773950</ele>
        <time>2021-11-15T23:20:24.781Z</time>
      </trkpt>
      <trkpt lat="47.546165" lon="7.795511">
        <ele>301.633863</ele>
        <time>2021-11-15T23:20:31.879Z</time>
      </trkpt>
      <trkpt lat="47.546170" lon="7.795612">
        <ele>301.607421</ele>
        <time>2021-11-15T23:20:32.927Z</time>
      </trkpt>
      <trkpt lat="47.546154" lon="7.795747">
        <ele>301.571634</ele>
        <time>2021-11-15T23:20:34.759Z</time>
      </trkpt>
      <trkpt lat="47.546105" lon="7.795928">
        <ele>301.520716</ele>
        <time>2021-11-15T23:20:37.900Z</time>
      </trkpt>
      <trkpt lat="47.546038" lon="7.796107">
        <ele>301.467275</ele>
        <time>2021-11-15T23:20:40.218Z</time>
      </trkpt>
      <trkpt lat="47.545889" lon="7.796500">
        <ele>301.439584</ele>
        <time>2021-11-15T23:20:47.095Z</time>
      </trkpt>
      <trkpt lat="47.545788" lon="7.796748">
        <ele>301.448814</ele>
        <time>2021-11-15T23:20:50.751Z</time>
      </trkpt>
      <trkpt lat="47.545755" lon="7.796861">
        <ele>301.452737</ele>
        <time>2021-11-15T23:20:52.905Z</time>
      </trkpt>
      <trkpt lat="47.545728" lon="7.796950">
        <ele>301.455847</ele>
        <time>2021-11-15T23:20:54.105Z</time>
      </trkpt>
      <trkpt lat="47.545689" lon="7.797076">
        <ele>301.460264</ele>
        <time>2021-11-15T23:20:55.563Z</time>
      </trkpt>
      <trkpt lat="47.545670" lon="7.797142">
        <ele>301.462551</ele>
        <time>2021-11-15T23:20:56.625Z</time>
      </trkpt>
      <trkpt lat="47.545645" lon="7.797258">
        <ele>301.466431</ele>
        <time>2021-11-15T23:20:58.387Z</time>
      </trkpt>
      <trkpt lat="47.545637" lon="7.797310">
        <ele>301.468131</ele>
        <time>2021-11-15T23:20:59.731Z</time>
      </trkpt>
      <trkpt lat="47.545558" lon="7.798144">
        <ele>301.494968</ele>
        <time>2021-11-15T23:21:11.012Z</time>
      </trkpt>
      <trkpt lat="47.545511" lon="7.798680">
        <ele>301.512193</ele>
        <time>2021-11-15T23:21:19.082Z</time>
      </trkpt>
      <trkpt lat="47.545581" lon="7.798713">
        <ele>301.505872</ele>
        <time>2021-11-15T23:21:20.593Z</time>
      </trkpt>
      <trkpt lat="47.545731" lon="7.798810">
        <ele>301.434129</ele>
        <time>2021-11-15T23:21:24.597Z</time>
      </trkpt>
      <trkpt lat="47.545807" lon="7.798846">
        <ele>301.399153</ele>
        <time>2021-11-15T23:21:25.936Z</time>
      </trkpt>
      <trkpt lat="47.546418" lon="7.798980">
        <ele>301.128404</ele>
        <time>2021-11-15T23:21:37.991Z</time>
      </trkpt>
      <trkpt lat="47.547540" lon="7.799538">
        <ele>300.652192</ele>
        <time>2021-11-15T23:21:58.632Z</time>
      </trkpt>
      <trkpt lat="47.547912" lon="7.799646">
        <ele>300.546678</ele>
        <time>2021-11-15T23:22:06.012Z</time>
      </trkpt>
      <trkpt lat="47.548459" lon="7.799691">
        <ele>300.394187</ele>
        <time>2021-11-15T23:22:16.950Z</time>
      </trkpt>
      <trkpt lat="47.548535" lon="7.799720">
        <ele>300.372343</ele>
        <time>2021-11-15T23:22:18.470Z</time>
      </trkpt>
      <trkpt lat="47.548514" lon="7.799795">
        <ele>300.357088</ele>
        <time>2021-11-15T23:22:19.534Z</time>
      </trkpt>
      <trkpt lat="47.548519" lon="7.799896">
        <ele>300.338061</ele>
        <time>2021-11-15T23:22:20.889Z</time>
      </trkpt>
      <trkpt lat="47.548545" lon="7.800404">
        <ele>300.242347</ele>
        <time>2021-11-15T23:22:27.680Z</time>
      </trkpt>
      <trkpt lat="47.548560" lon="7.800672">
        <ele>300.211165</ele>
        <time>2021-11-15T23:22:31.372Z</time>
      </trkpt>
      <trkpt lat="47.548569" lon="7.800838">
        <ele>300.197777</ele>
        <time>2021-11-15T23:22:33.616Z</time>
      </trkpt>
      <trkpt lat="47.548576" lon="7.800968">
        <ele>300.187294</ele>
        <time>2021-11-15T23:22:35.392Z</time>
      </trkpt>
      <trkpt lat="47.548596" lon="7.801213">
        <ele>300.167455</ele>
        <time>2021-11-15T23:22:38.771Z</time>
      </trkpt>
      <trkpt lat="47.548607" lon="7.801690">
        <ele>300.129086</ele>
        <time>2021-11-15T23:22:45.271Z</time>
      </trkpt>
      <trkpt lat="47.548626" lon="7.802129">
        <ele>300.093723</ele>
        <time>2021-11-15T23:22:51.190Z</time>
      </trkpt>
      <trkpt lat="47.548877" lon="7.802168">
        <ele>300.063665</ele>
        <time>2021-11-15T23:22:56.182Z</time>
      </trkpt>
      <trkpt lat="47.549125" lon="7.802195">
        <ele>300.034048</ele>
        <time>2021-11-15T23:23:01.108Z</time>
      </trkpt>
      <trkpt lat="47.549205" lon="7.802204">
        <ele>300.024492</ele>
        <time>2021-11-15T23:23:02.661Z</time>
      </trkpt>
      <trkpt lat="47.549410" lon="7.802226">
        <ele>299.978789</ele>
        <time>2021-11-15T23:23:06.600Z</time>
      </trkpt>
      <trkpt lat="47.549481" lon="7.802234">
        <ele>299.954516</ele>
        <time>2021-11-15T23:23:07.938Z</time>
      </trkpt>
      <trkpt lat="47.549879" lon="7.802247">
        <ele>299.818807</ele>
        <time>2021-11-15T23:23:15.404Z</time>
      </trkpt>
      <trkpt lat="47.550146" lon="7.802262">
        <ele>299.727723</ele>
        <time>2021-11-15T23:23:20.478Z</time>
      </trkpt>
      <trkpt lat="47.550134" lon="7.803051">
        <ele>299.546141</ele>
        <time>2021-11-15T23:23:30.702Z</time>
      </trkpt>
      <trkpt lat="47.550196" lon="7.803120">
        <ele>299.519707</ele>
        <time>2021-11-15T23:23:32.161Z</time>
      </trkpt>
      <trkpt lat="47.550981" lon="7.803132">
        <ele>299.466017</ele>
        <time>2021-11-15T23:23:46.808Z</time>
      </trkpt>
      <trkpt lat="47.551163" lon="7.803129">
        <ele>299.494777</ele>
        <time>2021-11-15T23:23:50.211Z</time>
      </trkpt>
      <trkpt lat="47.551598" lon="7.803160">
        <ele>299.563592</ele>
        <time>2021-11-15T23:23:58.804Z</time>
      </trkpt>
      <trkpt lat="47.551666" lon="7.803144">
        <ele>299.574472</ele>
        <time>2021-11-15T23:24:03.548Z</time>
      </trkpt>
      <trkpt lat="47.551732" lon="7.803125">
        <ele>299.585095</ele>
        <time>2021-11-15T23:24:08.215Z</time>
      </trkpt>
      <trkpt lat="47.551744" lon="7.803277">
        <ele>299.601416</ele>
        <time>2021-11-15T23:24:09.909Z</time>
      </trkpt>
      <trkpt lat="47.551751" lon="7.803369">
        <ele>299.611290</ele>
        <time>2021-11-15T23:24:10.983Z</time>
      </trkpt>
      <trkpt lat="47.551692" lon="7.803510">
        <ele>299.628982</ele>
        <time>2021-11-15T23:24:13.577Z</time>
      </trkpt>
      <trkpt lat="47.551741" lon="7.804294">
        <ele>299.823999</ele>
        <time>2021-11-15T23:24:26.595Z</time>
      </trkpt>
      <trkpt lat="47.551744" lon="7.804473">
        <ele>299.912666</ele>
        <time>2021-11-15T23:24:29.114Z</time>
      </trkpt>
      <trkpt lat="47.551731" lon="7.804667">
        <ele>300.009205</ele>
        <time>2021-11-15T23:24:33.094Z</time>
      </trkpt>
      <trkpt lat="47.551709" lon="7.805000">
        <ele>300.174892</ele>
        <time>2021-11-15T23:24:37.586Z</time>
      </trkpt>
      <trkpt lat="47.551681" lon="7.805477">
        <ele>300.411991</ele>
        <time>2021-11-15T23:24:45.323Z</time>
      </trkpt>
      <trkpt lat="47.551671" lon="7.806117">
        <ele>300.728999</ele>
        <time>2021-11-15T23:24:55.412Z</time>
      </trkpt>
      <trkpt lat="47.551651" lon="7.806246">
        <ele>300.794542</ele>
        <time>2021-11-15T23:24:58.314Z</time>
      </trkpt>
      <trkpt lat="47.551895" lon="7.806278">
        <ele>300.974265</ele>
        <time>2021-11-15T23:25:01.840Z</time>
      </trkpt>
      <trkpt lat="47.552015" lon="7.806307">
        <ele>300.977642</ele>
        <time>2021-11-15T23:25:04.710Z</time>
      </trkpt>
      <trkpt lat="47.552068" lon="7.806445">
        <ele>300.946245</ele>
        <time>2021-11-15T23:25:06.167Z</time>
      </trkpt>
      <trkpt lat="47.552398" lon="7.808880">
        <ele>300.428945</ele>
        <time>2021-11-15T23:25:28.310Z</time>
      </trkpt>
      <trkpt lat="47.552566" lon="7.810386">
        <ele>299.732348</ele>
        <time>2021-11-15T23:25:41.321Z</time>
      </trkpt>
      <trkpt lat="47.552711" lon="7.812955">
        <ele>298.616824</ele>
        <time>2021-11-15T23:26:03.930Z</time>
      </trkpt>
      <trkpt lat="47.552844" lon="7.816432">
        <ele>297.440389</ele>
        <time>2021-11-15T23:26:34.632Z</time>
      </trkpt>
      <trkpt lat="47.552853" lon="7.816662">
        <ele>297.371239</ele>
        <time>2021-11-15T23:26:36.925Z</time>
      </trkpt>
      <trkpt lat="47.552948" lon="7.819358">
        <ele>297.793298</ele>
        <time>2021-11-15T23:27:05.801Z</time>
      </trkpt>
      <trkpt lat="47.552896" lon="7.820699">
        <ele>298.391179</ele>
        <time>2021-11-15T23:27:21.639Z</time>
      </trkpt>
      <trkpt lat="47.552567" lon="7.824508">
        <ele>300.252955</ele>
        <time>2021-11-15T23:28:08.064Z</time>
      </trkpt>
      <trkpt lat="47.552491" lon="7.827227">
        <ele>301.586482</ele>
        <time>2021-11-15T23:28:39.804Z</time>
      </trkpt>
      <trkpt lat="47.552515" lon="7.828094">
        <ele>302.484122</ele>
        <time>2021-11-15T23:28:51.514Z</time>
      </trkpt>
      <trkpt lat="47.552477" lon="7.828294">
        <ele>302.719408</ele>
        <time>2021-11-15T23:28:54.131Z</time>
      </trkpt>
      <trkpt lat="47.552421" lon="7.828481">
        <ele>302.951080</ele>
        <time>2021-11-15T23:28:57.062Z</time>
      </trkpt>
      <trkpt lat="47.552404" lon="7.828582">
        <ele>303.068957</ele>
        <time>2021-11-15T23:28:58.747Z</time>
      </trkpt>
      <trkpt lat="47.552416" lon="7.828822">
        <ele>303.341481</ele>
        <time>2021-11-15T23:29:01.981Z</time>
      </trkpt>
      <trkpt lat="47.552554" lon="7.829266">
        <ele>303.895027</ele>
        <time>2021-11-15T23:29:09.332Z</time>
      </trkpt>
      <trkpt lat="47.552645" lon="7.830686">
        <ele>306.111333</ele>
        <time>2021-11-15T23:29:32.638Z</time>
      </trkpt>
      <trkpt lat="47.552690" lon="7.832598">
        <ele>309.825619</ele>
        <time>2021-11-15T23:30:08.115Z</time>
      </trkpt>
      <trkpt lat="47.552616" lon="7.832891">
        <ele>310.399848</ele>
        <time>2021-11-15T23:30:13.479Z</time>
      </trkpt>
      <trkpt lat="47.552556" lon="7.832977">
        <ele>310.626500</ele>
        <time>2021-11-15T23:30:16.210Z</time>
      </trkpt>
      <trkpt lat="47.552511" lon="7.833072">
        <ele>310.839175</ele>
        <time>2021-11-15T23:30:18.236Z</time>
      </trkpt>
      <trkpt lat="47.552467" lon="7.833198">
        <ele>311.099134</ele>
        <time>2021-11-15T23:30:20.638Z</time>
      </trkpt>
      <trkpt lat="47.552452" lon="7.833284">
        <ele>311.261900</ele>
        <time>2021-11-15T23:30:22.249Z</time>
      </trkpt>
      <trkpt lat="47.552696" lon="7.833789">
        <ele>312.399956</ele>
        <time>2021-11-15T23:30:33.280Z</time>
      </trkpt>
      <trkpt lat="47.552700" lon="7.833938">
        <ele>312.673201</ele>
        <time>2021-11-15T23:30:36.225Z</time>
      </trkpt>
      <trkpt lat="47.552714" lon="7.835010">
        <ele>314.637912</ele>
        <time>2021-11-15T23:30:54.702Z</time>
      </trkpt>
      <trkpt lat="47.552719" lon="7.836790">
        <ele>316.649056</ele>
        <time>2021-11-15T23:31:19.985Z</time>
      </trkpt>
      <trkpt lat="47.552697" lon="7.838068">
        <ele>318.044832</ele>
        <time>2021-11-15T23:31:37.627Z</time>
      </trkpt>
      <trkpt lat="47.552736" lon="7.838578">
        <ele>318.579578</ele>
        <time>2021-11-15T23:31:44.754Z</time>
      </trkpt>
      <trkpt lat="47.552802" lon="7.839009">
        <ele>319.040030</ele>
        <time>2021-11-15T23:31:50.973Z</time>
      </trkpt>
      <trkpt lat="47.552939" lon="7.839526">
        <ele>319.618697</ele>
        <time>2021-11-15T23:31:58.763Z</time>
      </trkpt>
      <trkpt lat="47.553231" lon="7.841529">
        <ele>321.689913</ele>
        <time>2021-11-15T23:32:28.892Z</time>
      </trkpt>
      <trkpt lat="47.553216" lon="7.841849">
        <ele>322.007620</ele>
        <time>2021-11-15T23:32:33.416Z</time>
      </trkpt>
      <trkpt lat="47.553123" lon="7.842222">
        <ele>322.401461</ele>
        <time>2021-11-15T23:32:38.646Z</time>
      </trkpt>
      <trkpt lat="47.553133" lon="7.842431">
        <ele>322.608985</ele>
        <time>2021-11-15T23:32:41.776Z</time>
      </trkpt>
      <trkpt lat="47.552833" lon="7.842495">
        <ele>323.053786</ele>
        <time>2021-11-15T23:32:49.084Z</time>
      </trkpt>
      <trkpt lat="47.552380" lon="7.842592">
        <ele>323.420835</ele>
        <time>2021-11-15T23:33:00.133Z</time>
      </trkpt>
      <trkpt lat="47.551922" lon="7.842704">
        <ele>323.769558</ele>
        <time>2021-11-15T23:33:10.699Z</time>
      </trkpt>
      <trkpt lat="47.551668" lon="7.842770">
        <ele>323.963285</ele>
        <time>2021-11-15T23:33:16.658Z</time>
      </trkpt>
      <trkpt lat="47.551454" lon="7.842815">
        <ele>324.125661</ele>
        <time>2021-11-15T23:33:21.265Z</time>
      </trkpt>
      <trkpt lat="47.551344" lon="7.844621">
        <ele>325.271126</ele>
        <time>2021-11-15T23:33:43.127Z</time>
      </trkpt>
      <trkpt lat="47.551242" lon="7.846138">
        <ele>326.350316</ele>
        <time>2021-11-15T23:34:03.473Z</time>
      </trkpt>
      <trkpt lat="47.551205" lon="7.846694">
        <ele>326.966094</ele>
        <time>2021-11-15T23:34:11.105Z</time>
      </trkpt>
      <trkpt lat="47.551184" lon="7.847206">
        <ele>327.531446</ele>
        <time>2021-11-15T23:34:18.473Z</time>
      </trkpt>
      <trkpt lat="47.551196" lon="7.847517">
        <ele>327.874780</ele>
        <time>2021-11-15T23:34:23.108Z</time>
      </trkpt>
      <trkpt lat="47.551669" lon="7.848083">
        <ele>328.867645</ele>
        <time>2021-11-15T23:34:36.604Z</time>
      </trkpt>
      <trkpt lat="47.551242" lon="7.848702">
        <ele>329.770356</ele>
        <time>2021-11-15T23:34:49.466Z</time>
      </trkpt>
      <trkpt lat="47.550975" lon="7.849066">
        <ele>330.289324</ele>
        <time>2021-11-15T23:34:56.781Z</time>
      </trkpt>
      <trkpt lat="47.550810" lon="7.849346">
        <ele>330.648162</ele>
        <time>2021-11-15T23:35:03.174Z</time>
      </trkpt>
      <trkpt lat="47.550488" lon="7.850081">
        <ele>331.494093</ele>
        <time>2021-11-15T23:35:18.640Z</time>
      </trkpt>
      <trkpt lat="47.550333" lon="7.850434">
        <ele>331.852151</ele>
        <time>2021-11-15T23:35:25.971Z</time>
      </trkpt>
      <trkpt lat="47.550009" lon="7.851173">
        <ele>332.126520</ele>
        <time>2021-11-15T23:35:40.566Z</time>
      </trkpt>
      <trkpt lat="47.549830" lon="7.851571">
        <ele>332.275428</ele>
        <time>2021-11-15T23:35:47.770Z</time>
      </trkpt>
      <trkpt lat="47.549652" lon="7.851969">
        <ele>332.424081</ele>
        <time>2021-11-15T23:35:54.443Z</time>
      </trkpt>
      <trkpt lat="47.549535" lon="7.852225">
        <ele>332.520342</ele>
        <time>2021-11-15T23:35:58.500Z</time>
      </trkpt>
      <trkpt lat="47.549285" lon="7.852784">
        <ele>332.590407</ele>
        <time>2021-11-15T23:36:07.133Z</time>
      </trkpt>
      <trkpt lat="47.549708" lon="7.853279">
        <ele>332.348790</ele>
        <time>2021-11-15T23:36:17.533Z</time>
      </trkpt>
      <trkpt lat="47.550221" lon="7.853833">
        <ele>332.064239</ele>
        <time>2021-11-15T23:36:29.455Z</time>
      </trkpt>
      <trkpt lat="47.549883" lon="7.854434">
        <ele>331.827330</ele>
        <time>2021-11-15T23:36:36.133Z</time>
      </trkpt>
      <trkpt lat="47.549566" lon="7.855225">
        <ele>331.546409</ele>
        <time>2021-11-15T23:36:47.277Z</time>
      </trkpt>
      <trkpt lat="47.549362" lon="7.855774">
        <ele>331.355032</ele>
        <time>2021-11-15T23:36:55.199Z</time>
      </trkpt>
      <trkpt lat="47.548887" lon="7.857308">
        <ele>331.165781</ele>
        <time>2021-11-15T23:37:17.307Z</time>
      </trkpt>
      <trkpt lat="47.548743" lon="7.857692">
        <ele>331.251349</ele>
        <time>2021-11-15T23:37:23.279Z</time>
      </trkpt>
      <trkpt lat="47.548701" lon="7.857893">
        <ele>331.292335</ele>
        <time>2021-11-15T23:37:26.250Z</time>
      </trkpt>
      <trkpt lat="47.548686" lon="7.857973">
        <ele>331.308508</ele>
        <time>2021-11-15T23:37:27.373Z</time>
      </trkpt>
      <trkpt lat="47.548611" lon="7.858381">
        <ele>331.390876</ele>
        <time>2021-11-15T23:37:33.587Z</time>
      </trkpt>
      <trkpt lat="47.548334" lon="7.859801">
        <ele>332.122584</ele>
        <time>2021-11-15T23:37:56.625Z</time>
      </trkpt>
      <trkpt lat="47.548049" lon="7.860929">
        <ele>333.217979</ele>
        <time>2021-11-15T23:38:17.643Z</time>
      </trkpt>
      <trkpt lat="47.547930" lon="7.861711">
        <ele>333.947034</ele>
        <time>2021-11-15T23:38:32.407Z</time>
      </trkpt>
      <trkpt lat="47.547568" lon="7.863151">
        <ele>335.449040</ele>
        <time>2021-11-15T23:39:01.535Z</time>
      </trkpt>
      <trkpt lat="47.547320" lon="7.863864">
        <ele>336.234445</ele>
        <time>2021-11-15T23:39:15.475Z</time>
      </trkpt>
      <trkpt lat="47.546974" lon="7.864423">
        <ele>336.501438</ele>
        <time>2021-11-15T23:39:26.298Z</time>
      </trkpt>
      <trkpt lat="47.546885" lon="7.864500">
        <ele>336.466933</ele>
        <time>2021-11-15T23:39:29.383Z</time>
      </trkpt>
      <trkpt lat="47.546894" lon="7.864837">
        <ele>336.390717</ele>
        <time>2021-11-15T23:39:33.267Z</time>
      </trkpt>
      <trkpt lat="47.546889" lon="7.865225">
        <ele>336.303020</ele>
        <time>2021-11-15T23:39:38.692Z</time>
      </trkpt>
      <trkpt lat="47.546819" lon="7.865489">
        <ele>336.238923</ele>
        <time>2021-11-15T23:39:42.636Z</time>
      </trkpt>
      <trkpt lat="47.546510" lon="7.865766">
        <ele>336.118007</ele>
        <time>2021-11-15T23:39:49.270Z</time>
      </trkpt>
      <trkpt lat="47.546327" lon="7.865959">
        <ele>336.042801</ele>
        <time>2021-11-15T23:39:52.785Z</time>
      </trkpt>
      <trkpt lat="47.546096" lon="7.866147">
        <ele>335.931137</ele>
        <time>2021-11-15T23:39:57.341Z</time>
      </trkpt>
      <trkpt lat="47.545240" lon="7.866887">
        <ele>335.369995</ele>
        <time>2021-11-15T23:40:14.015Z</time>
      </trkpt>
      <trkpt lat="47.545160" lon="7.866985">
        <ele>335.311220</ele>
        <time>2021-11-15T23:40:15.971Z</time>
      </trkpt>
      <trkpt lat="47.545003" lon="7.867278">
        <ele>335.168247</ele>
        <time>2021-11-15T23:40:21.552Z</time>
      </trkpt>
      <trkpt lat="47.544568" lon="7.867693">
        <ele>334.970077</ele>
        <time>2021-11-15T23:40:33.395Z</time>
      </trkpt>
      <trkpt lat="47.544469" lon="7.867776">
        <ele>334.970077</ele>
        <time>2021-11-15T23:40:35.864Z</time>
      </trkpt>
      <trkpt lat="47.544410" lon="7.867825">
        <ele>334.970077</ele>
        <time>2021-11-15T23:40:37.530Z</time>
      </trkpt>
      <trkpt lat="47.544246" lon="7.867967">
        <ele>334.970077</ele>
        <time>2021-11-15T23:40:41.876Z</time>
      </trkpt>
      <trkpt lat="47.544214" lon="7.867988">
        <ele>334.970077</ele>
        <time>2021-11-15T23:40:42.644Z</time>
      </trkpt>
      <trkpt lat="47.543801" lon="7.868269">
        <ele>334.970077</ele>
        <time>2021-11-15T23:40:53.057Z</time>
      </trkpt>
      <trkpt lat="47.543657" lon="7.868359">
        <ele>334.970077</ele>
        <time>2021-11-15T23:40:56.999Z</time>
      </trkpt>
    </trkseg>
  </trk>
</gpx>